GFSMA_925_spd_000.txt.gz
Wind_Speed
5 3 3 5 6 5 11 19 16 15 17 24 20 19 18 20 24 29 30 26 24 26 29 28 27 27 28 27 26 24 23 23 22 23 22 22 26 25 24 24 23 22 22
5 3 3 6 8 12 19 22 28 21 22 17 17 16 19 18 19 25 24 34 32 23 30 34 31 30 30 30 27 27 26 25 25 25 24 24 27 27 26 26 24 24 23
7 4 4 7 9 7 9 20 24 24 25 22 19 16 18 19 21 21 22 25 32 33 28 37 39 33 34 32 31 29 29 28 27 26 26 26 27 28 27 26 25 24 23
8 6 5 5 6 8 8 8 7 7 11 17 22 19 22 20 20 22 22 26 27 25 25 29 42 40 36 36 34 32 31 32 31 30 29 27 28 29 27 27 26 26 26
6 6 5 5 7 8 8 10 10 8 10 9 13 20 24 23 22 22 19 23 28 29 26 27 33 42 41 39 38 34 33 34 34 32 31 31 30 30 30 29 27 26 25
4 5 5 5 6 7 8 10 10 10 10 11 16 16 17 23 23 19 19 20 26 31 30 31 31 35 46 42 40 38 34 34 34 34 34 35 31 32 33 31 32 29 27
2 4 5 7 7 7 7 9 10 11 12 13 14 14 16 17 24 21 20 21 22 31 33 33 31 33 36 47 42 41 37 33 35 36 36 35 35 33 34 33 34 29 31
4 4 6 8 9 11 11 10 11 12 11 11 10 16 6 9 12 18 25 25 26 23 32 32 28 36 32 34 45 42 42 38 37 37 38 37 36 35 36 35 36 34 31
7 7 8 10 11 12 13 14 14 14 15 14 8 7 5 4 12 9 12 23 24 22 25 33 34 30 32 34 36 42 45 42 39 40 40 39 39 36 37 37 36 35 34
9 9 11 12 13 14 15 17 17 18 19 19 18 13 14 16 6 8 10 13 13 23 24 24 29 32 31 35 37 38 45 48 44 43 45 43 40 39 39 38 37 37 36
8 10 11 13 15 17 19 20 20 21 22 24 22 22 20 19 20 13 12 14 15 14 13 23 24 35 33 34 37 39 43 50 49 47 45 47 45 44 42 41 40 39 38
10 11 11 13 15 18 20 22 24 25 26 27 28 27 25 19 18 15 12 13 15 20 19 15 28 36 40 37 37 38 43 46 52 52 49 47 48 47 46 44 43 42 41
10 13 15 17 19 21 23 24 26 28 29 31 31 30 29 27 24 24 21 16 13 22 17 17 18 28 37 50 41 36 39 48 53 55 53 48 49 49 48 47 46 46 44
12 15 18 21 23 24 26 27 29 31 31 32 34 34 33 31 28 26 24 19 13 14 22 24 16 20 25 36 43 46 38 45 54 53 54 51 45 48 51 49 48 47 46
15 18 20 22 23 24 25 26 29 30 31 32 33 34 35 34 31 28 26 25 20 14 15 21 21 17 25 24 34 42 45 37 48 54 53 51 49 43 47 50 49 48 46
17 20 22 23 25 26 27 28 29 30 32 33 33 34 35 34 33 32 29 27 27 23 15 26 24 16 14 18 21 25 36 41 35 43 50 51 51 50 44 47 50 50 48
20 22 23 24 26 28 27 28 29 31 31 33 35 36 37 37 36 34 33 31 31 29 16 27 28 26 20 16 21 26 16 30 38 38 38 49 50 50 50 48 50 53 52
21 23 24 26 28 28 28 28 30 31 31 33 34 36 38 38 40 38 36 34 32 32 30 19 28 26 23 20 19 25 26 24 27 38 41 37 46 50 50 52 55 56 54
22 24 25 27 28 28 29 29 31 32 33 35 36 36 38 38 38 37 38 35 34 35 34 30 27 28 23 19 16 19 23 26 24 32 31 40 40 47 51 56 60 58 53
23 25 26 28 29 30 30 30 31 33 34 33 34 35 37 37 35 36 37 37 35 33 32 31 29 27 25 18 16 16 16 21 24 23 29 39 45 45 52 60 60 57 53
25 26 28 29 29 30 30 29 29 31 31 32 32 34 35 37 37 35 32 33 33 29 29 29 25 25 24 21 17 13 14 17 15 19 24 28 37 51 56 61 56 54 49
26 27 29 30 31 31 30 28 30 30 31 32 32 34 34 35 36 37 40 39 33 24 27 26 26 22 27 26 21 19 13 8 3 15 22 19 19 33 44 47 57 51 43
29 30 30 29 31 32 31 31 31 31 31 31 32 32 32 32 32 33 33 38 42 40 41 31 27 29 29 27 25 19 17 17 9 18 22 9 15 16 23 40 51 49 43
28 30 30 30 32 33 33 33 33 33 33 34 34 34 34 33 32 32 31 31 33 35 42 43 43 33 31 28 27 23 21 14 10 20 21 4 17 8 16 31 38 39 38
28 29 30 31 32 34 33 34 34 32 30 31 32 33 34 34 34 35 34 32 31 31 29 37 41 41 33 24 14 23 21 21 4 11 21 9 12 15 11 15 22 27 26
29 29 32 31 31 33 36 34 33 30 28 27 28 30 32 36 37 36 35 32 29 30 27 21 30 37 35 31 26 18 26 22 10 7 18 10 23 13 6 12 22 24 26

GFSMA_925_spd_003.txt.gz
Wind_Speed
3 2 1 3 4 5 4 6 7 6 13 16 20 20 25 22 23 20 18 20 28 32 24 22 21 24 29 31 30 28 25 23 23 24 25 27 27 27 25 24 24 23 23
3 2 2 2 4 5 7 11 14 16 17 19 25 23 23 26 21 19 20 20 24 26 27 30 29 28 29 32 33 32 29 26 25 25 26 26 27 29 27 26 25 23 24
4 3 3 4 5 5 8 10 12 16 18 20 22 21 20 20 20 19 22 21 21 27 34 31 33 36 32 31 33 34 32 30 29 27 28 29 28 31 29 27 27 26 26
4 3 3 3 5 4 5 7 8 9 10 12 18 17 16 22 24 22 22 27 25 21 26 35 34 37 40 34 32 33 33 33 33 31 32 32 30 32 30 30 28 28 28
3 2 3 4 5 5 6 8 8 8 10 12 12 16 18 22 26 24 25 26 26 26 24 24 33 30 35 37 37 35 35 34 36 36 33 34 33 34 33 32 31 30 29
2 1 2 4 5 5 6 7 9 10 11 12 15 20 21 20 23 27 28 25 24 25 26 26 24 32 28 30 39 39 37 35 36 36 36 37 36 35 36 34 34 33 33
4 3 4 5 6 8 7 8 9 11 11 10 14 17 19 20 24 24 27 27 25 24 24 25 29 26 25 28 36 43 39 38 38 38 39 38 39 37 38 37 37 36 35
7 7 6 8 8 11 11 11 10 14 14 13 13 15 8 13 16 12 16 23 25 25 21 22 24 29 35 25 27 35 46 42 42 42 42 42 43 40 38 41 41 39 37
12 11 10 11 11 12 14 14 15 15 17 17 18 14 7 7 14 16 14 19 16 20 26 21 24 25 30 40 26 32 45 50 47 42 43 44 44 44 41 43 43 42 41
11 13 13 13 13 15 16 17 19 19 20 21 20 20 21 20 11 10 20 25 20 18 18 22 29 25 26 31 40 31 37 53 51 45 44 46 46 45 44 44 43 42 42
12 11 12 13 14 15 18 20 23 22 24 24 22 21 22 22 23 13 13 15 23 21 19 22 21 26 29 31 39 41 27 41 54 53 46 47 49 48 46 46 45 45 44
10 11 10 11 13 16 18 22 23 25 26 26 26 26 24 20 18 17 12 12 16 21 21 20 23 28 24 34 35 39 38 31 47 55 53 50 51 51 49 48 46 46 44
10 10 11 13 15 18 20 22 25 27 27 28 27 27 28 28 27 26 23 16 13 23 24 25 20 20 28 31 31 43 43 39 34 49 57 54 53 53 52 52 50 48 45
10 11 13 15 18 20 22 24 26 27 28 29 29 30 31 32 31 30 27 20 12 13 24 26 26 23 23 31 31 34 42 50 45 46 53 60 57 56 54 54 53 50 49
11 14 15 17 20 22 23 24 26 28 28 29 29 30 32 34 33 32 32 28 19 13 13 23 23 23 25 26 31 35 33 39 47 37 49 55 62 58 57 57 57 54 53
13 16 19 21 23 23 24 26 26 28 29 29 30 31 33 33 34 33 32 33 31 23 15 25 26 28 20 13 18 25 28 31 37 49 37 44 55 60 59 59 59 58 57
16 19 22 24 24 25 26 27 29 31 31 31 31 32 34 35 35 35 34 34 32 30 17 24 26 28 33 21 14 18 24 35 30 23 34 40 45 52 59 59 61 61 60
19 22 24 26 27 28 28 30 32 32 32 32 32 32 33 33 36 36 37 36 34 33 30 18 27 29 29 30 26 20 19 28 29 31 23 37 40 46 53 57 57 60 61
22 24 26 27 29 30 30 31 32 33 33 33 33 33 34 33 35 36 37 34 34 35 33 29 28 27 30 30 25 21 19 20 23 31 42 33 28 36 46 52 56 56 59
23 25 26 28 29 30 31 31 32 32 33 33 31 31 33 35 36 35 34 33 33 32 32 32 30 27 29 30 29 22 14 17 22 23 28 37 39 27 41 45 54 55 58
23 25 27 29 29 29 30 29 29 31 32 31 31 31 32 34 36 37 33 30 28 30 28 27 26 25 26 27 25 22 16 15 20 24 24 27 32 32 31 42 49 56 59
24 26 27 29 29 29 29 30 29 31 30 31 30 32 34 35 37 38 39 39 37 33 27 22 25 21 27 26 27 25 18 8 6 19 17 13 25 17 20 45 46 55 62
25 27 28 28 29 30 30 28 29 31 30 30 31 32 32 32 32 33 33 36 40 42 44 37 31 26 25 27 27 28 21 17 16 10 14 5 10 24 17 14 48 56 63
25 26 27 27 29 29 30 31 31 31 30 32 33 35 35 34 34 33 30 30 31 33 37 37 38 40 33 28 19 18 21 17 11 12 16 4 10 6 20 11 22 43 65
25 26 26 27 29 30 32 34 33 31 29 30 31 32 33 34 34 34 34 33 32 28 28 34 37 39 41 46 38 25 8 15 3 6 15 7 8 13 7 18 17 15 30
25 25 27 28 27 29 33 35 34 31 29 28 29 31 33 36 37 36 34 32 29 30 31 30 27 36 40 42 45 29 20 17 8 4 16 7 16 8 5 9 19 20 24

GFSMA_925_spd_006.txt.gz
Wind_Speed
4 5 3 2 2 3 6 9 11 11 14 11 8 20 21 22 23 20 25 26 27 28 26 23 24 25 27 29 30 29 28 28 28 26 27 29 28 26 25 24 22 21 20
3 2 2 2 3 4 6 8 8 13 17 19 18 19 24 23 26 26 28 22 23 25 31 30 26 26 27 29 31 31 30 29 29 27 26 27 30 30 28 26 24 23 20
3 3 1 0 1 5 7 9 10 8 10 15 17 17 17 22 26 29 26 27 27 25 26 31 34 33 27 30 32 35 34 32 31 30 28 30 28 30 30 29 27 24 23
5 2 1 1 4 2 4 6 10 12 12 13 15 16 18 20 21 22 26 26 27 29 24 24 29 39 39 39 32 34 34 36 34 31 32 33 30 30 30 30 28 27 26
4 4 3 2 2 3 4 5 9 11 13 14 16 16 19 22 24 25 27 25 26 30 27 24 23 26 34 35 36 32 32 36 38 35 35 35 35 33 32 32 30 30 30
6 5 4 3 2 4 4 7 9 11 13 16 15 19 20 22 22 25 26 27 29 32 31 30 29 25 29 37 39 41 33 36 36 36 38 38 38 37 33 33 33 33 33
9 7 5 2 3 5 6 8 9 10 15 17 20 18 16 23 22 26 21 21 28 27 28 29 27 32 26 31 34 36 37 36 38 38 40 41 40 38 35 36 35 36 35
12 10 10 7 6 5 8 11 11 11 13 16 15 18 6 16 19 21 19 19 15 17 23 25 29 29 31 23 25 38 36 39 41 39 42 43 42 41 38 37 39 38 37
17 15 13 11 10 8 8 10 14 17 18 15 17 16 7 6 13 25 24 27 20 24 23 23 20 28 28 29 31 27 33 38 43 43 44 48 44 43 42 39 39 40 39
21 18 14 13 11 9 10 12 12 13 17 18 19 19 23 24 9 12 17 23 24 27 24 25 26 21 24 31 30 32 37 28 39 47 47 43 47 46 45 43 39 42 42
9 7 8 11 13 9 9 12 15 19 19 20 20 19 21 24 24 12 13 13 21 20 22 25 28 24 22 25 27 32 35 39 31 39 49 52 48 48 49 46 44 44 45
7 3 3 3 5 8 10 13 16 19 21 23 24 24 23 18 17 15 11 14 13 21 23 25 28 27 28 28 25 23 29 33 38 29 41 50 52 47 51 50 48 47 47
5 3 6 8 11 13 17 20 22 24 24 26 27 27 27 28 27 26 25 19 13 27 27 28 29 31 30 33 32 29 32 36 38 40 32 39 52 51 51 51 51 51 49
4 5 7 11 13 15 20 22 24 24 24 26 28 28 28 26 26 26 26 20 13 15 26 23 24 25 30 31 35 34 29 36 35 38 41 32 42 55 56 54 54 54 52
5 4 8 11 18 19 21 22 24 25 25 27 28 29 30 28 28 28 30 30 23 15 14 20 22 22 24 22 29 32 30 29 33 33 33 37 40 45 55 57 57 57 55
11 11 13 17 19 21 23 24 25 25 26 28 28 28 28 28 29 29 29 29 28 25 15 26 26 25 24 30 25 25 28 27 29 31 37 31 34 39 49 59 61 61 59
13 18 19 19 22 24 25 26 27 28 29 30 31 32 33 32 33 32 31 31 30 29 15 29 28 28 25 23 29 25 28 29 26 26 24 27 23 31 36 56 66 65 63
19 18 20 22 24 26 26 27 28 29 29 29 30 30 31 31 31 31 30 31 30 30 27 21 28 26 28 29 30 34 29 31 30 29 32 33 33 31 23 26 58 68 66
16 20 22 24 26 26 27 28 29 29 30 31 31 30 31 31 32 32 32 32 30 29 28 26 31 31 30 26 27 28 33 30 29 23 27 30 35 34 28 28 32 63 68
19 21 24 26 27 28 27 27 28 30 30 29 28 28 28 27 27 28 30 31 29 28 25 23 27 29 27 27 28 26 28 34 34 32 28 31 31 34 39 31 24 38 60
22 24 25 27 26 26 26 25 24 24 24 27 28 29 30 32 34 34 32 32 31 29 26 21 21 24 21 22 20 25 25 28 31 24 26 30 31 30 33 36 38 33 48
22 24 25 26 26 25 24 27 28 23 23 25 28 30 34 35 37 38 39 40 38 34 32 26 22 18 16 19 23 25 25 17 6 20 21 25 26 30 28 30 33 31 35
22 23 24 24 25 25 25 26 27 27 27 29 31 31 32 32 33 34 35 37 39 42 43 37 34 33 28 21 21 19 13 10 16 16 14 13 19 20 22 22 30 28 31
22 23 23 23 24 23 29 32 35 33 30 32 33 33 33 35 35 35 35 34 33 32 35 40 40 38 39 33 31 24 10 18 17 18 19 5 9 5 10 12 21 24 27
22 22 20 22 25 29 29 32 33 32 31 33 35 35 34 35 36 35 36 33 33 34 34 34 36 36 36 35 36 32 25 11 4 6 16 9 6 2 2 1 6 17 26
22 22 26 21 23 28 31 32 33 31 30 25 26 25 28 31 38 38 35 32 29 30 28 31 32 33 34 37 38 35 28 21 13 4 15 10 9 6 2 4 5 11 19

GFSMA_925_spd_009.txt.gz
Wind_Speed
5 6 4 4 3 2 5 7 7 9 11 14 16 18 16 16 14 18 27 25 24 27 29 24 22 21 23 29 31 31 32 32 30 29 29 28 28 25 25 24 23 22 21
6 7 6 5 5 5 6 6 8 9 10 13 15 16 18 21 21 23 23 25 31 27 27 28 28 24 24 27 32 33 35 34 33 32 32 31 32 31 28 26 25 23 22
10 7 7 5 4 2 3 4 7 9 9 9 9 12 15 17 22 22 24 25 25 29 27 28 27 28 29 25 30 33 36 37 35 35 34 34 33 34 33 30 27 26 24
5 6 6 8 6 2 4 6 5 8 10 12 13 13 10 15 20 22 24 24 25 28 29 29 27 26 28 37 28 28 36 37 37 36 35 34 34 33 36 34 31 29 27
8 6 8 6 2 3 3 3 8 9 11 13 16 16 18 19 19 22 22 22 24 27 29 31 26 28 25 25 36 36 31 32 38 39 37 36 35 35 35 35 35 32 30
10 9 8 9 4 5 7 4 5 5 8 14 18 19 17 18 24 25 21 18 20 23 27 32 32 29 27 26 30 32 35 35 36 39 41 40 38 38 35 35 36 36 33
15 13 11 8 9 7 4 1 5 7 11 11 17 17 21 18 19 24 22 24 20 24 17 19 28 32 32 27 27 28 34 33 35 34 41 43 45 40 39 36 36 35 35
19 17 14 14 11 9 9 8 6 5 8 12 8 14 4 16 16 17 31 27 27 23 25 26 18 19 25 31 25 27 26 30 34 37 42 46 48 44 42 42 39 39 38
24 22 18 14 13 12 9 8 8 11 15 9 11 6 3 4 12 19 20 23 24 27 26 27 23 20 21 23 32 28 29 24 29 34 39 42 39 42 43 44 42 42 43
27 25 21 18 13 10 7 6 3 4 11 14 17 17 19 22 7 11 16 20 23 25 24 23 24 24 23 17 19 21 25 27 30 30 36 38 40 43 41 44 45 44 44
17 24 18 11 7 5 7 7 6 9 13 17 18 20 22 24 22 10 13 16 24 25 26 26 27 30 29 22 24 23 21 24 28 28 32 33 37 41 44 44 45 45 46
12 13 14 11 9 6 3 10 15 20 23 27 30 28 24 15 16 16 10 14 16 23 25 30 32 33 30 33 31 26 24 23 23 26 25 30 29 37 44 48 47 45 48
13 9 3 2 8 10 12 18 23 29 31 28 31 30 28 26 25 24 23 17 13 26 25 27 26 30 32 32 31 32 31 27 25 27 30 30 29 31 34 51 51 52 51
12 8 6 7 7 12 16 22 27 31 31 31 31 30 30 27 25 24 21 20 14 15 25 24 24 25 27 30 25 24 26 25 23 23 22 26 28 30 37 30 54 56 52
11 3 4 9 13 19 18 25 25 30 31 32 31 30 31 29 28 29 27 25 19 14 14 21 23 26 31 36 26 24 18 20 20 21 22 22 25 26 27 36 35 63 60
7 2 9 20 19 18 21 26 30 30 30 31 31 30 29 29 28 27 26 24 23 19 14 22 23 23 22 25 26 27 31 31 29 24 24 24 25 24 26 26 31 33 66
4 9 13 14 19 23 27 28 30 30 30 31 32 32 32 29 28 26 26 27 26 26 17 25 28 27 29 30 31 35 30 27 21 23 25 23 21 23 27 32 28 26 30
2 8 14 16 23 24 26 27 29 30 32 31 32 30 32 30 30 28 27 26 26 26 27 22 26 27 29 29 30 31 34 32 33 28 23 21 22 27 29 29 34 37 34
8 11 19 21 22 25 26 29 31 32 33 32 33 33 31 29 28 27 26 23 24 24 24 25 22 21 22 24 28 32 34 30 35 28 22 25 28 28 29 30 30 31 34
14 15 18 24 25 26 28 28 28 30 29 24 23 23 26 27 27 28 27 27 26 25 24 27 29 28 24 23 26 28 29 33 35 30 30 30 32 32 32 33 32 31 30
17 21 22 23 27 24 25 25 22 23 23 25 28 29 29 31 32 34 33 34 32 30 27 28 30 27 26 22 18 18 25 31 28 28 28 28 30 29 27 33 34 32 33
21 19 22 21 23 25 21 19 20 27 29 28 28 30 32 33 35 36 37 37 36 32 29 28 29 24 25 24 16 13 14 12 3 21 23 27 27 29 30 30 30 31 32
17 19 21 24 25 17 20 27 31 31 29 29 31 31 32 30 30 32 33 34 35 36 38 35 33 29 26 24 24 21 19 12 6 13 12 14 23 25 26 27 27 31 33
17 23 25 19 20 26 28 32 30 30 30 33 34 34 33 35 36 34 33 32 32 32 32 33 35 35 32 29 29 30 29 24 19 16 14 8 20 22 23 23 25 30 33
22 21 17 26 24 24 29 30 30 29 29 31 32 32 35 34 34 35 35 32 32 34 34 37 39 37 33 32 30 26 23 22 14 18 12 12 11 14 15 20 22 23 28
19 21 26 15 25 25 28 28 27 25 26 27 29 30 32 34 34 35 34 31 28 30 31 29 29 33 35 34 34 34 26 20 16 7 16 13 9 8 4 10 16 18 20

GFSMA_925_spd_012.txt.gz
Wind_Speed
7 7 9 7 6 5 4 6 7 8 11 11 11 13 14 15 15 14 17 20 23 24 23 20 20 22 22 24 27 29 32 31 30 30 28 29 29 27 26 26 27 26 24
8 9 9 8 7 6 6 6 5 6 8 10 11 11 11 13 14 17 19 19 20 23 26 27 23 23 24 26 28 31 32 34 33 33 33 31 31 31 30 29 29 28 26
9 9 10 10 9 7 6 3 4 4 5 7 9 10 10 9 15 18 20 22 22 21 23 25 27 25 25 26 30 28 32 34 36 36 35 35 34 33 33 31 32 31 28
12 12 11 10 7 6 5 3 2 4 5 7 9 11 12 14 16 17 19 22 21 20 21 24 25 27 27 27 28 31 28 34 36 38 37 36 35 35 36 37 34 33 31
13 12 12 11 9 9 8 7 4 4 4 7 10 12 12 12 15 18 17 17 18 17 20 20 22 24 29 28 28 27 31 34 35 43 43 40 37 35 35 39 38 36 33
15 15 14 14 11 11 12 11 7 5 6 7 8 12 12 15 17 13 23 16 20 20 22 17 21 19 25 29 31 32 28 31 39 32 38 46 38 37 36 37 40 40 37
21 18 18 16 16 14 14 14 9 8 7 6 11 12 12 14 7 24 10 20 26 22 18 22 24 23 18 20 26 31 27 30 29 33 35 33 37 37 41 40 39 42 42
28 26 24 22 19 18 17 15 11 8 8 7 3 4 3 11 13 11 26 17 21 21 23 23 22 23 18 18 20 22 25 26 26 29 33 38 40 47 42 44 39 40 44
32 32 31 27 23 21 21 18 13 10 8 5 3 2 2 3 15 18 22 24 18 22 21 19 22 26 27 17 15 16 16 18 20 21 28 34 30 35 42 45 41 42 43
33 35 33 30 25 22 18 14 8 5 1 3 6 2 10 12 4 11 16 20 26 24 25 27 23 21 21 24 19 18 20 27 21 20 20 26 31 27 32 34 42 44 43
29 34 32 28 22 18 16 10 2 3 6 9 12 15 21 22 19 8 12 17 26 23 22 24 25 29 33 33 33 27 23 24 24 21 23 20 20 30 32 33 45 42 44
25 28 31 25 20 15 12 6 5 7 13 17 20 25 20 10 13 10 8 14 16 25 24 24 26 27 25 24 27 29 28 25 25 23 23 20 22 19 26 29 45 40 46
19 19 21 17 16 10 7 6 12 17 23 25 25 28 28 26 25 21 17 17 12 21 23 24 24 25 26 26 26 26 27 27 20 20 20 17 17 18 21 21 27 25 51
20 19 21 12 4 5 13 17 19 22 20 20 25 28 30 30 28 26 19 17 12 12 22 22 21 21 24 26 30 30 29 19 12 10 11 14 13 15 18 19 20 32 38
22 16 12 10 11 15 21 18 15 18 22 26 28 30 30 30 29 29 28 24 18 11 11 18 18 18 18 22 24 26 20 20 20 17 20 21 17 16 15 17 19 17 33
14 7 5 15 16 6 9 12 19 24 26 28 29 30 31 30 29 29 29 27 25 21 13 20 23 23 24 25 29 35 37 35 33 27 24 18 18 19 14 10 12 18 19
2 10 14 6 8 11 13 19 23 24 24 25 26 28 30 31 30 29 27 28 26 23 15 22 24 24 25 26 29 30 30 34 34 33 24 22 21 20 18 15 17 18 17
2 2 6 9 11 15 17 18 21 22 26 29 30 29 30 28 28 28 27 27 27 27 26 20 24 24 23 21 20 22 26 28 32 33 31 31 30 23 18 20 19 17 17
3 4 8 11 14 17 20 21 24 25 26 28 29 26 25 22 24 24 21 21 23 23 23 22 22 22 24 26 26 29 31 32 32 34 35 32 31 23 22 22 24 24 22
6 9 11 14 17 18 21 21 21 21 21 19 21 25 28 29 28 27 27 27 25 25 26 26 26 24 23 23 25 24 23 28 33 32 34 34 30 27 25 28 26 27 23
10 14 14 15 17 17 19 17 18 17 22 28 33 33 33 32 31 32 30 30 28 27 28 26 25 22 22 21 20 21 22 23 25 26 30 33 33 29 30 29 26 25 26
12 11 13 14 18 19 16 14 20 25 29 29 28 27 29 30 31 32 32 33 33 30 28 25 23 20 21 19 20 20 21 15 6 11 13 28 27 27 28 29 27 27 26
9 12 16 18 17 14 20 22 21 26 27 27 29 30 30 28 28 30 32 33 33 35 36 33 28 26 23 20 21 21 22 20 21 23 18 13 18 20 22 24 25 26 26
14 16 16 16 20 20 19 25 25 27 28 30 30 30 29 29 29 30 30 32 29 31 32 31 32 33 31 28 26 27 26 26 29 26 21 10 14 21 22 23 23 25 26
14 16 18 17 16 24 24 24 25 26 25 27 28 29 28 30 32 32 32 30 30 31 34 33 35 34 31 29 29 27 23 19 11 19 23 22 21 18 19 22 23 25 26
15 17 12 19 24 26 26 23 22 24 24 26 28 28 28 31 34 35 33 30 27 28 25 27 26 27 32 35 35 33 25 20 16 7 23 20 18 9 6 12 17 22 24

GFSMA_925_spd_015.txt.gz
Wind_Speed
11 9 9 9 9 8 6 5 6 7 7 7 7 10 10 9 10 11 14 16 17 17 15 18 19 18 18 19 20 22 25 27 31 31 30 29 30 31 31 31 30 28 27
13 12 11 10 9 7 7 7 6 5 4 5 5 5 6 7 8 10 13 15 17 18 17 15 18 22 21 21 22 24 27 29 31 34 34 33 32 34 34 33 32 31 30
13 13 13 12 11 8 8 7 6 5 4 3 4 5 5 5 8 10 12 14 15 17 17 16 17 17 20 22 23 23 24 29 31 35 37 38 37 36 36 35 34 33 32
14 15 14 14 13 11 11 9 6 5 5 5 6 6 7 8 8 10 11 12 14 12 13 16 16 15 19 21 24 24 25 26 32 34 40 42 42 41 40 38 37 36 35
15 16 17 16 14 14 14 12 9 8 7 7 8 8 10 11 12 14 8 19 13 15 16 13 18 18 18 17 22 24 25 27 28 35 37 44 46 44 43 40 39 39 38
20 19 19 19 19 18 17 16 15 12 10 9 9 11 12 11 15 7 17 10 19 24 20 15 19 20 20 16 16 19 25 30 30 32 34 38 47 46 43 41 40 40 41
25 24 24 23 24 24 23 21 19 16 15 12 9 9 14 15 6 13 9 22 17 20 21 19 22 17 17 17 17 18 19 20 20 32 34 32 33 37 42 44 41 41 43
30 32 31 31 30 30 27 26 25 21 17 14 6 2 3 3 9 7 17 11 21 19 16 25 21 23 25 24 16 17 18 22 25 26 23 23 26 26 36 42 43 43 43
35 37 39 38 36 35 35 33 30 26 21 16 12 6 1 4 4 8 14 14 14 20 25 22 25 28 24 20 19 16 19 21 23 23 25 22 18 18 21 37 45 49 44
37 41 44 45 43 38 35 33 29 25 18 13 7 7 3 2 1 4 5 11 17 17 23 24 23 26 26 29 31 28 24 22 24 22 24 21 20 19 24 21 32 48 45
38 39 41 46 44 35 28 23 18 16 12 9 2 1 6 5 8 6 6 9 20 19 20 23 23 25 25 23 24 21 21 22 23 26 21 22 20 20 17 21 21 30 43
32 32 36 36 31 21 18 14 10 8 4 3 2 8 11 6 6 5 3 9 14 18 22 21 21 23 26 28 27 28 26 25 24 23 23 20 18 20 19 17 16 22 30
26 20 18 19 22 21 14 5 5 7 9 8 8 12 13 13 19 17 14 13 8 20 18 21 22 22 22 23 27 24 28 24 24 18 18 19 15 16 17 18 14 12 14
8 16 24 20 13 8 8 15 18 23 22 21 16 17 19 21 19 17 15 11 10 10 20 20 21 21 20 20 22 22 25 18 17 16 13 10 9 12 14 11 17 15 20
17 19 14 10 10 11 15 12 13 11 12 16 18 19 20 21 21 21 22 20 13 11 11 19 20 20 23 24 27 27 30 32 29 27 25 20 20 15 13 11 12 13 11
19 10 3 7 16 19 12 7 7 12 16 18 18 18 19 21 23 24 24 24 21 19 12 19 22 24 24 24 23 23 23 26 29 29 26 24 23 18 15 13 10 10 9
6 4 10 16 8 8 9 14 15 15 16 17 19 22 24 24 26 25 25 26 24 22 14 23 24 25 27 28 28 29 27 25 25 25 24 25 22 22 18 17 16 11 11
5 8 5 3 6 11 13 13 15 16 18 21 22 22 25 25 25 26 25 27 27 26 24 20 23 23 26 26 24 24 28 29 31 32 29 27 26 25 24 22 21 15 12
4 4 6 8 10 10 12 14 16 17 18 19 20 21 22 20 22 24 26 25 26 26 24 23 23 23 24 27 29 28 28 30 33 33 34 36 31 29 26 25 24 19 17
10 13 12 11 11 11 13 14 17 19 17 17 19 23 27 28 29 28 27 28 28 27 26 25 25 22 23 23 27 26 26 26 29 31 32 31 32 31 27 22 24 23 19
9 14 12 11 11 14 18 18 16 15 19 24 28 31 29 28 27 28 27 28 27 25 24 23 22 22 19 18 20 23 25 24 27 29 30 33 31 30 29 26 27 25 22
14 10 9 14 17 15 12 13 19 20 23 27 29 28 29 29 29 29 28 30 30 27 26 23 20 18 20 18 20 22 23 18 10 23 25 19 18 19 22 25 27 26 24
8 11 12 13 13 16 17 16 18 24 25 27 27 27 27 25 25 26 27 28 29 30 32 31 27 24 25 23 22 21 23 23 22 21 20 22 23 22 21 18 21 24 24
10 11 13 15 13 16 20 24 23 24 25 27 27 27 26 28 28 27 29 29 31 32 32 30 31 31 31 29 27 27 27 27 28 26 24 15 24 23 23 18 17 19 21
12 14 13 12 18 24 25 22 21 23 26 28 27 27 26 27 30 29 31 30 30 31 30 30 34 34 31 31 29 25 23 20 11 18 24 21 21 23 25 32 26 20 21
13 10 14 18 22 24 22 22 21 23 22 22 24 24 25 27 31 32 32 30 28 29 24 24 26 30 33 35 35 33 27 20 17 6 20 16 18 15 6 22 27 22 24

GFSMA_925_spd_018.txt.gz
Wind_Speed
12 13 12 12 12 11 9 8 8 8 8 7 6 6 6 5 5 7 9 10 11 10 10 10 10 12 13 16 15 17 17 18 20 24 26 26 26 25 26 26 27 28 28
14 14 14 14 13 12 11 11 9 8 7 6 5 6 6 4 5 7 10 12 14 13 10 9 10 12 12 13 17 19 18 20 21 24 27 28 29 28 29 31 32 32 32
15 15 15 15 15 14 13 11 10 9 8 6 5 4 5 6 7 6 7 10 12 11 13 12 12 12 12 14 14 16 19 20 21 22 26 29 30 31 31 34 36 36 35
16 16 16 17 16 17 16 14 12 11 9 8 6 5 5 5 4 5 5 7 8 10 12 13 13 14 15 15 15 16 17 21 21 21 22 27 30 33 35 36 39 40 39
19 19 19 18 18 20 20 18 17 15 13 11 10 8 7 6 6 6 2 5 5 13 12 12 13 15 15 16 16 16 15 17 19 21 22 21 27 33 39 42 42 43 42
23 24 24 23 22 23 23 22 22 20 18 15 13 13 13 11 11 7 5 3 6 6 12 10 13 17 15 17 18 16 15 15 12 13 16 19 23 25 39 42 46 46 45
27 28 29 29 27 28 29 28 25 24 23 20 14 15 17 16 16 15 10 6 3 8 5 8 16 20 18 20 20 15 16 13 13 14 16 17 24 20 23 30 54 47 51
32 33 34 35 35 34 34 33 31 30 27 23 11 4 2 5 12 19 15 8 7 3 4 12 13 17 21 18 16 17 17 18 17 16 17 21 20 22 20 22 34 54 49
33 37 41 43 44 42 42 41 39 37 30 27 26 8 2 5 0 8 11 9 5 7 9 9 17 14 19 20 20 23 24 22 18 19 18 21 21 21 18 18 24 43 48
36 37 38 40 47 47 44 44 43 39 35 25 17 20 8 4 3 2 4 5 13 5 18 18 17 17 15 17 18 18 18 16 17 20 21 19 21 20 17 18 22 29 41
26 25 26 29 36 40 39 36 32 28 26 16 7 5 5 3 5 4 3 3 15 11 11 16 19 14 13 17 21 21 22 22 21 21 22 21 18 18 22 18 17 21 26
29 27 24 22 24 23 20 18 15 14 12 9 8 2 3 3 3 4 2 3 10 15 16 17 13 17 18 15 16 17 22 22 21 18 18 19 17 17 16 20 23 20 19
26 23 17 9 7 11 13 13 11 9 6 6 7 7 6 7 8 11 10 13 6 12 13 18 17 12 14 16 16 16 18 20 19 19 17 18 14 17 16 15 21 21 18
17 8 7 15 15 12 9 8 10 10 7 5 6 8 7 8 11 13 16 9 8 8 14 13 15 17 15 17 18 21 24 23 27 25 24 22 17 14 16 15 17 18 20
6 13 12 9 7 6 11 11 10 3 1 4 7 9 12 14 13 15 17 20 12 8 10 15 17 14 16 18 19 20 21 21 20 22 24 25 23 19 17 15 14 15 21
15 11 4 4 10 12 13 11 6 7 9 11 10 10 10 12 15 16 18 21 22 18 10 17 19 23 22 22 21 22 25 27 30 29 27 23 21 20 19 15 17 15 13
9 2 6 8 15 12 5 7 10 11 11 11 12 14 16 16 18 19 20 22 23 23 13 22 22 23 26 25 25 26 26 25 23 20 21 22 22 21 19 19 16 15 16
5 9 9 10 9 10 10 9 10 12 13 15 17 18 19 21 21 20 20 22 23 22 21 18 21 19 24 26 26 26 25 25 29 33 34 34 33 32 27 23 22 18 18
7 10 11 12 13 13 13 11 12 13 15 18 19 19 19 18 21 23 26 25 24 23 23 22 25 24 24 26 27 29 33 31 33 34 34 33 31 30 29 29 25 23 21
16 15 13 14 11 10 11 13 15 15 15 15 17 21 24 26 27 26 25 25 23 22 21 22 23 24 21 22 24 23 24 26 28 29 30 30 30 30 29 28 28 27 25
9 14 13 10 11 14 15 13 13 16 20 25 27 28 29 28 25 26 25 24 22 20 21 20 19 21 19 17 17 22 24 26 25 26 28 30 29 31 30 29 28 27 25
17 15 11 13 14 16 16 18 18 19 22 25 26 25 27 26 26 25 24 24 26 24 24 21 21 21 23 21 20 21 22 18 9 21 27 28 26 27 24 20 22 25 25
9 11 13 15 16 15 16 19 20 23 24 25 26 27 26 23 22 24 25 26 26 27 28 29 27 26 24 23 23 21 23 23 23 25 22 21 18 20 21 20 18 17 23
13 15 15 15 14 19 22 23 20 21 23 24 26 26 25 26 23 23 25 26 28 29 30 31 32 33 33 30 28 27 27 27 27 26 24 17 22 25 28 27 24 20 13
14 15 12 15 19 23 23 22 20 23 25 26 24 22 23 23 23 24 28 29 29 29 29 29 32 36 35 34 30 26 23 20 13 20 23 22 20 21 26 29 26 27 23
13 12 16 18 19 23 22 21 21 24 23 21 21 21 22 24 24 24 26 25 25 21 20 22 28 31 32 33 37 34 24 20 17 6 20 16 17 14 5 11 14 19 26

GFSMA_925_spd_021.txt.gz
Wind_Speed
11 12 13 13 13 13 12 10 10 10 8 7 6 4 3 3 2 1 1 3 2 1 2 3 5 7 7 7 9 11 12 12 13 16 19 23 25 25 23 23 23 23 25
13 15 15 15 16 15 14 13 12 11 10 8 7 6 5 4 3 1 1 4 6 6 4 5 4 4 6 8 9 11 13 15 16 15 16 18 22 26 25 25 25 26 27
16 16 16 17 17 17 17 16 15 13 12 11 9 8 6 6 5 4 3 1 3 5 5 3 5 6 6 9 12 10 10 13 17 17 17 18 21 24 26 28 28 30 31
17 17 18 19 18 18 18 18 17 15 15 13 11 10 9 8 7 6 6 5 4 2 2 1 1 4 6 8 11 11 9 9 11 16 17 18 17 20 25 29 30 32 34
19 20 22 23 21 21 22 21 20 20 15 15 15 14 14 12 11 10 9 9 7 4 2 2 3 3 5 7 9 11 11 10 8 9 8 15 17 18 20 25 30 33 35
23 23 26 27 26 25 25 26 25 22 21 18 15 15 15 16 16 15 13 12 9 6 3 2 2 5 7 8 10 8 11 9 9 11 10 13 14 13 19 18 27 33 36
26 27 29 30 30 30 32 31 28 24 21 21 11 16 18 19 19 17 15 14 13 10 6 3 2 4 7 10 9 9 9 11 11 11 11 13 12 15 21 19 25 21 36
25 24 27 29 30 27 32 33 30 23 21 21 17 15 7 11 14 17 17 16 13 9 8 7 6 6 5 6 10 11 12 13 12 11 12 13 13 14 17 20 22 23 23
29 29 29 27 27 27 28 31 32 29 28 22 26 17 6 10 8 9 17 16 12 11 8 6 9 7 6 6 8 9 10 11 10 11 13 13 15 17 17 18 22 16 16
25 25 25 25 25 24 25 27 28 30 28 28 17 25 19 12 9 10 9 14 12 10 8 8 7 9 9 7 8 12 13 12 14 14 14 15 17 17 19 19 20 25 26
28 27 26 25 25 23 22 22 23 22 25 27 26 17 18 14 9 12 11 9 9 10 9 10 11 11 8 10 11 11 12 11 14 14 15 13 15 19 20 20 22 21 23
29 28 24 21 18 16 14 8 6 6 8 9 9 6 5 9 12 7 5 7 11 15 10 13 11 10 12 10 11 13 14 16 14 11 13 15 15 15 16 20 21 22 21
23 22 17 12 5 4 9 10 8 7 5 4 4 4 4 3 1 2 3 5 7 13 11 13 12 11 10 10 14 12 13 13 14 16 18 19 17 15 12 14 17 20 20
20 13 3 4 7 9 8 5 7 6 3 3 2 3 3 1 1 4 4 4 6 11 18 19 13 16 16 13 13 17 17 19 20 21 21 20 19 19 18 15 16 16 19
11 3 4 5 3 2 5 6 7 9 2 4 6 5 3 5 6 8 11 14 12 10 12 20 21 17 16 16 18 18 19 20 21 21 22 24 25 23 21 20 18 16 16
2 3 2 5 5 6 5 5 2 1 4 6 6 10 11 11 12 13 15 16 17 19 14 22 22 21 21 22 22 22 21 22 25 27 28 27 23 19 17 20 19 17 19
3 6 6 6 8 8 8 8 7 6 6 6 6 8 10 12 13 14 15 18 19 20 15 26 24 22 24 24 23 23 24 24 24 25 25 23 23 24 24 23 21 20 18
8 7 9 10 11 10 9 9 9 6 7 9 11 13 15 15 16 15 15 17 19 20 22 22 26 25 25 25 26 26 26 27 26 25 26 30 33 34 33 32 28 25 23
9 14 16 12 12 10 10 10 10 11 12 13 14 14 14 13 15 17 19 21 22 23 24 25 27 26 26 26 27 27 28 28 30 29 31 35 36 35 34 32 30 29 28
8 7 10 12 11 10 11 11 13 13 14 15 16 17 18 17 19 20 20 21 21 22 22 23 24 25 23 23 24 25 25 24 25 24 25 27 28 28 28 30 31 31 31
9 12 16 13 12 13 9 13 15 16 18 19 20 20 20 21 21 22 23 23 23 23 22 21 22 24 23 20 20 22 24 23 24 22 23 24 23 23 23 24 28 30 31
12 11 9 11 12 12 15 16 18 19 21 21 21 21 21 21 20 20 20 21 23 23 23 22 23 22 25 25 23 22 21 21 12 19 21 22 19 23 23 22 22 23 26
9 10 11 12 13 12 17 18 18 18 18 19 21 22 22 21 20 20 20 20 22 25 28 29 28 29 28 27 25 24 25 25 24 23 20 22 20 23 20 18 19 19 18
11 12 13 11 13 16 19 20 19 18 18 20 21 21 21 21 18 19 20 21 23 24 25 27 30 32 31 28 27 27 27 27 27 26 23 17 20 21 20 22 23 27 25
13 12 12 14 16 17 19 20 17 18 20 20 18 17 19 20 21 22 23 25 25 27 26 29 33 36 35 34 33 28 24 22 16 23 21 20 20 21 21 22 22 23 23
12 12 15 14 15 17 19 17 18 19 19 19 20 19 19 20 21 20 19 22 25 26 24 24 25 26 27 30 33 37 30 23 19 14 21 19 19 15 9 11 13 12 15

GFSMA_925_spd_024.txt.gz
Wind_Speed
8 9 9 10 10 10 11 11 10 10 10 9 8 8 8 8 7 7 6 8 6 6 5 4 4 2 2 6 9 10 11 10 11 12 14 19 23 24 24 23 21 21 21
9 10 11 11 11 10 11 11 12 12 11 10 10 9 9 9 8 8 7 5 5 5 6 6 5 5 3 3 4 8 11 12 12 13 12 14 17 23 25 25 24 23 23
9 11 12 12 12 12 13 12 13 13 13 12 12 12 11 11 11 11 10 9 7 6 7 7 6 6 5 4 3 1 2 6 11 13 14 15 15 17 21 26 26 27 25
10 12 14 14 13 14 14 14 15 15 15 15 14 14 14 13 13 13 13 13 12 10 8 9 7 6 6 7 6 4 3 3 4 3 11 14 13 16 18 20 25 28 29
11 13 16 17 16 17 17 17 18 17 18 17 17 17 16 16 15 15 15 15 14 13 12 12 10 9 8 7 7 6 5 4 4 5 6 5 12 15 16 19 22 28 30
11 13 16 20 19 20 21 21 22 21 21 21 21 20 20 20 19 19 18 17 16 15 14 13 10 8 9 9 9 8 5 4 2 3 5 10 10 9 11 14 18 23 26
12 13 16 19 20 22 24 25 25 25 25 24 22 23 24 23 23 23 22 20 20 19 17 16 13 11 8 8 9 11 11 8 7 7 8 8 9 12 15 16 15 18 19
17 18 19 20 21 23 24 25 25 27 28 26 26 24 14 22 26 25 26 24 24 22 20 19 15 12 10 9 9 9 12 13 12 7 6 8 9 9 12 12 15 17 21
19 19 19 20 21 21 23 24 24 26 28 28 29 20 10 15 17 22 22 23 24 23 21 20 17 13 11 10 10 9 9 10 12 14 13 10 11 12 13 15 15 16 17
21 21 21 21 22 21 23 24 24 24 25 28 27 29 33 31 16 12 18 21 24 24 22 19 18 15 13 12 12 14 15 13 12 14 15 14 11 11 15 16 17 17 18
21 22 21 20 20 20 20 20 21 22 23 25 25 25 24 26 29 14 14 11 20 22 22 19 18 17 16 14 14 14 17 14 14 12 12 13 16 16 14 17 19 20 18
25 24 22 20 16 14 12 11 9 8 11 13 14 14 11 8 10 11 11 16 10 18 21 19 19 19 19 17 16 17 14 16 16 16 15 13 12 14 17 16 15 21 21
28 26 21 16 11 8 6 3 4 5 6 5 5 6 6 6 7 5 4 5 4 9 11 16 16 17 17 16 15 15 15 15 15 16 17 18 17 16 17 17 17 16 19
24 20 12 8 6 4 3 1 2 4 5 3 4 6 6 5 4 2 1 1 2 5 12 18 19 17 15 15 17 13 15 20 20 21 21 21 22 22 20 20 19 19 21
18 12 8 7 6 6 6 5 6 4 2 1 0 0 2 3 4 6 8 10 9 7 10 17 16 15 15 16 17 17 19 20 19 23 23 22 23 24 24 23 22 22 21
9 6 6 8 8 9 9 9 8 7 6 6 5 7 9 10 11 11 12 15 16 18 13 21 21 21 20 21 21 22 23 23 25 26 27 28 29 29 27 25 24 23 23
6 7 8 9 12 10 8 8 8 10 11 11 12 13 14 15 17 17 17 19 20 20 16 25 24 24 23 23 24 24 25 24 24 24 25 28 30 27 26 26 27 27 27
4 5 9 12 9 11 11 12 12 11 11 13 15 16 18 18 19 19 19 20 21 22 23 22 26 27 27 26 27 27 26 26 27 26 25 26 29 30 30 31 33 34 33
9 10 9 11 13 11 11 10 12 14 15 17 17 18 18 18 19 19 20 21 22 23 23 25 27 27 27 27 28 27 27 27 28 29 29 31 31 36 39 39 38 38 37
11 12 13 14 15 13 13 12 14 16 18 18 18 18 19 19 20 20 21 22 23 24 23 24 26 27 25 25 26 25 26 26 27 26 27 28 28 28 29 27 27 28 31
16 15 15 13 12 13 13 13 16 18 20 20 20 20 20 20 20 21 23 23 23 25 24 21 22 25 24 23 23 24 25 25 25 23 23 23 24 25 25 26 26 31 34
15 14 14 15 16 16 14 15 17 19 20 21 20 20 20 21 22 20 20 22 24 24 22 21 22 21 24 24 23 23 23 21 12 23 26 27 23 23 24 24 24 25 26
16 15 15 16 16 15 15 18 18 20 21 20 21 21 23 22 20 21 20 19 21 25 25 26 27 28 28 26 25 24 24 24 25 24 24 23 20 22 20 22 25 26 24
16 16 16 15 16 17 17 16 20 20 20 21 21 23 22 22 20 19 20 21 21 22 23 25 28 30 30 28 28 27 27 26 25 25 24 20 22 23 23 22 24 25 26
16 15 15 16 17 18 17 18 18 20 21 22 22 20 20 21 21 19 21 22 23 24 24 26 29 32 34 35 33 28 24 21 17 24 24 25 23 23 23 23 24 25 27
15 15 16 17 17 18 17 17 19 20 20 20 20 20 20 21 20 19 21 23 18 25 23 22 24 24 25 28 31 30 30 25 22 17 20 21 21 17 13 20 22 21 19

GFSMA_925_spd_027.txt.gz
Wind_Speed
6 7 9 10 11 12 12 12 13 14 13 14 14 13 13 13 13 13 11 12 13 10 9 8 7 6 7 9 11 11 11 11 11 13 14 16 18 22 22 23 23 21 21
5 7 9 10 11 12 13 13 15 16 16 16 16 15 15 15 14 13 13 12 12 11 9 10 9 8 7 7 7 9 11 12 13 14 13 12 14 18 21 23 24 23 22
5 7 9 11 12 13 14 15 16 16 17 17 18 17 16 16 16 15 15 14 11 12 13 11 10 8 8 8 8 7 6 8 9 13 15 15 15 15 17 22 24 25 23
7 9 11 12 13 15 16 17 18 20 21 21 20 19 19 18 18 17 18 17 16 14 14 16 13 11 10 8 6 5 6 6 5 8 8 13 15 15 16 17 20 26 26
9 11 13 16 16 17 18 20 21 21 23 23 24 24 22 22 21 21 21 21 20 18 17 18 16 16 14 12 9 6 5 3 5 8 9 7 10 14 15 17 20 19 24
10 11 14 16 17 19 21 22 23 25 25 26 29 28 26 24 24 24 24 24 24 22 22 17 18 19 18 16 13 11 9 9 8 6 5 8 11 11 12 14 17 20 21
12 15 15 17 20 22 22 23 24 25 26 26 27 26 28 29 29 28 26 26 26 25 25 23 20 19 19 17 17 15 14 12 12 11 10 9 7 11 13 14 14 16 20
14 17 16 18 19 21 21 22 23 25 26 26 26 26 14 22 28 34 32 30 30 28 27 26 25 23 18 16 17 16 15 15 13 11 8 11 12 13 13 13 13 15 19
17 16 18 18 20 22 23 23 23 24 25 27 26 23 12 14 15 26 27 31 28 28 29 27 29 26 24 19 14 17 18 17 16 15 15 10 12 14 15 15 13 14 14
18 19 20 19 20 21 24 24 24 23 23 25 24 27 29 26 14 15 29 21 27 25 23 28 27 27 23 22 20 16 19 18 16 16 17 16 12 10 11 13 15 17 17
18 20 21 21 21 22 22 21 22 22 21 23 24 20 19 18 18 6 9 16 18 21 21 24 26 22 23 21 19 19 20 20 19 19 18 17 16 13 12 12 14 17 19
21 22 23 22 21 20 18 17 13 11 11 13 13 11 9 6 9 4 4 9 9 13 25 20 17 20 17 17 18 21 16 20 20 18 17 16 17 16 14 14 13 14 15
25 26 23 21 19 16 14 11 11 7 9 9 9 8 8 6 5 4 2 2 2 7 9 9 13 18 17 19 18 17 18 17 17 18 18 18 19 19 19 18 16 15 16
25 22 19 14 12 8 8 10 9 10 10 10 8 7 5 4 3 3 3 4 3 3 7 9 14 13 16 18 15 15 13 17 18 18 20 20 19 19 22 24 23 20 17
22 15 10 7 9 9 9 10 13 13 9 8 8 7 6 6 6 5 6 6 6 4 8 13 13 13 16 19 18 17 17 18 20 21 22 22 23 23 24 25 27 26 22
11 10 8 9 11 15 16 11 10 10 12 13 13 13 13 14 12 12 12 12 13 13 9 19 18 18 18 20 20 16 17 20 22 22 23 25 29 29 28 29 29 29 29
8 9 11 10 11 11 11 11 12 13 12 14 14 16 18 19 19 19 18 19 19 20 13 20 22 21 21 22 23 22 22 23 24 27 29 30 30 29 30 30 30 29 30
13 13 13 14 11 13 14 14 16 15 16 18 19 20 22 22 21 20 21 21 22 23 22 19 22 22 23 23 24 24 24 27 26 26 24 23 27 28 28 29 28 29 30
15 15 12 13 17 19 19 18 19 19 20 23 24 23 22 22 22 21 21 22 22 23 23 23 23 23 24 24 24 24 25 26 27 27 28 29 29 30 30 35 35 35 36
15 15 16 18 19 18 19 19 16 17 22 23 23 23 23 23 23 23 23 22 22 23 23 24 24 24 24 24 23 22 22 23 24 25 25 25 25 25 26 27 31 33 33
16 19 20 20 19 19 19 10 12 19 23 25 25 25 24 22 22 25 25 23 22 23 23 23 22 21 21 20 22 22 22 21 22 21 22 21 21 20 21 25 33 31 32
20 21 20 20 20 20 15 15 15 19 23 25 25 25 25 24 24 20 18 19 21 23 23 21 22 22 23 22 22 22 21 19 10 20 24 24 24 23 24 24 25 19 14
21 20 20 20 19 20 13 17 21 21 24 24 25 25 25 25 24 22 19 19 20 21 24 26 26 27 26 26 26 25 24 22 22 21 21 22 20 24 22 22 23 28 26
20 20 20 19 20 20 18 20 19 22 22 24 24 25 25 25 24 22 21 22 22 22 23 25 28 30 28 27 25 27 26 26 26 24 23 19 21 24 23 23 24 26 28
19 19 18 19 21 21 21 16 21 22 23 24 24 22 22 24 24 22 18 19 22 24 23 23 25 28 32 34 34 29 26 23 16 20 22 24 23 23 23 25 24 26 29
18 17 14 20 20 21 18 19 17 20 22 23 22 22 23 25 26 24 16 15 21 23 20 20 22 25 26 27 28 31 28 24 22 20 23 19 21 20 12 21 25 26 26

GFSMA_925_spd_030.txt.gz
Wind_Speed
4 4 6 6 8 9 9 9 10 13 14 14 15 15 14 16 17 18 18 18 15 16 15 13 11 11 11 13 14 14 13 13 15 16 16 16 18 19 19 21 23 22 21
3 3 5 6 8 10 10 13 16 16 15 16 17 17 18 19 20 20 18 17 17 18 15 14 11 11 10 11 12 13 15 15 15 15 14 14 16 17 20 22 24 24 23
4 6 7 9 10 12 13 15 16 16 18 19 19 19 19 23 22 19 21 19 20 19 17 18 17 16 13 11 11 11 10 12 14 16 17 16 14 15 17 20 23 26 27
5 8 10 12 14 16 18 18 19 20 20 21 22 22 22 23 23 24 22 25 24 22 20 19 20 19 18 17 14 11 10 10 11 11 11 15 17 16 14 19 20 27 28
4 7 11 15 18 19 21 23 23 23 23 22 23 24 26 27 28 26 25 27 28 26 20 24 23 24 23 20 17 15 13 11 11 11 10 9 10 11 14 15 20 20 23
5 8 12 16 18 20 21 22 23 24 25 25 26 28 30 31 31 27 28 29 29 29 31 24 25 25 24 23 21 18 15 14 14 13 11 10 9 10 12 15 16 16 23
10 12 14 14 16 21 20 21 22 24 26 24 26 25 27 29 29 31 37 32 31 32 33 37 30 26 29 28 26 22 18 16 15 15 14 13 10 10 10 12 12 14 17
8 15 17 18 16 20 22 22 23 25 24 22 22 21 10 20 24 30 32 35 38 37 35 37 38 30 29 27 28 26 22 19 16 15 14 15 15 14 12 10 10 12 15
15 15 15 18 18 19 18 21 25 26 24 23 22 19 10 10 14 21 27 23 25 31 29 28 37 40 32 27 31 29 26 24 19 15 14 15 14 14 14 13 12 10 12
14 17 18 19 18 19 19 21 20 24 22 21 21 18 21 19 5 9 19 23 22 20 28 19 18 21 34 32 24 24 24 22 21 18 14 12 11 11 12 14 13 10 11
19 19 21 23 21 21 23 19 11 13 13 17 18 21 21 23 22 7 8 9 18 17 14 9 17 27 14 18 21 16 19 19 21 18 16 13 11 11 11 10 11 11 11
19 20 22 23 19 12 12 14 13 14 15 15 19 18 13 6 8 4 3 10 11 18 21 21 13 14 18 21 15 18 16 24 22 22 20 19 15 11 10 11 11 11 11
20 23 21 14 12 15 16 14 12 11 13 18 13 15 12 8 6 5 5 4 4 10 10 20 15 15 3 13 21 11 15 16 19 18 18 17 17 16 13 12 12 11 11
18 12 12 15 14 11 11 12 12 13 13 12 12 10 11 10 8 7 5 5 3 4 15 12 15 15 17 14 15 8 8 16 15 15 16 17 19 20 20 18 15 13 13
10 11 15 14 14 14 16 15 14 14 13 12 11 13 14 13 12 14 12 11 5 3 4 11 9 15 17 15 15 11 12 13 18 19 19 19 19 21 24 23 23 21 17
10 11 16 15 17 17 14 12 12 12 12 14 14 14 16 16 16 17 16 15 14 12 5 9 16 18 19 16 16 17 20 17 17 13 14 18 21 24 27 28 30 30 28
14 15 15 15 16 18 15 15 15 16 16 15 16 17 17 19 22 20 17 17 18 20 13 21 23 24 23 22 19 20 20 22 21 21 23 27 28 30 29 29 29 29 30
14 15 15 14 14 17 18 19 18 18 19 15 17 19 21 20 21 20 19 20 20 21 20 16 18 19 22 21 21 20 22 20 21 20 21 26 26 29 30 30 28 27 28
15 14 16 16 18 19 19 19 20 18 11 17 21 25 25 24 23 21 22 22 21 21 22 21 20 21 23 24 26 24 22 22 22 22 25 26 27 27 27 28 30 32 33
13 15 16 18 20 21 21 18 13 15 16 18 21 24 27 27 25 23 16 20 22 24 22 21 21 20 20 21 25 22 15 17 20 20 21 19 13 18 28 31 31 31 30
16 17 19 19 20 20 13 14 15 14 16 20 23 24 26 27 28 26 25 22 20 20 19 18 18 19 18 18 16 16 18 18 21 20 20 23 23 22 17 16 18 21 25
17 18 18 19 19 18 14 15 17 20 19 20 24 26 26 25 25 21 17 16 17 17 18 18 20 19 21 21 20 18 18 17 6 20 20 22 21 25 25 23 23 20 18
16 17 18 18 15 17 15 20 20 23 20 22 23 25 25 23 25 22 20 19 18 17 19 24 23 24 22 24 24 23 22 20 20 22 21 21 22 24 25 26 27 26 28
17 16 17 11 15 17 22 25 26 22 23 21 22 26 25 27 25 25 26 24 25 22 22 22 25 31 27 27 25 22 21 20 22 23 21 18 24 26 25 27 28 29 31
17 16 11 13 16 20 24 22 22 23 19 20 23 24 23 25 27 26 27 23 24 23 19 20 24 26 26 26 27 26 24 20 19 23 25 20 23 24 26 28 30 32 32
15 13 11 16 16 20 20 21 21 18 19 20 22 23 24 24 22 11 15 16 18 20 20 22 23 23 27 28 29 27 27 22 19 16 22 22 22 18 9 21 25 30 29

GFSMA_925_spd_033.txt.gz
Wind_Speed
1 2 2 3 5 6 9 6 9 13 16 17 17 17 18 19 20 20 18 21 23 21 20 18 18 16 14 15 16 16 15 14 14 16 18 19 20 19 21 21 23 24 23
2 2 2 3 6 9 10 12 15 17 18 18 20 19 20 21 24 24 21 22 20 20 18 19 18 17 14 14 16 16 17 16 16 16 16 17 17 18 20 22 26 26 25
5 4 4 5 8 10 14 16 19 19 21 23 24 24 24 24 26 27 25 22 24 24 24 21 21 20 18 15 15 16 17 18 19 19 18 16 16 16 19 23 25 26 26
4 4 4 8 11 15 18 19 20 25 26 26 27 26 26 27 29 31 31 29 26 27 28 26 24 23 23 22 17 16 16 17 17 18 18 18 18 17 17 21 23 25 27
5 5 9 12 13 17 19 20 20 21 22 25 27 27 28 30 30 29 29 32 31 32 31 29 26 26 25 25 24 19 17 16 16 17 17 16 16 16 18 16 18 23 25
6 7 8 11 14 17 20 20 22 23 24 27 30 30 30 29 30 30 31 32 33 35 37 34 33 29 29 29 28 25 20 19 18 16 16 16 15 15 15 16 18 17 20
2 7 12 13 15 16 19 22 21 22 26 27 28 25 24 24 26 27 26 29 35 35 38 40 40 38 35 33 31 28 24 22 20 19 15 14 14 14 14 15 14 17 18
11 11 12 14 15 15 16 16 20 24 24 18 16 19 6 15 19 19 21 22 25 22 24 33 39 42 42 39 36 34 30 25 24 21 18 17 16 14 13 12 13 14 14
11 13 14 16 17 18 18 20 22 17 14 13 13 9 4 4 17 16 24 24 23 22 20 17 18 30 38 39 38 37 35 33 28 23 20 17 17 15 13 12 11 11 11
14 16 17 18 20 20 19 15 9 11 13 13 11 14 15 9 5 8 8 23 18 23 26 25 20 15 14 18 28 41 37 35 32 27 19 17 13 12 12 10 10 9 10
15 18 20 24 21 13 10 13 15 14 13 11 11 10 13 17 10 5 9 10 22 23 29 27 25 23 15 16 26 26 32 34 32 28 23 17 14 11 9 8 7 7 7
15 16 16 13 13 16 19 18 14 13 14 14 17 20 10 6 7 5 4 11 14 13 25 18 18 15 13 9 8 11 11 25 28 25 22 20 15 11 9 8 8 8 7
11 11 13 15 20 19 15 13 14 17 17 18 13 12 10 11 11 10 6 7 6 12 7 16 15 13 14 11 9 9 17 16 17 19 21 20 16 13 11 7 6 7 8
9 10 13 17 16 13 14 15 15 13 14 12 11 11 10 13 13 15 11 8 7 5 10 8 15 15 20 18 12 7 10 7 18 15 13 12 13 11 13 12 11 9 9
10 16 15 11 13 19 15 13 13 16 15 14 11 13 14 18 18 13 14 14 8 5 6 9 10 17 21 16 15 11 6 6 12 12 14 15 12 11 13 15 15 15 14
14 13 14 12 17 16 15 15 15 15 17 16 16 16 17 17 18 21 20 20 17 16 8 13 24 27 25 22 18 14 14 15 17 19 15 17 15 13 13 17 22 20 20
13 14 16 15 16 16 16 17 18 19 17 16 10 9 13 16 19 21 19 18 17 17 12 19 22 21 22 18 16 16 18 11 20 17 17 18 19 21 21 22 21 20 20
17 17 16 16 17 17 17 18 15 13 5 6 10 14 20 23 23 24 24 21 21 17 16 13 14 17 20 23 24 23 20 17 17 19 19 17 20 24 23 26 25 23 22
16 15 15 15 15 16 17 16 9 9 11 14 18 20 21 24 26 27 28 29 21 18 20 20 17 21 22 22 24 23 22 21 22 21 17 18 21 23 23 23 24 24 27
13 12 17 16 16 18 13 11 14 15 16 18 20 22 24 23 23 25 26 25 24 23 22 21 18 15 15 19 21 18 19 18 17 12 10 8 6 7 9 12 16 24 27
10 12 15 16 15 10 11 13 15 18 21 23 24 25 22 21 21 21 17 17 17 18 19 17 16 15 16 19 18 23 23 21 23 24 24 25 25 23 20 18 15 14 16
10 8 11 11 7 9 10 16 21 21 23 22 24 23 23 21 19 22 18 18 17 18 17 14 14 14 19 19 21 20 21 19 6 17 15 19 17 20 19 17 17 19 21
9 9 10 5 7 11 14 21 21 21 21 23 22 22 27 22 24 23 23 24 22 18 19 21 20 21 19 25 22 21 20 20 18 24 21 21 22 24 24 24 24 23 22
10 12 3 5 10 15 19 20 19 22 21 21 21 22 25 27 25 26 25 25 26 25 22 20 21 25 23 25 26 23 23 21 18 23 25 18 28 29 31 29 27 26 26
11 0 4 9 14 18 18 20 22 19 21 19 19 21 24 26 25 23 20 16 17 18 17 15 18 19 20 21 20 20 18 16 18 21 24 22 24 25 28 26 27 26 27
1 3 7 12 17 18 18 19 16 18 17 19 20 22 21 22 23 21 25 19 17 21 23 21 22 24 23 23 21 21 24 20 19 13 20 14 19 19 9 18 24 22 22

GFSMA_925_spd_036.txt.gz
Wind_Speed
7 4 4 3 4 5 8 6 9 12 16 17 18 18 19 20 21 21 22 22 20 19 19 20 20 18 17 14 16 16 16 16 17 19 22 24 25 25 25 25 25 27 25
9 6 5 4 4 6 7 10 13 16 19 19 20 21 24 26 26 26 26 26 25 24 23 22 21 22 21 19 17 18 17 18 18 19 20 21 23 24 25 26 27 29 27
9 7 6 7 7 9 12 14 17 18 20 21 22 23 24 25 27 28 28 29 31 29 27 27 26 26 24 22 21 19 18 18 19 20 20 20 20 22 24 25 27 27 28
8 8 8 7 7 9 13 15 16 18 19 20 23 24 24 23 24 27 29 29 26 30 34 31 30 28 26 24 24 23 19 18 18 18 20 22 22 22 23 25 25 27 29
6 5 5 5 8 11 14 15 18 19 22 24 25 25 25 23 23 24 24 26 29 29 28 36 36 33 30 28 27 25 21 19 18 17 16 17 19 22 24 22 22 25 26
1 3 6 8 10 12 13 15 16 18 21 24 27 27 24 26 26 25 20 21 21 22 23 25 31 39 37 33 31 30 24 23 20 19 18 16 16 18 18 20 21 19 20
7 6 6 7 9 11 12 13 17 20 25 22 22 23 22 25 13 15 14 20 24 19 17 16 17 25 36 40 38 34 31 26 24 22 20 18 16 17 17 17 17 16 18
7 8 9 12 14 15 17 19 21 19 12 13 9 15 4 17 8 24 29 23 21 20 18 19 20 18 18 31 37 40 36 31 27 26 23 21 18 17 16 15 15 14 13
7 9 11 15 18 21 21 19 16 14 9 10 10 4 3 3 13 7 27 18 24 27 28 30 27 23 21 17 23 31 37 38 37 29 27 25 20 17 16 15 13 13 12
11 13 16 19 21 16 11 10 11 12 12 8 7 6 5 6 3 8 4 22 14 30 28 26 24 19 19 21 19 21 26 31 36 35 33 28 22 20 16 13 12 11 11
14 16 17 19 16 11 12 15 12 6 7 6 7 11 10 9 4 2 8 7 19 18 18 19 18 16 15 15 16 17 19 23 29 34 32 29 23 20 18 15 11 8 8
10 12 11 9 9 14 14 8 7 10 10 9 9 7 3 3 5 4 6 14 15 12 21 19 13 14 18 21 16 15 13 15 24 19 22 22 19 18 17 15 13 9 6
8 7 9 14 15 15 13 12 13 12 12 13 9 8 8 8 8 10 11 11 6 15 7 10 19 11 17 22 21 21 14 14 8 14 17 22 21 16 16 14 12 10 8
6 11 14 13 12 12 12 11 11 12 12 11 11 9 11 11 13 11 9 7 7 5 17 7 18 13 21 23 19 19 15 12 7 11 16 10 12 17 16 15 13 12 11
12 10 10 11 11 12 16 14 13 15 16 17 17 15 14 14 14 16 17 16 11 7 8 10 12 20 22 22 20 20 17 17 12 8 8 21 14 12 15 14 10 8 10
8 9 10 13 12 16 16 15 16 17 20 20 17 15 10 9 10 11 16 18 17 17 9 16 21 22 16 18 18 16 16 15 16 12 14 11 18 16 16 13 12 10 11
12 12 12 11 11 13 14 14 15 15 13 8 5 8 11 12 19 21 23 22 20 20 10 13 12 10 10 13 16 18 16 15 15 17 18 12 15 16 17 19 18 13 11
10 9 9 10 10 12 10 9 9 4 7 9 12 15 18 20 22 24 23 23 22 22 22 13 13 13 18 20 20 19 17 15 15 15 15 16 14 13 18 22 23 16 15
10 9 6 9 11 8 8 4 4 5 7 10 14 17 20 22 24 23 23 24 23 23 21 20 15 13 10 11 18 19 15 9 8 6 4 8 10 13 18 16 17 18 17
10 9 5 4 8 9 6 5 7 11 16 18 18 18 19 18 20 21 22 18 16 18 17 19 19 17 12 13 18 19 20 20 21 17 16 14 11 9 8 4 9 18 19
9 9 7 4 8 7 6 6 12 18 19 17 16 17 16 16 18 18 17 17 14 17 17 14 11 10 14 17 15 18 19 19 19 20 22 22 19 16 13 12 12 12 10
15 8 3 8 7 5 5 13 17 17 16 17 19 18 19 18 16 20 18 18 19 18 18 16 15 14 17 19 18 19 17 16 3 8 12 14 17 21 19 17 14 12 13
14 4 8 5 2 6 9 12 13 15 17 16 19 20 21 17 24 23 24 22 22 21 20 21 18 18 19 23 20 19 19 17 14 20 17 16 13 18 19 19 18 18 19
9 13 6 1 5 8 11 12 14 14 13 16 17 17 20 25 23 21 23 23 22 17 15 16 20 23 22 23 21 20 22 22 20 19 18 11 22 25 27 26 25 22 22
12 6 3 3 8 10 10 12 14 15 16 18 20 22 23 22 21 21 22 22 22 22 23 20 19 20 18 17 17 16 16 14 10 17 19 14 22 20 24 24 23 21 21
3 4 3 6 7 9 12 11 14 19 22 19 18 20 20 20 21 23 24 24 20 20 21 21 19 17 17 20 20 20 23 18 14 9 14 12 16 9 5 11 17 20 24

GFSMA_925_spd_039.txt.gz
Wind_Speed
7 6 6 6 6 7 8 7 9 11 14 15 15 16 17 19 20 21 22 21 22 23 22 22 21 19 18 18 18 17 18 19 19 19 20 21 23 24 24 25 25 25 26
10 9 7 6 7 8 8 10 12 14 16 17 18 18 19 19 18 18 18 19 20 23 27 28 26 24 23 20 21 20 19 19 20 20 20 21 22 24 25 25 25 26 27
10 9 8 7 6 8 10 11 12 14 17 18 19 21 22 23 23 23 22 20 20 20 21 21 28 29 29 26 24 22 20 19 20 21 21 22 22 22 24 25 26 27 26
8 6 5 4 5 8 11 13 15 17 18 19 22 23 24 24 22 22 20 19 18 18 18 18 20 23 29 32 28 24 20 19 19 20 20 22 23 23 23 23 25 25 26
2 2 2 2 6 8 11 12 13 17 20 23 25 26 26 25 22 20 16 13 14 14 13 13 16 19 20 25 32 30 25 22 20 19 20 20 21 22 23 24 23 24 26
3 3 6 7 8 10 12 14 15 18 20 20 23 23 23 22 19 7 14 19 17 16 16 15 14 16 17 20 23 29 30 27 24 22 20 19 21 20 19 21 22 22 22
7 9 9 10 12 14 16 19 22 23 22 19 12 20 20 11 14 16 19 20 21 20 21 22 23 23 21 19 20 21 25 30 29 26 24 23 22 21 20 21 19 19 19
8 8 9 11 14 18 21 20 18 15 11 14 10 14 4 12 6 21 23 22 20 22 26 27 26 26 22 20 20 21 23 23 29 31 28 27 26 24 22 20 19 17 17
5 7 9 12 16 18 15 13 14 15 15 17 12 4 4 3 11 6 26 8 22 24 24 24 21 19 17 17 16 18 20 22 27 32 28 29 28 29 24 21 20 18 15
8 10 13 14 16 14 14 15 17 16 11 11 12 5 9 10 2 4 3 15 18 24 21 22 19 16 18 19 17 16 18 18 22 26 32 26 28 29 24 23 20 19 16
8 9 9 9 9 10 13 14 8 6 8 11 10 10 10 11 9 3 6 6 14 15 16 17 17 16 17 20 20 19 22 20 19 21 25 31 25 30 28 23 20 17 14
6 5 6 9 12 11 10 9 9 9 10 9 10 9 5 5 7 8 4 6 10 12 16 13 15 16 15 21 22 18 20 23 18 17 20 24 25 28 29 24 20 18 14
5 6 11 13 10 10 9 9 9 8 8 8 9 10 9 12 11 11 11 10 7 15 10 14 15 18 14 21 21 18 18 22 19 12 13 17 19 24 21 19 19 16 14
7 10 11 10 9 9 9 11 12 11 11 12 14 14 15 15 14 13 12 7 7 9 13 13 17 14 19 18 19 18 17 17 20 19 17 9 17 16 13 4 13 14 13
9 10 10 10 10 10 12 12 9 10 12 13 15 17 17 19 13 10 9 13 9 6 8 17 18 15 16 15 16 15 15 14 15 18 16 15 12 9 7 16 10 7 10
11 11 12 11 9 8 8 10 11 12 13 13 12 10 7 5 7 13 16 17 21 16 7 16 21 20 15 14 15 16 15 14 16 15 17 18 17 16 14 12 9 10 9
13 11 11 10 8 7 7 9 11 10 9 5 4 6 9 12 14 19 21 21 22 20 12 19 21 20 16 13 16 18 18 16 14 15 18 15 17 12 18 15 13 9 6
12 14 13 13 13 10 11 8 9 5 5 7 10 14 17 19 21 22 22 22 22 22 21 17 19 20 17 16 13 15 16 13 12 9 12 16 17 16 12 13 15 17 17
14 14 14 14 13 10 9 7 5 6 8 11 15 17 16 18 20 20 21 22 22 19 16 18 16 17 16 14 13 15 16 15 16 17 11 7 5 8 20 16 13 13 13
18 18 17 13 15 9 7 6 6 9 15 17 15 14 16 16 17 19 21 19 16 19 15 15 15 13 13 13 13 16 19 17 19 18 19 17 13 8 6 6 16 19 17
16 11 12 18 14 7 8 5 10 15 17 17 16 16 18 17 18 17 17 21 23 18 16 15 15 13 13 15 17 14 15 17 18 19 19 21 16 13 7 6 8 8 9
13 20 9 5 12 10 4 10 14 16 17 17 19 19 21 20 17 17 22 21 21 22 19 17 17 16 16 19 19 18 15 13 3 11 9 10 8 15 15 14 14 12 12
14 2 4 10 8 4 7 11 12 14 15 16 18 19 19 15 21 23 22 21 22 22 22 24 21 19 19 20 21 19 17 15 13 21 17 16 15 14 14 15 15 16 18
11 8 11 5 2 5 8 10 12 13 15 17 20 20 20 22 22 21 22 23 22 23 24 21 21 22 22 22 22 22 21 15 16 23 17 9 17 21 22 21 20 22 22
10 7 5 1 5 8 8 9 12 15 19 20 17 20 19 20 19 19 23 26 26 25 22 20 20 21 22 21 20 15 14 11 11 15 15 15 18 15 17 16 15 20 22
5 5 2 3 5 6 8 7 11 16 18 17 19 20 18 17 20 19 19 22 20 21 21 21 22 21 18 18 18 22 23 17 13 8 16 15 15 9 5 7 3 7 14

GFSMA_925_spd_042.txt.gz
Wind_Speed
5 5 4 3 2 4 5 5 7 8 9 10 11 13 13 14 14 15 16 16 16 17 18 19 21 21 20 20 21 20 21 22 21 19 18 17 16 17 20 21 22 22 23
7 6 3 2 2 4 5 6 7 8 10 13 16 17 18 18 18 18 18 18 18 17 17 18 17 19 21 22 22 23 22 21 21 21 20 19 18 17 18 20 22 23 24
7 5 3 2 2 2 4 6 8 10 13 15 17 19 19 20 19 18 16 15 15 16 16 17 17 20 21 22 22 23 24 24 21 20 21 21 20 20 18 18 20 24 25
2 2 2 2 4 7 8 10 13 14 16 17 19 20 22 22 20 17 16 11 10 9 8 10 13 15 18 20 22 21 21 23 26 25 21 21 21 21 21 20 19 20 23
2 2 4 6 8 8 12 13 14 16 19 20 20 21 21 22 18 15 7 10 11 12 12 13 15 15 15 17 20 21 18 21 24 25 25 23 22 22 21 20 19 20 20
7 7 7 8 8 11 14 17 18 18 18 14 19 11 21 18 11 2 13 15 14 16 17 19 21 21 20 19 19 19 20 18 20 24 26 26 25 24 22 20 20 19 20
9 9 9 10 13 17 18 18 18 17 17 17 9 16 13 1 8 8 18 13 17 17 20 23 22 22 22 22 22 22 21 20 19 18 24 27 27 28 26 22 21 20 17
6 7 8 10 13 15 16 17 17 17 15 18 10 11 3 6 1 17 12 15 12 19 23 19 16 15 15 17 17 17 18 21 21 19 20 20 23 28 30 26 23 21 18
5 7 9 10 12 14 14 15 17 17 12 11 10 3 3 2 8 4 16 9 16 17 15 14 13 12 14 16 17 16 19 21 22 20 19 21 22 23 29 31 26 22 20
6 6 7 8 11 13 15 17 15 13 10 9 11 3 8 7 2 4 3 19 12 21 19 15 11 11 11 16 17 16 17 19 21 22 20 19 19 22 22 30 27 24 20
6 6 6 7 10 13 12 10 9 9 9 10 8 8 9 12 8 5 7 9 19 17 17 19 14 11 12 13 18 17 17 20 22 21 22 20 18 18 21 25 27 24 21
7 6 7 9 13 11 8 6 8 9 9 9 8 7 7 5 8 7 4 10 14 15 16 16 14 14 14 13 16 16 16 17 19 22 22 22 18 15 17 22 25 33 28
10 9 11 13 13 11 10 8 8 10 10 10 10 11 11 13 16 16 12 12 6 8 11 10 12 14 14 16 15 15 15 16 17 20 23 21 20 16 15 18 22 24 22
11 11 13 15 15 12 12 13 14 11 12 12 15 15 17 17 17 16 12 8 7 10 16 13 15 15 17 19 18 17 16 16 14 16 20 22 19 14 12 8 10 19 19
18 17 16 15 15 15 14 15 14 11 13 13 14 16 17 17 14 11 7 5 6 4 7 12 18 19 22 21 20 20 16 16 16 16 17 18 20 17 8 9 3 11 9
20 17 15 14 15 15 14 14 13 13 14 14 12 9 7 8 10 11 15 19 18 14 9 18 22 25 25 23 21 19 16 15 14 15 15 17 19 19 15 6 11 15 7
20 17 14 14 12 12 11 12 13 11 11 11 8 9 11 14 17 19 22 22 23 20 14 26 22 26 26 23 23 18 18 19 17 17 14 15 17 18 17 14 11 12 17
21 18 16 14 13 13 13 13 10 11 8 8 10 14 18 19 21 20 20 20 21 21 20 21 23 21 23 20 19 20 18 18 16 15 14 9 10 15 16 13 11 13 12
21 20 18 15 13 10 13 10 11 7 7 11 14 18 19 19 22 21 20 20 21 19 19 19 22 18 19 19 20 20 19 19 17 15 17 19 14 7 14 16 12 8 10
21 18 17 16 12 11 12 7 7 8 12 15 17 18 19 20 22 22 22 21 17 19 19 21 20 19 17 19 18 19 20 21 20 17 17 19 21 17 10 11 14 20 12
17 15 15 16 9 1 7 10 9 13 16 19 20 20 21 21 22 22 21 18 21 20 19 19 18 17 17 15 16 16 16 20 21 20 19 17 16 18 15 12 11 11 20
17 14 9 3 1 9 6 6 11 15 17 18 20 23 24 23 20 18 21 23 23 23 20 19 18 17 18 17 20 20 17 11 5 9 11 7 4 8 13 14 13 11 12
10 8 6 6 8 1 4 9 13 14 16 18 21 24 23 18 21 22 22 21 23 23 23 24 21 17 18 18 19 20 20 15 13 18 16 16 12 15 13 13 13 16 18
13 10 10 5 1 3 7 11 12 13 17 21 21 20 20 21 22 19 22 25 27 26 24 23 23 25 25 24 23 22 22 24 23 16 10 11 14 20 17 18 18 19 21
11 9 4 3 3 5 7 8 10 15 18 19 19 20 18 19 18 20 22 22 22 23 19 19 22 22 22 22 22 21 20 18 9 11 13 13 13 15 17 19 12 14 18
6 4 3 3 5 7 7 7 9 13 16 19 21 20 18 16 19 20 20 21 19 18 23 23 21 19 18 18 19 21 23 17 12 8 13 15 15 9 4 5 3 3 5

GFSMA_925_spd_045.txt.gz
Wind_Speed
8 5 3 3 3 2 1 2 2 2 4 6 9 11 12 13 14 12 14 17 18 18 18 17 16 16 17 19 20 19 22 23 21 18 16 14 14 14 16 17 19 20 20
6 3 2 3 2 1 2 3 4 5 8 9 11 13 14 14 14 15 12 12 15 17 18 18 17 18 18 18 20 21 22 22 23 22 19 16 15 14 15 17 18 21 22
4 4 2 1 1 3 4 4 6 8 8 12 13 13 15 17 13 14 11 10 9 11 11 12 14 15 17 18 19 19 20 21 21 23 21 20 18 16 16 17 18 19 22
2 0 2 3 4 5 6 8 9 11 11 11 13 14 15 15 13 10 7 5 4 6 8 10 12 12 13 14 16 15 15 16 19 20 23 24 21 19 17 18 18 20 20
7 5 5 4 5 6 8 10 11 12 12 12 14 15 13 15 12 5 3 3 6 8 11 14 16 18 18 18 17 16 16 16 16 17 19 22 25 23 20 18 19 19 22
6 5 5 5 6 9 10 12 13 12 11 12 16 13 15 14 7 2 4 4 7 10 11 15 17 17 21 21 21 19 15 15 15 16 16 17 19 24 24 22 19 19 20
4 5 6 7 9 11 12 12 10 11 12 11 12 13 12 5 6 4 6 6 9 10 13 15 14 14 14 16 16 17 14 16 16 16 16 16 19 19 21 24 24 21 19
5 6 7 8 10 10 12 13 11 11 11 10 9 12 4 6 5 4 4 5 8 11 14 13 13 11 11 12 13 13 15 16 17 17 17 18 17 21 21 24 25 23 21
5 7 8 8 9 10 10 13 12 10 11 9 7 5 4 4 12 7 9 8 12 12 13 13 11 11 10 11 13 14 17 17 18 17 16 17 18 17 19 21 24 27 23
7 8 8 8 9 12 13 12 9 8 8 11 10 5 7 7 4 7 10 17 17 15 16 13 13 12 11 12 13 15 16 17 18 18 18 18 19 19 19 19 21 26 26
9 9 8 9 10 13 12 11 7 7 7 8 8 7 7 9 9 8 9 13 16 16 15 15 16 11 12 12 12 15 18 18 19 18 19 20 18 18 17 16 18 21 28
9 10 11 12 13 13 11 7 7 7 7 7 7 7 9 9 12 12 10 17 17 19 15 15 13 12 12 12 14 17 17 19 20 20 17 18 19 18 18 18 18 20 19
11 13 14 14 13 11 10 10 10 10 10 10 10 10 10 13 16 17 17 13 12 18 18 18 16 15 14 16 17 21 22 22 20 20 19 19 19 19 19 18 18 19 21
13 15 16 16 15 14 14 14 12 12 12 11 11 11 12 13 13 13 14 9 9 20 23 18 14 21 16 18 23 26 24 24 23 22 19 19 19 19 20 19 15 17 17
17 17 17 17 17 16 16 15 14 15 14 14 13 14 12 10 8 8 8 8 12 12 15 23 24 23 23 22 23 23 25 24 21 20 20 19 20 20 20 19 18 12 6
24 22 21 18 17 17 16 16 17 14 16 14 11 8 8 8 9 11 12 13 15 20 16 26 28 27 26 25 23 24 25 24 21 21 23 23 20 20 20 19 18 17 14
19 20 21 21 18 14 14 14 12 13 9 9 7 8 10 12 15 16 17 17 17 18 20 28 27 26 25 25 24 22 21 21 21 21 20 19 17 17 19 19 17 17 14
21 22 19 15 14 12 10 9 10 6 8 6 7 11 15 16 17 16 16 17 18 19 23 24 27 27 23 22 23 22 21 22 22 20 20 21 21 17 13 18 16 14 13
22 20 15 12 11 11 13 9 8 5 6 6 11 14 17 17 18 18 18 20 21 21 23 24 28 25 25 22 22 21 21 22 21 20 21 20 20 21 19 12 17 15 15
19 15 12 9 8 12 9 3 3 4 6 9 13 15 17 17 19 20 22 22 22 21 22 24 27 26 23 21 20 21 21 20 21 19 17 18 20 22 23 19 13 18 13
13 13 10 9 8 2 1 4 3 5 9 13 15 16 17 18 20 20 21 22 22 23 24 24 24 23 22 20 19 18 20 19 20 19 20 20 17 16 16 18 15 14 17
10 10 12 5 2 4 4 3 5 8 10 12 16 18 19 18 16 17 19 20 20 22 22 22 23 22 23 22 20 19 18 17 11 15 15 14 8 11 11 12 15 13 11
10 9 9 5 6 1 2 6 9 7 10 12 15 17 18 16 17 17 17 17 18 20 22 24 24 24 25 23 22 19 18 17 19 18 15 17 15 15 13 13 17 18 16
11 12 9 7 4 2 5 8 11 8 10 13 15 16 17 18 17 17 19 18 18 21 21 20 21 23 25 23 22 22 22 21 20 19 15 11 14 16 12 12 13 16 19
13 11 7 5 4 3 6 8 8 9 11 15 15 16 17 17 16 18 21 21 20 20 16 18 22 22 24 24 24 21 18 17 16 18 14 13 13 13 12 14 13 16 20
9 4 6 4 5 6 7 8 8 9 13 16 16 17 15 16 19 20 19 18 19 19 21 21 19 18 18 15 15 18 20 16 16 12 11 11 13 9 5 4 3 3 7

GFSMA_925_spd_048.txt.gz
Wind_Speed
3 3 3 4 4 5 4 4 4 5 6 6 7 9 10 11 12 12 14 18 18 17 18 17 16 17 18 19 19 18 18 19 17 16 16 15 14 14 14 14 16 17 18
5 3 2 3 3 3 3 3 4 6 8 10 10 12 13 14 15 15 15 16 18 16 15 15 15 15 17 18 19 18 19 18 18 17 18 17 16 15 15 15 15 16 19
1 2 2 1 0 2 3 5 6 8 10 13 14 16 18 18 18 17 16 15 14 15 14 12 12 12 12 13 15 15 15 15 15 17 17 17 20 18 16 16 16 17 18
5 5 3 2 2 4 5 7 9 11 13 16 17 19 20 20 19 18 15 13 12 11 12 13 13 14 16 16 15 15 16 15 15 15 15 16 16 20 20 18 17 18 20
9 6 5 4 4 5 6 9 11 12 15 16 17 20 20 19 20 17 13 10 8 9 11 13 18 17 19 19 17 15 16 16 15 15 16 15 16 15 19 22 20 18 19
5 4 4 4 5 7 8 9 11 13 15 16 18 21 18 20 19 15 10 9 8 10 11 14 15 15 18 15 15 15 14 13 16 17 17 16 16 17 18 18 23 22 20
4 4 4 6 7 8 9 10 12 14 16 15 18 19 19 17 11 10 10 12 11 11 13 14 15 16 15 14 10 14 13 14 14 15 18 18 18 17 18 20 18 23 24
4 4 4 5 6 9 10 11 12 14 15 14 15 20 10 15 18 7 10 11 13 16 16 16 16 15 15 15 12 12 12 15 16 16 17 16 18 18 18 18 20 20 24
3 3 4 5 7 9 11 11 11 12 14 15 12 11 8 9 19 20 11 16 16 18 17 17 17 15 16 15 15 13 16 17 15 16 17 18 19 20 20 20 20 20 21
3 4 5 5 7 8 10 11 11 11 12 15 14 13 13 15 7 8 17 19 17 15 18 19 19 18 17 17 16 15 15 16 16 16 16 17 18 19 20 19 19 19 21
5 5 5 7 9 10 11 11 10 11 12 13 14 15 14 15 15 11 10 17 23 22 22 23 21 21 19 17 18 16 15 16 17 18 17 17 18 19 19 19 20 20 21
7 8 10 11 12 13 12 12 12 13 14 15 16 15 13 12 15 13 12 17 19 24 24 26 18 18 23 22 19 18 18 20 22 21 18 18 18 19 19 20 21 21 20
12 14 14 15 16 15 15 14 15 15 16 17 15 15 14 14 16 18 18 20 17 26 28 25 25 18 18 23 26 21 21 28 25 22 21 20 18 18 20 20 21 21 21
15 16 16 16 17 18 18 16 16 17 17 16 14 14 14 15 16 17 17 17 12 21 23 23 23 23 20 20 23 29 29 28 26 25 23 19 18 18 19 21 21 21 22
15 17 18 18 19 20 19 18 18 18 18 16 15 13 13 15 15 17 18 20 20 14 14 25 27 26 27 27 26 27 30 31 30 28 27 23 21 20 19 21 22 22 21
14 16 18 20 21 21 19 19 19 18 17 15 12 12 13 15 16 18 21 22 23 25 16 28 29 29 28 28 28 27 30 30 31 29 27 24 23 21 20 20 21 21 22
17 19 21 21 21 21 19 20 19 17 17 14 11 11 13 16 19 21 22 22 23 24 21 29 29 29 29 29 29 25 26 28 28 26 25 21 20 23 21 18 20 20 20
18 19 19 18 19 18 17 15 16 14 10 12 10 11 15 18 20 21 21 21 23 25 27 27 30 28 28 28 28 27 26 27 27 26 16 17 20 25 23 21 19 19 17
18 17 16 16 16 15 13 12 11 7 7 10 10 13 18 20 21 21 22 24 24 26 27 27 29 28 28 28 27 25 24 25 26 25 27 28 21 18 19 20 20 18 18
16 15 15 14 11 11 10 10 5 6 9 10 12 16 18 19 20 21 23 24 25 25 24 24 26 27 26 25 24 24 23 21 22 22 20 21 20 22 23 23 21 21 18
15 14 10 9 8 4 4 5 6 7 10 13 15 16 16 17 18 17 18 21 23 23 23 23 24 23 23 22 20 22 22 22 22 21 22 22 22 21 18 17 16 18 17
16 13 12 10 8 7 8 5 5 9 12 14 14 16 16 16 14 18 16 16 20 19 20 21 23 22 24 24 23 22 21 20 11 17 17 17 17 16 16 14 10 11 12
16 15 14 12 10 7 7 6 8 10 12 12 13 15 16 15 17 18 18 19 21 22 22 23 27 26 26 24 23 23 22 23 22 18 17 18 16 17 17 17 16 18 17
15 15 13 11 9 6 7 7 9 9 11 12 13 15 15 17 17 16 20 22 22 21 20 21 22 23 25 25 25 27 25 25 23 22 19 18 17 17 17 16 16 17 18
17 15 10 9 8 6 8 7 8 10 11 13 14 14 15 16 15 19 20 22 22 20 19 18 21 23 24 24 26 23 21 20 19 20 17 17 14 14 15 15 15 15 16
15 10 6 6 7 7 9 8 8 9 11 13 15 14 14 12 16 18 19 19 20 19 21 22 21 20 18 18 17 15 16 17 18 16 16 8 12 12 11 16 15 13 13

GFSMA_925_spd_051.txt.gz
Wind_Speed
6 4 4 4 3 6 6 8 9 11 11 12 12 13 13 14 15 16 17 23 21 18 20 18 16 13 14 14 14 13 13 14 13 13 12 15 16 15 15 14 13 13 14
5 3 4 3 4 4 6 7 8 12 13 15 15 15 17 18 19 19 20 20 24 17 16 16 16 15 15 14 15 15 14 13 13 13 12 13 15 16 15 14 15 15 15
2 3 3 3 4 6 6 7 9 12 14 17 18 20 20 21 21 22 21 21 20 18 12 12 13 15 15 15 16 16 16 15 13 13 12 12 13 14 18 17 15 17 17
6 4 4 4 2 4 5 8 11 14 16 19 21 21 21 22 23 22 21 19 14 15 14 7 15 19 18 16 17 17 17 17 15 14 15 14 13 13 12 16 19 17 17
5 6 4 4 5 7 8 9 12 14 17 19 20 20 21 23 21 21 21 17 13 11 13 17 17 20 12 18 18 15 15 15 15 16 17 16 15 15 15 14 16 20 20
3 3 2 3 6 7 8 10 12 13 15 18 20 21 22 21 23 19 18 12 13 10 13 14 16 16 16 13 13 10 13 14 15 16 17 17 17 17 17 16 17 16 22
2 3 4 6 7 9 9 10 12 14 16 18 20 22 22 27 23 17 17 16 13 15 14 18 18 16 18 19 11 9 10 14 16 16 17 17 17 17 18 19 18 17 18
3 4 6 8 8 11 10 11 13 15 17 17 20 22 11 20 21 16 16 20 17 17 18 18 18 17 16 17 17 18 10 12 15 17 18 17 18 18 18 19 20 20 20
4 6 7 8 8 9 11 12 13 14 18 18 17 19 12 11 20 23 23 22 22 20 20 19 18 18 18 18 18 15 9 16 17 15 18 19 18 18 19 19 19 21 21
6 7 8 8 9 11 13 13 15 16 17 19 21 20 20 22 11 12 19 20 24 23 19 20 23 22 21 18 17 18 17 13 15 15 18 20 20 20 19 19 19 20 21
8 8 9 9 11 14 15 16 17 17 18 21 21 21 20 20 19 16 12 17 22 22 24 25 24 24 23 23 22 18 14 18 18 17 20 21 21 21 21 20 20 20 20
8 9 10 12 15 17 17 18 17 18 19 19 19 20 18 17 15 14 9 17 19 24 25 26 27 28 24 22 23 24 21 15 15 21 23 23 22 21 22 22 22 21 20
12 12 13 16 18 20 20 18 21 20 19 18 18 18 15 16 14 14 14 17 14 25 26 25 24 23 23 15 21 21 21 23 27 23 20 22 23 22 21 23 24 23 22
13 14 16 17 20 21 21 19 20 21 17 17 19 17 15 14 14 13 14 15 11 21 25 26 26 24 24 25 23 22 22 24 24 27 26 22 25 24 22 22 23 25 23
14 15 16 18 20 21 22 21 19 21 19 18 17 13 13 11 12 14 16 18 18 12 13 26 26 27 26 25 26 27 28 30 31 31 34 36 30 24 21 21 22 24 24
12 14 16 18 20 21 22 22 18 20 18 17 18 14 12 12 14 15 18 21 23 22 13 27 28 29 29 30 29 27 29 29 30 30 31 33 32 25 19 19 21 22 22
13 16 17 18 19 19 20 20 17 18 18 18 19 12 12 12 14 17 20 23 24 23 20 26 30 29 29 30 29 28 28 28 30 31 31 29 25 24 20 22 23 25 25
14 16 18 18 19 20 19 16 17 16 16 14 10 10 11 14 17 20 22 23 24 25 26 26 29 28 29 31 29 29 29 29 28 29 31 25 18 21 27 28 27 25 26
15 17 17 18 20 17 15 14 14 13 12 7 9 10 13 17 20 21 22 23 25 27 27 27 27 25 27 27 27 27 26 26 26 26 29 30 32 28 23 18 22 23 24
16 17 18 17 16 15 13 11 8 6 8 10 9 12 16 18 18 17 20 22 22 24 26 26 26 26 24 24 25 25 24 22 23 22 24 25 24 23 23 26 28 24 24
17 18 17 17 11 12 11 6 8 9 9 11 14 15 15 15 18 16 14 20 20 22 23 23 22 23 22 22 22 23 24 24 23 23 24 25 23 23 23 24 26 24 19
18 18 16 15 15 13 10 10 8 10 12 14 15 14 15 16 12 17 20 14 16 23 23 23 23 21 25 25 26 23 24 21 13 22 19 23 19 21 19 19 11 11 13
18 16 15 15 16 17 10 8 7 8 13 13 13 14 15 15 16 16 17 22 22 21 22 22 25 25 25 23 23 25 25 25 24 26 22 22 20 19 19 18 18 10 14
17 17 17 15 16 12 7 6 7 10 12 12 12 14 15 14 14 13 18 21 21 22 21 21 22 24 25 27 27 27 28 29 30 26 24 19 21 21 19 18 21 20 18
16 15 17 14 13 6 9 8 7 10 11 11 13 14 13 15 13 18 18 20 21 21 19 18 21 24 25 26 27 27 26 22 18 19 19 17 20 18 21 19 19 18 19
16 10 11 9 6 6 8 9 9 9 10 11 12 13 12 8 12 15 15 18 20 19 21 23 21 21 21 20 20 18 21 18 17 17 13 8 14 13 14 20 20 18 17

GFSMA_925_spd_054.txt.gz
Wind_Speed
4 4 4 7 11 5 7 7 10 10 11 13 15 14 15 18 17 18 18 21 21 24 18 14 12 14 13 14 14 14 13 13 12 12 12 11 13 14 12 11 10 12 12
7 4 4 3 5 6 7 7 9 11 13 15 18 17 17 18 17 18 20 21 21 23 12 9 11 13 14 15 15 16 15 14 14 12 12 12 12 13 15 15 13 12 12
7 6 3 2 5 6 8 9 12 13 15 17 18 20 20 19 20 21 22 22 21 14 8 9 12 16 15 14 16 18 17 16 14 12 12 13 14 14 12 12 14 14 14
10 5 8 8 8 10 8 9 12 14 16 18 19 19 18 19 22 23 20 20 19 10 11 7 14 19 16 14 16 17 17 15 15 13 15 15 14 14 16 15 15 15 15
9 7 9 6 7 6 8 9 12 13 16 17 19 20 21 23 22 23 24 19 19 10 5 9 13 15 13 13 16 13 15 14 16 16 15 16 16 16 15 16 17 18 18
4 4 3 3 5 8 8 11 10 12 15 18 20 19 20 19 23 26 28 18 13 3 7 9 14 14 12 14 17 9 11 13 15 16 16 16 16 16 17 18 18 17 17
3 1 3 5 7 7 9 9 10 13 15 19 20 22 16 22 22 21 20 21 21 20 13 10 8 13 13 14 11 10 8 9 13 15 16 16 17 17 17 17 18 19 19
1 2 2 3 6 8 10 9 12 15 16 16 21 19 6 15 17 23 23 19 18 23 21 18 18 16 17 14 12 16 6 7 11 14 15 16 17 17 18 18 18 18 18
1 3 4 6 7 7 10 12 12 11 12 18 15 16 7 5 17 15 22 21 22 21 18 20 18 20 19 16 14 13 12 8 10 14 16 17 19 19 19 19 19 19 18
2 4 6 7 7 8 11 12 12 16 15 14 16 16 18 21 5 7 9 20 18 21 20 21 20 18 19 20 19 19 20 17 13 14 15 19 20 21 21 21 20 20 20
6 8 8 9 8 11 14 16 17 10 13 17 16 16 17 19 17 10 6 9 18 16 21 21 22 25 27 25 25 17 19 20 15 14 14 18 22 22 22 23 23 22 21
8 6 5 5 7 12 14 16 17 15 14 17 20 17 13 9 12 11 5 8 12 17 17 22 23 22 24 22 19 17 22 14 18 21 17 16 18 20 23 25 25 24 23
10 11 10 12 15 17 19 21 21 17 20 18 18 18 16 15 14 12 12 13 9 18 20 19 20 23 23 21 20 15 16 20 21 21 19 20 19 20 24 27 28 26 25
10 11 12 12 15 18 19 20 21 20 17 16 16 18 17 14 14 12 12 12 4 12 18 20 21 23 22 25 21 22 18 19 21 23 26 23 23 26 27 27 28 27 25
8 11 13 14 16 18 19 20 21 19 14 13 13 15 14 15 13 12 10 11 12 6 9 19 22 21 20 23 24 26 27 24 25 27 29 29 29 28 28 27 24 24 25
8 10 12 15 17 18 18 20 22 15 15 16 15 14 16 12 11 11 11 14 16 18 11 21 23 23 25 24 24 24 27 27 27 27 28 29 28 28 28 27 23 22 24
9 11 14 16 17 18 19 19 15 14 13 11 13 12 8 8 9 13 14 18 21 22 15 22 24 24 24 24 23 23 24 28 29 28 28 29 30 29 25 24 24 25 27
10 11 14 16 16 16 12 17 17 16 15 13 14 9 8 9 12 15 18 17 17 21 22 21 25 26 24 22 23 23 24 25 27 28 30 30 31 30 27 27 29 29 31
11 13 15 17 17 15 18 17 14 13 14 9 9 9 9 13 16 13 13 18 21 21 22 23 26 26 25 23 24 23 24 26 25 24 25 23 24 23 23 24 26 29 29
12 14 18 18 11 11 11 13 11 10 9 10 11 10 13 12 9 15 16 17 17 19 20 20 23 24 22 23 24 23 22 23 23 23 25 29 27 27 25 25 27 30 31
15 17 18 11 13 13 14 10 11 7 9 11 13 13 11 13 17 15 13 16 15 16 19 21 20 22 21 20 20 23 22 25 26 24 23 24 24 25 24 25 23 20 26
15 17 13 11 12 14 18 15 15 10 7 12 15 12 12 13 8 11 5 9 15 19 21 19 21 21 21 23 21 19 20 19 15 24 17 29 23 27 26 24 22 16 17
17 15 11 13 17 15 17 17 10 7 6 11 14 11 12 13 15 13 15 17 22 19 21 24 23 23 20 19 21 22 24 23 24 29 26 29 27 27 25 23 23 19 14
16 16 11 13 15 15 14 12 7 7 7 12 11 10 13 13 13 15 16 21 22 19 20 21 21 23 24 25 27 26 27 27 29 31 26 18 26 27 28 25 25 24 23
20 19 12 8 12 12 10 9 8 6 8 11 12 11 14 13 14 15 19 21 19 20 18 18 22 23 22 23 24 26 23 19 20 21 20 12 20 21 24 25 26 22 24
18 11 7 11 10 7 9 10 10 7 10 11 12 12 15 10 10 14 17 16 18 19 22 27 21 23 22 22 21 18 18 16 15 15 10 18 18 15 7 7 7 20 24

GFSMA_925_spd_057.txt.gz
Wind_Speed
5 6 7 6 6 5 7 7 8 10 11 11 10 12 14 17 13 12 17 19 21 20 12 5 9 11 12 13 14 15 14 14 14 13 14 15 13 12 11 12 12 13 13
8 6 5 6 6 9 9 9 9 10 10 11 12 14 16 16 16 18 20 21 20 17 7 5 9 11 11 12 13 14 15 14 14 13 12 13 16 16 14 13 11 11 13
8 9 7 9 12 11 10 7 6 7 10 12 13 13 14 17 19 19 16 17 20 15 5 4 9 11 8 11 12 12 13 13 14 14 17 16 18 18 15 17 15 14 14
11 11 11 10 8 7 5 3 7 12 11 12 13 14 18 19 18 20 25 22 18 17 2 3 6 9 10 10 11 8 10 10 12 14 14 15 15 16 18 15 16 18 18
12 9 9 7 8 4 4 6 10 9 12 14 16 15 15 17 19 20 22 24 16 7 4 3 8 12 8 9 10 7 9 8 10 11 12 13 14 15 16 17 19 19 20
11 7 7 6 3 5 7 7 6 9 11 13 13 18 15 15 14 21 23 22 18 16 16 14 13 10 12 13 11 7 7 5 8 11 11 12 13 14 15 17 18 19 21
8 8 9 8 6 6 7 6 8 10 12 13 13 21 17 7 19 15 17 18 19 20 16 16 17 16 13 10 10 10 6 5 8 9 10 11 12 12 14 16 17 19 21
7 8 3 1 5 6 5 9 13 12 11 13 15 13 4 14 10 20 17 16 16 15 15 16 14 16 14 15 14 9 11 10 8 9 9 9 10 12 14 15 18 19 20
7 4 1 4 5 5 8 11 12 11 11 14 10 6 3 2 8 5 18 10 20 18 16 16 16 11 13 13 15 14 14 15 14 8 9 12 14 15 16 16 17 19 21
3 3 5 8 9 9 8 11 12 15 14 9 9 14 15 13 2 4 2 16 15 20 16 16 13 17 18 17 18 19 17 12 8 9 9 13 16 17 17 18 19 20 22
2 4 7 7 5 5 6 8 11 13 14 12 11 11 14 14 15 3 5 4 10 12 17 16 19 22 19 19 19 18 10 11 13 10 12 14 16 17 18 18 19 21 23
6 7 3 2 2 7 11 14 17 17 18 15 16 15 11 6 11 10 3 4 10 16 15 14 16 17 20 19 16 16 16 16 16 18 14 17 14 17 19 20 22 24 26
3 5 5 6 8 10 13 15 16 18 19 20 18 13 12 14 18 14 11 12 7 17 13 14 14 18 19 19 20 13 15 14 15 17 16 15 19 19 21 24 26 27 27
3 4 7 9 12 13 15 17 19 19 20 14 10 12 10 11 14 13 15 11 5 4 14 13 16 18 20 18 16 20 21 20 16 15 18 18 20 22 25 26 27 27 26
4 6 8 10 12 15 16 16 18 20 13 11 14 12 13 13 12 11 10 8 5 3 5 14 20 22 18 22 23 21 22 22 22 25 27 26 24 24 23 23 24 26 26
5 6 8 10 12 13 14 13 11 8 10 8 6 6 8 8 7 5 5 9 11 13 8 16 17 19 20 21 22 22 22 24 26 30 29 23 23 22 24 25 25 27 26
5 6 8 9 12 12 13 11 13 16 16 12 10 10 7 5 5 6 9 13 8 11 8 16 24 23 22 22 22 23 23 24 24 24 24 25 26 25 25 27 26 26 26
4 6 8 10 13 16 15 14 16 13 11 14 12 8 9 8 7 8 5 7 11 16 13 14 20 24 24 22 25 25 26 24 23 24 23 24 24 20 21 21 22 24 26
9 10 11 15 17 12 11 14 16 10 12 10 10 10 10 10 10 7 9 13 16 15 17 19 21 26 26 23 25 26 24 25 24 21 21 23 27 28 25 23 24 24 25
11 13 15 18 10 8 11 12 14 12 11 10 10 9 11 10 6 10 12 10 11 13 15 19 21 21 21 23 24 24 22 22 23 25 24 25 26 23 22 26 23 22 24
17 18 16 12 10 10 12 12 12 10 10 7 8 7 6 8 10 9 5 8 9 12 17 19 18 18 19 20 19 22 17 20 25 25 26 26 22 31 32 27 25 24 22
15 15 17 12 11 12 13 14 12 14 15 10 13 10 8 7 6 7 5 6 9 13 19 16 17 16 21 22 15 21 20 20 14 19 14 35 26 32 30 27 25 23 23
12 12 11 13 12 9 13 15 15 15 7 8 11 7 5 6 9 8 10 14 17 20 16 17 22 19 19 20 23 22 22 20 22 30 22 28 29 30 29 28 25 25 25
16 19 18 14 8 10 13 15 15 9 8 9 8 8 8 10 11 12 14 15 20 21 16 14 16 21 24 24 25 24 25 27 27 27 21 15 24 25 28 27 23 22 22
19 18 12 7 9 14 14 15 11 10 10 11 12 14 11 11 11 11 14 19 22 21 14 13 18 16 18 20 21 21 19 17 16 19 20 20 17 26 25 26 12 13 10
19 18 15 12 12 12 11 11 13 13 14 13 14 11 10 11 10 12 16 19 18 17 16 19 18 19 20 18 18 16 19 17 18 13 13 15 22 15 8 16 13 14 19

GFSMA_925_spd_060.txt.gz
Wind_Speed
12 11 12 13 12 10 8 7 5 6 7 9 10 11 13 12 13 15 15 14 15 10 2 6 8 8 7 8 10 9 11 11 11 13 15 16 17 15 16 16 16 16 15
11 12 11 10 10 7 6 6 8 9 10 10 11 11 12 14 16 16 15 17 14 11 3 5 6 5 6 8 8 9 10 9 10 11 14 16 13 16 16 16 17 17 17
11 11 13 12 10 7 6 7 8 8 10 9 10 10 13 15 15 18 19 17 10 6 2 3 5 5 6 6 6 8 8 9 10 11 12 13 13 15 17 18 20 22 22
13 13 12 10 7 6 6 7 7 8 8 9 9 10 11 12 13 15 16 22 13 4 6 7 4 6 5 5 6 7 5 6 7 8 10 11 11 13 16 17 18 20 20
15 11 10 9 6 4 3 5 6 5 7 7 8 10 14 9 14 12 16 17 18 15 7 4 3 6 5 7 6 3 3 4 5 6 7 8 10 12 14 16 18 20 20
12 11 11 9 6 4 2 2 3 5 5 7 6 16 8 6 15 11 13 14 14 12 10 9 8 7 8 11 7 5 3 3 4 5 4 5 8 10 12 13 16 18 20
13 10 10 9 6 2 3 3 4 5 6 9 3 16 2 7 3 20 17 12 12 9 8 7 9 6 5 5 6 6 3 3 7 7 5 6 7 9 10 12 15 18 19
10 7 5 2 2 1 2 3 7 7 7 8 6 4 3 7 3 21 4 13 6 14 12 7 7 5 7 8 7 9 10 10 11 11 10 8 8 10 12 13 15 17 20
8 5 3 4 1 1 4 5 7 7 6 7 4 2 2 2 7 7 17 4 16 8 12 10 8 6 10 9 9 11 12 13 13 11 9 10 12 13 13 14 16 18 20
7 5 3 2 1 1 2 4 6 7 9 8 7 8 10 10 2 4 3 13 12 15 15 12 7 10 12 12 14 14 13 10 10 9 12 12 13 15 16 15 15 17 19
10 7 5 3 2 2 3 6 8 9 10 11 13 9 7 10 10 5 5 3 15 12 15 15 10 13 13 15 16 10 12 11 7 10 11 13 14 16 16 18 18 20 22
8 4 3 2 1 3 6 7 9 11 12 13 15 15 12 7 6 7 4 10 9 15 15 11 11 14 16 14 20 14 10 9 9 10 13 15 17 17 19 21 23 25 27
8 8 2 4 2 3 5 8 11 13 12 14 15 15 11 11 12 13 15 11 7 9 9 7 10 12 14 19 17 13 17 19 19 17 16 14 15 18 21 24 27 28 29
4 7 4 1 5 8 11 13 12 13 15 14 11 10 12 13 12 14 14 8 4 4 5 5 7 12 13 13 15 17 18 20 21 19 17 17 18 20 24 27 29 29 28
1 3 4 8 12 12 15 16 15 15 12 10 10 11 12 13 12 11 13 12 5 2 2 3 3 4 12 15 19 20 20 18 19 20 22 24 22 24 24 26 27 28 28
5 6 8 10 11 12 16 15 15 12 12 14 15 15 12 10 9 5 2 1 3 3 3 3 9 18 21 23 22 20 21 20 21 23 24 25 22 22 24 25 27 28 28
7 7 9 10 12 13 15 15 14 14 16 17 14 13 11 7 6 6 10 10 8 3 7 10 19 23 24 25 28 24 22 24 23 21 21 21 21 21 21 20 20 21 23
5 8 9 12 13 15 15 14 12 14 16 13 13 8 8 9 9 8 6 5 5 7 8 13 19 23 27 28 24 24 25 23 21 21 18 18 19 22 24 26 24 22 23
8 10 12 14 16 17 17 13 13 15 15 14 12 12 11 10 10 10 8 8 7 8 10 13 18 26 28 25 26 24 24 23 21 18 20 19 24 25 24 22 21 23 25
10 15 18 20 18 18 13 13 14 14 16 14 13 14 12 13 12 9 10 8 7 9 11 15 20 20 19 22 21 22 19 19 23 32 30 28 23 21 20 23 28 27 26
15 15 16 17 17 15 12 13 13 15 14 16 13 11 9 10 10 10 9 8 6 9 12 17 16 15 16 17 17 17 19 22 26 28 24 20 25 24 24 23 23 23 23
14 13 14 13 13 14 14 13 15 14 15 17 20 12 11 13 10 9 8 6 8 9 13 15 15 14 15 17 17 21 23 20 11 18 15 34 25 26 24 22 23 21 21
10 12 15 15 16 16 14 14 14 15 17 13 10 11 9 8 8 10 8 8 9 11 15 16 17 16 17 21 23 23 21 19 20 27 22 24 26 28 27 25 29 24 21
15 17 18 19 15 13 13 14 16 18 14 11 10 9 10 12 12 11 10 10 13 17 17 12 12 17 20 19 21 21 23 23 22 22 18 16 26 28 26 31 22 13 13
15 19 20 20 17 15 15 16 15 14 14 13 11 12 15 14 11 10 10 12 16 20 13 8 10 12 15 16 15 18 18 17 16 19 24 16 21 26 28 25 15 13 17
15 18 19 20 17 17 18 18 15 16 17 18 15 15 14 13 12 11 12 14 17 16 10 11 13 14 15 15 16 15 17 16 16 13 9 15 23 17 7 17 13 21 15

GFSMA_925_spd_063.txt.gz
Wind_Speed
12 13 14 14 14 12 10 10 9 9 11 11 10 10 12 12 12 12 11 11 8 5 1 2 3 4 6 7 7 8 9 9 9 9 12 13 14 15 16 18 16 17 18
16 15 15 13 12 9 9 9 10 9 11 10 11 12 14 13 13 14 16 14 8 4 2 4 2 3 4 5 7 6 7 7 8 9 10 11 12 14 16 17 18 19 18
14 14 13 13 12 10 9 9 8 8 10 12 12 11 12 11 11 12 15 13 3 6 6 5 3 3 2 3 3 3 4 5 5 6 8 8 10 12 14 16 17 18 19
14 15 15 13 11 9 6 6 8 10 11 11 10 9 10 7 10 12 16 18 12 7 5 5 4 3 1 2 3 1 1 2 3 5 6 7 8 11 14 15 16 16 17
16 14 12 12 8 4 4 6 7 8 8 6 4 10 3 6 9 12 15 13 11 9 6 4 2 2 0 3 4 3 5 1 0 1 1 3 5 9 13 14 14 15 16
14 12 11 9 5 3 1 3 4 3 2 2 3 11 0 5 5 15 17 8 10 6 5 3 2 2 3 5 4 4 4 5 5 4 4 3 5 7 10 12 13 14 15
12 10 9 7 5 2 1 4 2 1 1 2 4 7 2 1 5 13 9 4 14 3 9 7 5 4 4 4 6 9 11 11 12 13 11 9 9 9 10 11 13 15 16
13 9 7 6 5 2 6 3 1 1 1 2 3 2 3 5 9 14 5 10 3 8 11 8 6 4 4 5 6 9 11 15 16 16 15 13 12 12 13 14 14 16 17
11 8 5 3 4 4 4 2 2 2 3 3 3 1 1 3 4 4 8 5 7 15 11 9 7 7 7 6 9 10 11 12 15 16 17 14 14 15 16 15 15 17 17
11 10 8 8 7 5 2 1 2 2 6 7 6 8 10 9 3 4 4 6 14 14 16 17 11 9 7 9 11 11 9 9 9 12 13 15 18 18 18 19 17 17 19
11 7 8 5 4 3 0 2 3 4 6 7 8 9 9 10 10 8 3 3 6 14 19 21 16 9 8 11 10 14 12 11 10 11 14 17 17 20 21 22 20 22 20
11 7 7 6 2 6 2 3 6 7 8 8 10 11 13 9 6 9 5 8 8 10 17 17 13 8 8 9 12 11 8 12 11 11 12 15 18 21 23 23 24 26 27
12 9 7 7 11 4 5 7 10 11 10 12 12 11 12 13 14 15 14 9 7 6 10 14 8 7 10 12 11 10 12 13 13 14 15 16 18 20 22 24 27 29 31
13 11 12 9 7 5 6 10 12 11 10 9 7 8 11 14 16 16 15 11 4 5 7 9 6 6 8 12 14 16 19 20 20 18 16 16 17 19 22 25 28 30 32
9 10 6 10 6 4 8 10 11 10 7 8 10 13 14 14 14 16 14 14 6 3 2 3 4 5 13 19 21 23 25 25 23 22 22 21 21 23 25 27 28 30 30
9 12 11 8 6 8 10 12 11 10 11 12 15 15 15 12 12 12 10 8 8 6 2 5 11 13 17 18 19 22 23 22 23 24 22 22 23 25 25 25 25 26 26
15 12 8 7 9 10 10 12 13 13 12 14 15 14 13 10 9 9 9 11 13 10 7 10 11 15 18 21 24 22 22 21 20 19 19 20 20 19 19 19 20 21 22
11 7 8 13 12 11 13 15 15 13 12 15 17 14 12 10 13 13 12 12 10 10 11 12 15 18 22 24 22 21 20 19 18 19 17 17 20 22 22 24 24 23 23
5 7 11 12 12 15 15 16 15 12 14 16 16 16 15 14 15 15 15 14 12 11 11 12 15 19 22 24 23 22 20 19 18 16 25 25 24 24 24 24 25 25 23
6 8 10 12 14 16 16 15 13 14 15 17 17 16 16 15 14 16 17 15 14 12 12 13 18 20 19 22 19 19 19 19 26 26 23 19 17 20 23 23 23 25 27
6 8 10 12 14 15 14 13 14 15 16 16 17 18 17 17 16 13 16 17 14 13 13 14 16 16 15 16 15 17 21 24 26 20 21 23 25 25 21 19 20 18 20
8 11 12 12 14 14 14 15 16 16 17 18 20 20 20 16 14 18 17 15 14 13 14 13 16 14 15 14 18 19 19 17 9 13 19 29 25 29 27 25 21 22 24
11 12 14 15 16 17 16 18 16 16 18 20 21 18 14 13 11 12 14 15 14 14 14 15 18 17 15 17 18 20 18 19 19 24 21 23 25 30 26 26 25 26 24
11 13 15 17 20 21 18 16 16 18 19 20 19 16 15 13 13 15 17 17 16 14 15 17 14 13 15 15 17 18 20 22 21 21 20 16 25 27 30 32 28 20 16
12 13 17 20 22 24 20 17 17 20 20 19 18 17 17 17 17 16 17 17 16 15 16 12 10 11 12 13 14 17 19 16 17 19 24 15 17 28 27 26 17 17 15
14 17 17 19 21 22 19 18 18 21 21 21 21 21 20 19 17 16 18 17 16 16 13 10 11 12 12 14 15 16 16 14 15 12 4 15 22 16 8 16 16 20 21

GFSMA_925_spd_066.txt.gz
Wind_Speed
14 15 15 16 16 14 12 12 10 9 9 9 9 9 9 10 11 11 12 11 5 3 0 2 3 3 4 6 7 6 7 8 10 10 11 10 12 13 15 16 18 17 16
14 15 17 16 15 11 11 11 11 10 10 9 10 10 10 11 12 14 15 12 3 3 5 4 2 2 3 4 5 4 4 6 6 8 8 9 11 13 14 16 16 17 17
15 15 15 15 14 13 11 9 10 9 8 9 10 10 10 10 10 12 13 10 4 6 6 6 2 2 1 3 1 2 1 1 3 4 4 7 8 10 12 14 15 15 16
15 15 16 16 14 11 8 6 7 8 7 8 9 12 7 8 8 11 12 12 8 4 3 3 2 2 1 3 7 4 4 3 2 2 2 9 8 9 12 15 15 14 15
15 15 15 15 12 8 7 5 6 5 6 7 7 11 2 6 8 10 13 7 7 7 6 4 3 5 4 6 8 7 7 6 5 3 4 4 7 10 13 15 15 15 14
17 15 15 13 9 6 4 4 4 4 5 3 1 8 2 5 5 7 9 6 12 8 4 7 8 8 9 7 6 8 10 11 11 11 9 7 7 8 11 14 14 14 15
16 14 13 10 8 4 2 3 2 2 2 1 2 6 3 7 6 1 6 2 12 4 7 13 10 10 11 10 11 7 11 14 17 17 17 15 14 8 10 11 14 16 16
14 13 10 8 7 4 6 4 1 1 2 1 1 0 2 4 9 11 10 6 5 6 12 14 11 11 11 10 10 11 12 12 15 18 19 17 17 13 13 14 15 16 18
14 11 10 9 8 6 5 4 3 2 1 2 4 1 1 3 3 5 6 8 7 9 14 11 13 13 13 11 10 12 14 14 13 15 17 18 18 16 17 17 18 19 18
16 13 10 9 6 5 5 4 2 2 2 3 4 6 8 8 3 3 6 5 11 11 13 18 19 14 13 10 10 10 10 12 13 13 15 17 17 18 21 20 20 20 21
14 12 10 7 6 7 5 3 2 2 3 4 4 5 7 10 11 8 3 6 10 13 12 20 16 15 11 10 9 10 8 7 9 12 12 15 17 21 19 21 24 24 24
14 13 9 9 9 5 6 4 3 5 4 3 4 7 8 7 6 9 6 10 10 11 11 13 16 12 9 7 9 9 9 12 13 13 14 16 18 21 23 24 25 26 27
17 15 12 9 6 7 6 3 5 7 5 5 5 4 5 7 11 16 17 11 7 6 7 9 14 11 8 7 9 11 13 16 17 17 16 17 20 22 23 24 26 28 30
20 13 9 8 7 7 6 6 6 7 7 5 3 4 8 12 15 19 17 9 5 7 4 11 9 9 4 12 19 21 23 25 26 25 21 19 20 21 22 25 27 28 30
16 12 7 6 11 10 9 7 7 9 7 6 6 7 11 14 15 15 15 15 8 8 4 5 7 9 11 18 20 23 24 25 25 24 23 22 23 24 24 25 27 30 31
8 9 7 12 13 11 10 9 10 9 9 8 8 9 12 14 12 12 12 13 13 11 4 7 10 13 13 18 18 20 23 23 23 22 21 21 21 22 23 24 24 25 26
9 7 13 14 12 14 13 11 12 12 12 11 10 12 13 12 11 12 11 12 12 12 8 10 11 12 15 18 21 22 22 21 19 18 18 19 20 20 21 22 23 23 23
9 11 12 13 14 14 13 14 15 14 14 13 12 14 15 14 13 14 16 17 18 17 14 13 14 15 17 20 21 21 19 18 18 17 17 18 21 24 25 25 25 26 26
11 11 12 11 11 13 15 17 17 17 14 13 15 16 17 17 17 18 18 18 17 16 15 15 14 14 17 21 22 21 19 19 19 21 20 20 19 20 20 21 22 24 25
9 7 7 9 11 13 14 15 16 15 14 16 16 17 18 19 19 20 18 18 18 17 16 16 16 17 17 19 19 16 17 18 23 22 18 15 18 22 21 21 21 21 22
4 7 9 8 8 10 12 14 14 15 17 17 17 17 18 19 18 18 19 19 17 19 16 15 16 15 16 16 13 14 18 23 23 12 19 22 25 26 26 24 22 21 19
6 7 8 9 11 12 13 14 17 19 19 19 19 20 20 21 23 20 17 19 21 19 17 15 16 14 18 17 15 16 17 15 9 9 22 27 22 28 28 24 22 22 23
9 9 10 11 13 15 16 16 16 18 20 20 20 22 22 20 16 16 14 14 16 17 18 17 18 21 19 16 14 16 13 16 19 22 23 25 23 27 26 29 26 24 25
11 11 12 13 16 18 18 19 19 20 21 21 22 22 21 19 16 15 15 17 19 20 19 18 20 21 16 13 13 16 17 21 21 20 17 17 22 24 30 30 19 14 17
12 12 13 15 17 20 19 20 19 20 22 24 23 21 21 20 18 18 18 20 20 22 19 18 18 15 13 13 13 15 18 14 14 16 20 13 12 26 24 20 13 21 23
15 16 18 19 21 25 23 22 20 22 24 25 27 24 22 23 22 21 20 21 21 23 19 17 16 15 14 14 14 14 15 15 13 11 4 13 20 12 9 12 23 24 25

GFSMA_925_spd_069.txt.gz
Wind_Speed
15 16 18 19 17 15 13 12 11 10 10 10 10 10 10 10 10 11 10 6 1 2 1 3 3 3 4 5 5 5 5 7 8 11 9 9 10 11 13 14 14 15 16
18 19 19 19 17 14 13 11 10 9 10 9 9 9 10 10 11 11 9 8 5 2 7 4 2 1 1 2 2 1 1 3 4 9 5 7 8 10 12 13 14 15 15
17 19 19 18 16 14 12 10 10 9 9 8 9 9 7 7 8 10 10 9 6 4 2 2 2 0 1 3 2 4 4 3 2 6 3 5 6 8 10 12 14 13 13
17 18 18 17 16 13 11 10 9 9 8 7 8 8 3 3 5 8 8 7 7 5 4 3 2 3 4 7 9 9 8 8 6 6 5 6 7 7 9 12 13 13 13
18 17 18 18 15 12 10 8 8 6 6 4 4 7 1 4 3 4 5 6 7 7 4 4 5 8 9 7 10 11 12 10 9 10 9 9 8 8 10 12 13 13 13
18 18 18 17 13 10 9 8 6 5 4 2 1 3 4 7 5 2 1 1 8 5 2 6 10 11 12 13 13 9 13 15 16 15 16 14 11 12 10 13 15 13 14
19 18 18 15 12 9 8 6 4 3 2 1 2 5 4 9 9 5 5 4 5 2 5 8 12 10 11 14 16 13 11 14 15 17 19 18 18 15 11 9 12 15 16
18 19 18 15 13 10 8 6 5 3 3 3 2 2 2 4 10 11 9 8 6 4 7 10 10 10 13 13 13 14 15 14 16 18 20 21 20 17 15 15 17 17 15
19 19 16 14 11 8 10 8 7 6 4 4 4 2 2 3 9 4 5 8 7 7 9 12 11 15 14 13 12 12 14 15 13 15 17 18 19 19 21 18 17 20 18
20 18 16 12 10 11 9 8 7 7 4 3 4 7 8 7 4 6 4 6 7 12 11 13 15 14 12 11 10 11 11 12 14 13 15 18 19 20 21 20 22 20 22
20 18 16 14 15 11 9 7 7 4 3 4 5 4 6 7 9 9 9 10 11 13 15 14 15 14 11 9 8 7 10 12 13 14 13 15 17 20 22 23 23 25 23
21 19 18 18 13 11 5 7 5 4 4 5 5 6 6 7 7 8 10 15 15 16 14 12 12 12 8 5 5 8 10 12 14 15 16 17 18 20 22 24 26 27 27
23 23 21 18 15 4 5 8 7 5 5 7 7 6 6 6 7 10 14 17 14 16 13 13 12 9 8 6 5 11 15 18 21 23 24 21 21 21 23 25 27 28 28
23 23 22 18 9 9 9 11 7 5 7 9 7 7 6 7 8 12 13 14 10 15 14 13 11 9 9 8 11 19 16 24 26 26 24 23 22 23 24 26 27 29 30
23 23 17 10 11 11 13 9 8 8 9 9 9 10 9 9 10 12 12 12 13 10 9 8 11 8 10 12 16 19 20 23 27 27 27 25 22 22 23 24 25 27 29
19 15 11 10 10 13 10 11 10 10 11 11 12 13 12 11 11 11 11 12 14 16 10 14 12 13 12 13 14 17 19 25 23 25 23 22 21 22 22 23 24 25 26
15 11 14 8 14 12 12 12 13 13 14 15 15 14 14 12 12 12 13 14 15 15 16 18 14 12 11 13 15 16 18 19 19 19 19 19 21 22 22 22 23 25 26
16 13 11 11 13 13 13 14 16 17 16 16 16 14 15 13 14 14 15 16 18 19 18 21 18 14 12 13 15 17 17 18 18 18 18 22 23 23 24 24 24 25 26
10 10 10 12 11 13 14 16 17 18 18 18 16 15 15 14 16 17 17 19 19 18 17 18 18 14 13 13 15 17 17 17 17 18 20 20 18 18 19 21 22 23 25
7 9 7 8 12 12 13 13 15 16 17 16 17 18 16 16 18 18 19 20 17 17 17 16 17 17 15 14 14 16 17 16 18 19 19 15 16 20 22 22 21 21 21
8 5 7 11 11 10 10 11 13 14 15 16 18 19 19 20 21 21 19 20 18 19 17 16 17 16 16 15 16 16 17 18 18 18 14 15 20 21 20 19 19 19 19
2 9 13 10 10 11 11 12 14 15 17 19 21 21 19 21 21 23 25 26 22 18 18 18 18 18 18 16 15 15 15 16 13 11 18 23 21 23 20 17 18 22 22
16 11 9 10 12 14 14 16 17 19 20 22 22 21 19 18 22 19 19 20 20 20 20 17 19 19 18 15 14 14 14 15 17 20 23 24 22 21 17 18 21 22 17
9 9 11 11 13 16 15 17 19 21 19 22 22 22 22 22 20 18 17 17 16 16 17 18 19 18 17 16 14 14 16 17 19 19 17 19 17 20 20 21 18 9 17
10 12 13 14 17 20 20 20 21 20 19 21 22 22 24 25 23 22 19 19 19 18 17 22 22 20 20 17 14 14 16 16 18 19 18 13 17 22 21 20 11 12 21
12 14 17 20 22 25 25 25 25 23 24 24 22 22 26 28 26 24 24 22 20 20 16 14 15 16 16 16 17 16 16 16 16 14 5 11 18 16 9 10 12 21 18

GFSMA_925_spd_072.txt.gz
Wind_Speed
14 13 14 14 13 12 11 11 9 7 7 6 6 7 7 7 6 6 5 8 4 2 3 2 3 2 3 4 4 4 4 6 7 11 8 8 9 11 12 13 14 14 15
13 16 14 13 12 11 10 9 8 7 6 5 6 6 6 5 6 7 6 6 6 3 6 5 1 1 1 2 3 3 4 4 6 7 5 5 6 8 9 11 12 13 14
16 15 13 13 11 10 11 10 8 7 5 5 5 4 4 4 5 6 5 4 5 5 1 1 4 2 2 4 5 7 9 7 7 6 5 6 6 6 7 9 11 12 12
14 14 13 13 13 11 9 8 6 5 4 3 3 3 3 2 2 4 4 3 4 5 6 4 3 5 6 6 9 11 12 12 9 8 9 10 9 8 7 7 9 10 12
15 14 14 14 13 11 8 8 6 4 3 1 2 4 3 3 2 2 0 1 4 6 5 6 7 9 11 11 10 11 13 14 13 13 14 13 14 12 11 10 10 10 9
17 16 15 16 13 11 9 8 6 3 2 2 4 5 6 6 5 5 5 6 5 6 5 7 9 10 13 13 14 13 13 15 16 17 15 15 18 18 17 14 13 12 11
19 16 16 16 13 11 10 9 6 3 1 2 5 6 6 7 8 8 8 9 8 8 7 8 10 11 11 12 15 12 11 13 14 16 19 20 19 20 18 18 13 16 16
18 16 16 16 14 12 10 8 5 2 2 3 5 8 4 4 6 10 12 11 10 10 10 10 12 11 13 15 15 16 15 14 14 16 18 19 20 20 20 18 19 18 18
19 15 17 16 14 11 11 8 5 4 4 4 5 4 4 4 13 5 7 9 10 11 12 14 13 14 16 15 14 13 11 15 15 13 15 17 19 20 20 21 23 22 22
16 17 17 15 13 11 11 9 7 5 5 6 5 6 7 10 5 6 7 10 10 13 15 15 16 15 15 15 13 15 17 15 14 13 13 16 18 19 20 21 23 22 25
18 17 16 15 13 11 10 8 7 7 6 6 7 7 8 10 11 11 9 12 14 15 15 16 16 16 16 14 12 11 13 13 13 15 15 15 16 19 20 23 25 26 26
19 19 18 16 14 12 11 7 11 10 7 7 7 8 9 10 11 12 11 15 17 19 16 15 16 16 15 15 13 13 13 12 14 16 19 20 20 21 23 25 27 28 28
21 21 20 18 15 14 8 10 10 9 8 8 8 8 9 9 10 11 13 16 17 19 18 15 17 17 15 15 14 13 11 18 19 21 22 22 21 22 24 26 28 30 30
19 18 18 17 16 15 9 10 10 12 10 9 9 9 9 10 11 12 13 16 12 17 19 19 15 13 15 16 15 18 17 15 18 25 25 22 21 21 22 24 25 26 27
17 18 19 18 19 12 11 12 12 12 10 9 9 10 12 12 13 13 15 16 17 11 11 19 15 13 14 16 17 16 19 21 24 28 24 24 21 21 22 23 24 24 25
17 20 19 17 12 12 13 13 13 12 11 10 11 12 14 14 15 15 17 17 18 20 13 21 20 17 15 18 19 18 21 22 23 22 24 24 22 21 21 22 23 23 23
20 21 17 13 13 12 13 13 13 13 13 13 14 15 17 17 18 18 19 19 20 20 21 25 22 21 17 19 20 20 21 23 23 22 20 21 23 22 23 23 24 25 26
20 20 16 10 10 11 11 13 14 14 15 16 17 18 19 19 20 20 21 21 22 23 25 24 26 25 19 19 19 21 22 21 22 21 21 26 23 23 23 23 22 22 23
15 8 7 9 10 10 12 14 15 15 17 18 19 20 21 21 23 22 22 23 24 25 25 24 25 25 22 19 20 21 21 21 21 19 22 23 21 20 22 22 23 24 25
10 11 9 9 8 10 13 13 13 15 17 18 20 21 22 23 25 24 23 24 25 25 25 22 24 22 23 21 19 20 21 18 20 19 21 22 20 20 23 22 22 24 24
12 8 10 8 9 12 12 11 12 15 17 18 20 21 23 25 26 26 25 26 26 24 21 21 21 22 23 20 20 18 18 21 20 19 19 16 17 21 21 21 21 21 20
7 9 8 12 11 11 13 14 14 15 18 20 23 24 24 25 26 27 28 28 28 27 27 25 22 20 24 20 20 17 19 19 16 16 15 21 20 22 21 20 17 20 23
8 11 11 9 10 12 15 14 16 16 19 22 24 26 26 26 24 24 26 27 26 26 29 27 26 23 21 20 20 20 18 19 20 19 20 22 19 21 19 20 18 18 21
8 8 8 9 11 12 15 16 18 19 22 24 25 26 27 28 27 28 28 28 26 23 21 21 23 25 22 20 17 18 18 19 20 21 18 20 21 21 20 22 21 18 16
6 7 8 9 11 14 16 19 21 21 24 27 28 29 30 30 29 29 25 27 27 25 22 25 26 25 23 23 22 18 17 17 18 19 16 19 16 20 21 21 13 9 13
5 6 8 10 13 17 18 19 21 22 25 27 30 32 32 31 31 32 25 27 25 26 22 22 18 17 19 19 20 18 18 18 18 19 13 12 17 20 14 17 10 19 16

GFSMA_925_spd_078.txt.gz
Wind_Speed
16 17 17 18 16 16 14 11 8 8 8 7 6 5 4 5 6 4 4 7 6 8 7 5 4 4 4 4 4 4 4 5 7 7 6 8 9 8 9 10 10 11 12
17 17 19 16 16 15 12 12 12 8 9 5 5 4 4 5 4 5 3 4 6 3 4 4 3 2 0 2 2 4 6 8 5 6 6 7 8 8 8 8 8 9 10
20 19 17 15 13 15 16 14 12 10 8 8 5 5 2 4 3 3 4 2 3 4 1 3 6 5 3 1 4 6 8 8 9 8 7 10 10 9 10 9 9 9 9
20 19 18 17 15 18 17 12 12 9 9 7 6 3 2 2 2 1 2 3 5 1 3 1 2 5 8 9 10 10 10 10 9 10 10 10 11 11 13 13 12 11 10
17 19 19 17 17 14 14 13 12 11 9 6 5 6 5 4 4 5 3 6 5 2 1 5 3 9 6 5 7 10 9 10 10 11 12 12 12 12 13 14 15 15 16
17 17 17 18 16 15 15 13 13 9 8 6 2 1 6 9 9 9 7 9 7 6 5 5 4 9 6 6 8 7 7 7 8 10 11 12 14 15 15 16 16 16 15
18 16 17 16 18 17 16 14 13 10 6 3 2 9 11 18 14 12 10 10 9 7 6 9 9 7 6 9 9 7 11 9 11 11 12 13 14 15 15 16 18 18 18
19 19 17 18 19 18 17 17 14 12 6 7 0 6 3 5 11 14 13 12 11 9 9 10 10 8 12 10 12 11 13 11 10 7 9 12 14 15 16 16 17 19 20
23 23 18 20 20 18 18 17 15 10 8 11 9 3 2 1 3 5 16 16 11 12 11 12 14 13 13 13 11 13 11 9 10 12 11 11 13 14 16 18 19 21 22
18 19 16 18 21 17 17 18 14 11 9 5 8 8 10 6 2 3 7 13 9 15 15 16 13 14 15 14 12 13 16 15 13 12 14 11 13 16 18 19 21 23 25
25 28 23 23 23 20 18 20 18 15 10 8 8 8 9 6 10 10 4 11 12 12 8 10 12 12 14 16 15 18 17 15 14 17 19 15 15 17 20 22 23 25 26
27 26 23 24 21 22 17 20 17 14 11 10 7 6 6 5 7 9 4 10 10 14 16 15 15 16 17 16 16 19 19 18 18 18 18 20 16 18 21 23 25 25 26
26 30 25 25 24 22 19 22 16 14 11 10 8 6 8 8 10 12 14 13 9 14 16 18 19 20 20 23 21 20 21 19 19 18 19 18 21 20 22 25 23 24 24
25 26 28 24 25 23 22 19 13 11 7 6 8 7 9 10 12 13 14 12 5 10 15 17 19 17 16 16 18 21 19 18 17 18 18 21 22 22 22 20 22 22 22
22 25 28 26 25 25 23 19 7 8 11 10 10 11 12 13 15 16 16 15 13 4 4 17 19 19 22 22 21 21 22 21 20 23 22 22 22 24 20 19 21 23 23
21 24 27 26 26 24 22 12 6 7 5 10 12 12 14 15 16 17 17 18 19 21 7 18 22 23 21 23 21 22 20 21 21 24 25 23 24 22 22 24 22 24 24
20 16 22 23 20 17 14 6 9 7 12 11 16 16 16 18 20 20 20 20 21 21 17 23 24 25 25 26 28 26 20 18 20 20 24 23 22 21 26 25 24 24 22
26 27 28 22 16 17 15 11 11 12 13 16 14 18 19 18 19 20 22 24 26 27 27 24 26 26 25 23 21 17 21 21 21 19 24 26 27 27 23 22 24 24 21
28 25 23 23 23 18 13 15 16 15 16 18 15 14 15 17 19 21 22 23 24 25 25 26 26 28 26 22 18 21 24 23 22 21 23 25 22 19 21 23 26 25 25
25 22 21 23 19 13 15 16 17 17 14 11 12 13 15 18 21 23 25 23 23 22 21 23 24 24 22 25 24 24 25 25 21 18 20 22 19 22 22 22 22 24 29
25 21 21 19 15 15 15 17 14 9 7 8 12 14 17 20 21 24 26 29 30 31 28 26 24 24 23 24 23 24 21 20 22 16 19 17 18 19 15 15 18 22 17
21 18 19 16 14 16 15 11 12 11 12 13 15 17 19 21 24 26 26 25 27 31 30 26 23 19 22 23 24 22 18 13 7 14 16 16 13 17 18 21 21 22 20
19 17 15 14 13 10 9 7 8 10 11 13 15 18 21 20 23 26 27 25 26 27 29 31 29 27 26 26 23 22 16 17 12 13 14 18 18 21 24 22 21 20 21
17 15 13 9 6 6 6 5 5 7 10 12 15 18 20 22 23 24 29 31 32 28 26 26 27 32 31 28 25 16 11 14 14 15 15 17 25 25 24 21 19 19 22
13 8 7 7 6 4 5 3 5 6 9 13 18 20 19 22 22 25 28 30 31 30 27 28 29 29 25 28 27 22 20 16 13 20 20 20 23 22 19 19 17 17 16
11 11 9 8 6 3 2 5 9 9 11 13 14 17 21 22 23 24 27 29 28 30 29 27 26 27 30 27 30 28 28 19 17 12 22 18 19 12 6 16 8 18 21

GFSMA_925_spd_084.txt.gz
Wind_Speed
32 31 29 27 26 24 22 19 16 13 11 11 12 9 8 9 8 9 10 10 14 11 9 7 7 7 7 7 6 6 7 6 7 5 6 8 8 7 8 8 9 10 12
32 29 28 27 26 24 19 17 14 13 11 9 10 9 7 6 6 7 9 11 10 9 9 7 6 4 3 3 4 4 5 6 6 7 4 7 8 7 7 8 8 9 10
27 28 29 27 25 21 18 14 15 13 12 10 10 10 8 4 4 7 9 10 9 7 5 4 4 2 1 2 3 4 5 4 5 5 5 7 7 9 9 10 12 13 12
25 25 27 25 22 21 19 17 17 15 11 11 11 11 10 9 5 6 8 7 7 5 2 3 3 1 2 2 1 4 6 4 3 5 5 5 8 9 10 11 12 12 13
20 24 25 20 22 24 21 20 19 16 15 13 11 11 13 13 11 7 7 6 5 5 4 3 4 3 2 4 4 3 3 4 4 5 6 6 8 10 10 11 12 13 14
21 22 21 23 24 24 21 24 21 17 14 12 13 12 14 12 12 12 11 10 8 8 8 6 7 9 6 6 6 5 3 1 2 3 5 6 7 8 10 12 13 14 15
19 20 19 22 23 24 27 26 21 19 16 15 13 11 13 13 14 15 16 14 13 13 13 11 11 11 10 11 10 9 7 5 5 5 7 10 7 8 8 10 13 14 16
20 15 19 24 28 27 29 27 26 22 19 20 10 6 1 4 16 17 16 14 13 11 15 14 14 13 12 13 14 12 11 10 10 8 10 10 10 7 7 9 12 14 16
17 18 22 28 32 33 32 30 27 28 22 21 18 7 2 4 2 8 16 18 16 15 17 16 15 13 12 14 15 16 17 16 15 13 12 13 12 10 8 9 11 13 16
22 25 26 31 31 36 32 30 29 31 28 23 19 18 10 7 3 1 5 7 5 10 14 18 16 13 14 16 17 19 19 19 18 18 15 13 13 11 8 9 10 12 16
31 31 32 35 36 35 32 32 33 32 30 28 25 19 13 10 8 3 3 6 7 5 3 5 8 8 8 10 12 15 18 21 21 22 20 18 16 13 10 10 10 13 16
36 35 34 36 35 35 35 34 36 34 32 28 29 20 15 6 7 5 2 6 8 10 10 8 9 9 9 11 12 10 15 21 25 24 24 21 19 16 14 13 13 15 16
38 38 35 35 34 36 35 35 36 34 30 25 20 12 10 9 7 7 5 7 8 6 6 9 11 13 15 15 15 15 16 17 18 24 25 24 22 21 18 17 16 16 17
43 40 38 36 33 32 34 35 34 30 24 17 16 12 12 11 11 10 9 5 1 5 7 12 15 19 19 19 18 19 23 23 20 22 27 28 27 25 21 19 18 18 17
42 42 40 35 34 31 32 34 32 28 24 21 17 16 16 18 16 13 12 13 10 3 4 10 11 18 20 19 20 22 24 26 25 27 26 29 31 26 23 20 19 20 20
40 39 36 32 34 33 29 32 32 30 24 23 22 20 23 19 15 14 14 18 16 16 3 12 18 23 23 22 23 26 28 28 28 28 27 30 29 26 25 25 24 23 22
38 35 29 29 33 31 31 34 34 30 29 26 24 22 22 18 16 16 19 21 20 20 14 17 22 25 25 25 26 24 24 26 26 26 21 19 24 29 31 32 31 26 26
29 30 28 28 30 34 34 37 33 33 28 27 23 22 21 18 19 19 19 20 20 20 21 20 23 23 23 23 23 21 24 23 22 24 27 28 28 31 34 35 29 29 26
39 33 30 33 34 39 42 40 36 30 28 23 21 20 17 17 18 16 14 13 15 17 20 23 24 24 23 19 23 27 28 26 27 27 26 26 25 28 31 31 28 23 21
40 36 36 36 37 39 40 36 31 25 20 18 16 18 16 14 12 10 9 10 11 15 18 20 22 24 22 22 23 25 28 28 30 25 27 24 24 26 22 21 21 22 23
37 35 36 33 32 33 30 32 26 20 18 16 15 13 12 9 6 5 8 9 11 11 13 15 16 19 20 20 21 25 28 31 31 30 26 27 24 21 29 25 23 20 18
29 32 31 31 33 28 24 21 17 18 17 17 18 13 10 8 9 7 6 6 9 12 15 15 18 19 22 22 23 24 24 19 16 20 23 25 21 19 18 19 18 18 21
28 29 29 28 25 23 18 16 14 14 18 14 10 9 7 7 8 9 11 14 16 16 17 16 20 22 24 23 24 24 21 23 26 29 24 24 20 19 18 22 20 22 19
26 27 24 21 20 15 16 14 16 17 13 9 7 6 6 7 10 13 16 19 20 20 20 21 23 25 25 26 26 27 26 25 26 30 28 20 25 26 23 22 20 17 16
24 21 20 19 20 15 17 20 18 15 11 8 4 5 8 11 12 13 15 17 20 22 20 19 20 23 25 27 24 25 23 21 20 21 22 23 20 21 23 21 15 15 16
21 20 19 18 18 23 19 16 12 9 7 4 4 6 7 8 9 10 12 16 18 19 19 22 23 24 24 26 24 21 23 20 19 16 21 18 19 14 5 8 10 10 11

GFSMA_925_spd_087.txt.gz
Wind_Speed
40 39 34 32 30 27 26 23 20 19 16 15 13 12 12 12 12 12 13 16 13 12 11 10 10 9 9 9 8 8 7 6 7 5 7 8 6 6 8 9 10 12 12
41 39 33 31 28 25 24 21 20 20 16 13 14 12 12 10 10 10 13 16 12 12 11 9 8 7 5 6 6 4 4 5 6 5 5 5 9 9 9 11 12 13 14
38 37 32 30 29 26 21 19 17 17 17 15 13 11 10 9 9 8 10 12 12 11 10 9 8 7 5 4 3 3 3 3 4 3 4 7 8 7 7 9 10 11 12
34 32 32 29 28 24 22 20 19 17 16 14 14 12 11 8 7 8 10 11 11 9 6 4 3 3 2 4 5 3 3 3 5 5 4 4 5 7 8 9 10 11 12
26 28 28 28 28 24 22 20 18 18 18 16 13 12 12 10 8 9 10 12 11 9 6 5 4 4 3 3 5 3 2 3 4 4 3 3 4 5 6 7 8 10 11
21 22 25 26 25 25 23 20 21 20 18 16 14 13 13 12 11 11 13 14 12 9 8 7 7 8 7 7 8 6 4 5 4 4 1 4 5 3 5 6 8 9 11
20 19 25 24 25 28 25 25 23 22 19 18 16 12 12 14 15 17 18 17 16 13 12 12 11 11 11 11 10 9 7 8 7 7 6 6 6 6 6 6 6 8 10
21 22 26 26 27 28 28 28 28 23 18 21 10 6 1 5 16 19 19 20 18 16 17 16 16 16 16 15 13 11 10 11 12 12 10 9 8 7 6 5 5 7 9
22 20 21 25 30 31 31 31 30 28 24 23 15 7 2 4 2 8 18 20 20 20 18 19 19 19 19 17 17 17 16 16 16 16 14 13 13 10 8 7 7 7 8
22 22 26 29 32 29 29 31 31 31 30 26 22 18 9 7 4 1 8 14 20 21 18 17 18 17 16 16 18 20 21 22 21 21 18 16 16 14 12 10 10 9 10
29 32 32 28 27 29 33 34 35 34 33 30 30 18 16 11 7 3 3 6 11 12 12 11 12 12 10 8 8 10 12 17 22 23 22 19 18 17 15 14 13 12 13
34 33 31 28 28 30 34 35 36 35 37 35 32 25 12 3 5 4 2 3 7 7 10 9 10 12 12 12 12 12 11 11 15 22 25 23 21 21 20 19 18 16 16
36 35 34 33 34 34 36 38 36 36 39 37 30 24 20 19 6 6 5 7 6 8 8 13 14 15 14 12 12 13 13 12 13 14 16 20 23 24 24 23 22 20 19
41 41 39 39 39 37 37 36 37 38 38 34 28 23 28 23 19 16 14 10 2 5 6 9 12 16 15 14 13 13 15 17 18 18 20 20 23 27 28 25 22 22 22
42 40 40 41 42 39 38 37 39 38 35 33 32 30 28 22 21 20 19 15 10 3 3 10 12 15 15 15 16 16 18 19 21 23 22 23 24 27 30 27 23 22 23
41 40 41 41 42 41 38 36 36 35 34 33 33 31 29 27 25 23 21 17 18 18 4 11 17 19 19 19 19 20 21 23 24 22 22 23 23 26 28 29 26 31 32
42 43 41 39 40 37 34 35 37 37 35 38 33 34 32 27 25 24 21 21 21 22 13 15 17 20 21 21 21 21 22 23 24 23 25 26 27 26 27 30 34 34 33
42 39 37 36 31 38 41 39 37 37 39 39 36 36 31 26 23 21 21 22 23 22 20 17 20 18 19 19 19 21 21 22 24 25 26 27 28 28 28 31 33 34 36
27 29 23 35 37 41 40 38 41 41 41 40 37 32 27 23 21 21 23 21 20 17 16 15 15 17 16 19 20 20 22 24 26 26 29 29 28 28 29 31 31 31 31
28 30 38 38 37 38 37 37 36 35 36 35 32 25 21 20 19 21 20 16 14 15 15 15 15 14 14 15 17 20 24 26 27 25 28 31 32 31 32 29 30 30 25
41 35 34 32 36 36 35 34 33 32 31 30 23 17 17 16 15 16 14 13 12 12 13 12 12 14 18 18 18 19 24 27 29 27 29 30 30 34 31 27 28 29 27
30 26 27 33 36 32 33 35 34 29 22 15 14 12 11 14 14 11 11 10 9 9 11 13 15 16 19 21 22 21 20 20 9 14 20 25 22 27 29 26 25 23 24
23 25 29 30 28 29 26 27 24 21 20 19 17 17 15 11 8 8 8 9 11 13 14 15 18 20 22 22 21 23 22 22 21 23 23 26 25 32 28 26 25 21 20
23 23 21 20 22 19 22 20 17 17 15 14 16 12 10 7 6 8 9 10 12 13 13 14 16 19 20 21 22 24 25 26 26 24 20 21 22 28 30 26 25 23 23
17 17 19 19 20 17 16 15 15 19 21 16 11 7 4 5 5 6 8 10 11 12 11 11 14 17 18 18 19 23 20 18 21 22 18 19 24 26 26 26 25 23 21
16 16 17 16 17 18 14 15 16 15 13 11 7 4 3 4 4 6 7 9 10 9 13 15 18 20 19 20 19 20 23 18 17 15 15 18 19 15 7 17 22 20 17

GFSMA_925_spd_090.txt.gz
Wind_Speed
39 36 34 33 31 29 27 27 25 23 21 18 17 17 17 16 16 17 19 16 15 14 13 12 11 11 11 10 10 9 9 9 7 7 8 7 8 10 11 13 13 12 13
40 38 37 33 30 27 26 25 23 22 19 16 16 16 16 15 15 15 18 16 13 15 13 11 9 9 8 8 7 6 8 7 7 6 6 10 10 10 9 9 10 10 11
42 41 38 36 31 26 25 23 23 20 16 16 16 16 15 14 14 14 17 17 14 14 12 12 10 9 7 6 4 5 6 5 6 5 8 7 8 8 7 6 7 8 9
41 38 37 36 32 28 26 24 23 20 18 18 18 15 14 13 12 13 15 15 14 13 11 9 9 8 8 7 7 5 5 6 7 7 6 4 4 4 4 4 6 7 8
36 35 34 32 31 29 26 24 22 21 20 18 17 16 14 12 11 12 13 13 14 12 10 10 8 7 5 4 7 6 4 7 7 6 4 2 2 2 3 4 5 6 7
35 34 31 32 31 28 25 24 21 20 20 18 17 15 13 12 11 12 14 14 14 12 11 11 10 8 5 4 5 7 6 6 5 6 4 1 2 3 3 3 4 5 5
26 26 28 27 27 28 27 24 23 23 21 19 16 10 11 13 15 16 17 17 18 17 16 16 14 12 9 9 8 11 10 9 8 8 8 7 5 4 4 4 4 4 3
28 30 26 27 28 29 26 26 26 23 19 23 11 6 1 7 19 20 21 21 21 21 20 19 19 17 16 14 12 13 13 11 11 11 11 12 11 9 9 8 6 5 5
30 27 27 29 30 29 30 29 29 27 25 25 20 8 2 5 3 13 23 23 23 24 21 20 21 21 19 19 18 17 18 16 14 13 13 13 14 14 13 12 10 9 8
27 24 26 27 28 29 30 31 32 32 30 25 25 22 10 4 3 1 8 19 23 24 22 23 23 23 22 21 21 20 21 21 20 20 17 16 16 17 17 16 15 14 12
21 22 24 23 24 27 30 31 35 37 35 30 31 19 18 10 7 3 2 3 13 19 22 23 22 22 21 19 19 18 19 20 20 22 24 20 20 19 19 19 18 18 16
28 27 28 28 26 29 30 33 37 37 40 36 30 28 22 12 7 3 2 2 5 7 12 14 15 16 15 14 13 11 12 14 16 17 19 20 21 20 21 21 21 22 20
33 33 30 30 31 32 33 33 36 39 41 39 36 31 31 26 22 20 16 5 7 9 11 18 17 16 15 14 12 11 12 13 13 12 12 15 18 17 20 22 24 24 25
37 37 36 35 37 37 36 36 37 41 39 39 40 36 35 33 29 27 22 11 2 8 11 12 16 19 19 17 15 12 12 13 13 15 16 17 19 20 20 22 25 26 27
38 37 37 39 39 38 39 38 38 39 37 39 40 38 36 36 29 28 27 23 14 4 6 9 13 14 16 16 14 13 14 14 16 18 20 22 22 22 24 24 26 28 27
39 39 39 39 38 38 37 37 36 35 34 37 38 38 38 37 31 32 29 25 22 17 3 13 14 13 12 14 15 16 18 19 20 21 22 22 22 24 24 26 28 29 31
41 42 42 42 43 42 38 35 33 31 29 36 38 39 41 38 34 36 30 25 24 22 11 12 16 17 17 18 18 18 19 20 20 20 20 20 23 24 25 27 28 28 30
43 45 42 43 37 38 37 32 32 28 31 38 40 38 38 39 34 36 32 28 26 23 21 15 19 19 19 17 19 21 20 19 19 19 20 24 25 27 28 29 29 29 30
44 42 40 35 38 37 39 34 33 37 47 42 38 39 39 39 33 31 26 26 23 20 20 19 17 14 14 16 18 19 18 19 20 21 24 26 26 28 29 31 31 31 31
38 38 38 35 39 37 36 36 36 35 34 33 34 37 35 36 32 29 25 23 20 19 19 16 14 13 13 14 14 17 21 23 25 25 27 27 27 29 31 32 32 32 34
36 37 36 38 37 33 35 33 34 35 35 32 30 28 25 23 23 19 18 17 17 18 15 14 10 8 11 13 15 14 21 24 25 25 20 19 20 21 23 26 29 28 31
33 33 35 36 33 30 34 35 36 34 34 32 30 24 20 17 13 12 12 12 13 14 12 9 10 11 13 15 16 17 18 14 6 10 8 17 24 25 28 28 30 30 27
34 34 34 29 28 29 30 31 29 27 24 22 22 19 18 17 15 14 12 13 9 9 10 10 11 13 13 14 15 17 18 18 15 20 20 24 21 27 30 29 27 24 25
25 21 19 18 17 15 15 19 20 16 17 17 17 16 14 13 11 11 8 6 8 9 9 9 10 11 12 12 14 17 19 23 23 22 19 20 19 26 30 31 26 25 25
6 6 7 8 9 11 12 16 19 20 18 18 16 15 12 10 5 5 6 6 6 6 5 5 6 7 11 11 12 15 15 15 19 20 17 20 21 23 25 31 27 21 24
12 12 14 13 16 15 11 10 13 18 22 20 13 10 6 4 2 2 3 3 3 3 5 6 8 11 12 12 10 9 11 16 18 16 10 14 17 13 9 20 14 16 21

GFSMA_925_spd_093.txt.gz
Wind_Speed
34 35 38 32 29 32 33 31 28 25 24 23 20 19 18 16 16 14 15 18 18 17 15 14 14 13 12 12 11 10 9 8 8 8 7 9 10 11 11 10 11 11 11
40 40 41 35 33 33 32 31 29 25 23 22 19 17 17 17 16 16 16 16 19 17 16 14 13 12 12 11 10 9 9 9 8 7 10 10 9 8 9 9 9 9 9
45 41 42 37 33 33 31 29 27 24 22 21 19 18 16 16 17 16 15 14 15 17 16 15 13 12 11 10 8 9 9 8 9 9 10 8 7 7 4 5 6 7 7
46 44 39 38 35 33 32 29 26 21 20 19 19 17 15 16 16 16 16 15 15 14 15 15 14 13 11 10 9 9 9 9 10 10 9 7 5 2 1 2 4 5 6
44 45 42 37 37 32 32 29 27 23 21 17 18 17 17 15 15 16 19 19 17 16 13 15 13 12 11 10 11 10 9 10 10 10 8 6 4 3 3 3 3 3 4
44 41 37 32 32 27 29 28 25 22 19 19 14 14 16 15 16 17 18 18 19 18 16 13 13 12 11 10 12 12 10 11 10 10 9 8 5 4 2 1 2 4 4
39 33 31 31 31 26 28 28 24 22 17 19 15 8 12 15 17 18 18 18 20 19 17 17 14 13 13 13 13 14 12 12 11 11 11 9 9 6 5 4 3 3 2
29 29 28 29 29 27 26 27 27 22 16 24 10 9 4 9 17 21 21 21 20 20 21 20 20 19 17 14 15 16 15 13 13 13 14 15 13 11 10 9 9 9 8
31 27 29 28 31 28 28 29 28 26 17 25 18 7 3 6 7 12 24 23 23 24 21 21 23 23 23 21 20 19 19 19 17 16 15 15 16 16 15 14 13 13 12
31 26 23 26 27 34 29 29 31 31 22 18 19 24 11 4 4 4 9 15 20 21 24 22 22 25 26 26 24 22 21 22 23 23 19 17 17 17 17 18 18 17 16
27 27 29 33 34 29 29 31 32 33 34 22 22 12 15 9 9 6 7 7 11 24 26 23 25 25 27 27 25 25 24 25 26 26 26 24 21 21 20 19 21 21 19
32 35 36 30 34 31 34 34 32 35 37 37 26 28 24 13 13 6 5 5 7 11 19 24 25 27 24 24 24 22 20 21 22 22 22 24 24 22 23 23 23 23 23
29 30 31 33 32 31 31 29 30 33 36 36 34 33 35 31 26 23 20 9 8 12 13 21 21 23 22 23 21 19 18 20 19 19 18 19 20 22 23 23 23 24 26
29 28 33 31 30 31 31 31 32 34 34 37 40 43 39 35 38 34 25 14 2 11 15 12 20 25 25 25 21 20 20 20 18 18 20 20 19 19 21 25 23 25 26
29 31 34 32 33 34 34 32 34 35 35 39 40 40 40 34 33 34 33 31 20 7 7 16 18 26 28 26 24 23 23 20 19 20 21 22 23 25 26 27 28 30 30
28 28 31 32 32 34 32 32 34 35 35 40 39 37 36 34 30 31 33 34 27 25 9 22 24 18 24 25 24 24 24 21 21 22 24 24 26 27 28 28 28 31 30
29 28 28 30 33 33 36 35 35 36 39 41 40 39 38 35 36 35 37 35 32 28 18 13 17 20 21 21 22 23 23 23 21 22 23 24 25 26 25 27 29 30 30
34 33 29 28 28 31 34 32 36 37 40 40 40 36 34 31 37 34 35 37 32 31 23 19 19 23 22 20 20 21 19 19 17 19 22 23 25 27 30 31 32 32 32
33 30 28 29 32 35 39 41 42 39 40 43 40 37 38 37 35 33 35 31 30 31 30 20 15 20 20 20 19 18 17 17 19 19 22 25 27 30 31 32 32 32 32
27 27 28 31 34 34 37 37 36 36 37 37 36 37 40 37 40 34 30 31 28 28 24 22 17 14 11 9 11 11 12 12 15 16 22 26 26 27 28 29 29 31 33
27 27 29 31 33 32 35 33 32 34 33 35 35 34 36 37 39 35 33 31 30 24 21 19 11 8 10 8 9 11 12 14 16 17 18 14 14 16 17 21 24 26 26
23 24 29 31 32 35 38 39 35 29 30 31 26 24 26 26 25 27 25 22 20 20 20 13 6 8 8 8 10 12 13 12 9 8 10 12 15 20 19 18 21 24 25
21 25 28 27 27 24 25 26 25 26 23 20 19 18 15 14 14 12 8 12 11 11 11 9 7 7 7 9 8 11 12 14 16 15 16 21 17 22 20 20 22 22 23
13 10 8 7 8 9 11 12 15 14 9 9 11 14 15 13 11 13 11 8 6 3 1 3 5 5 7 7 8 11 12 16 18 19 17 18 17 20 19 20 22 22 22
7 8 8 7 7 8 3 6 7 13 16 17 15 13 13 13 12 9 7 6 4 4 1 3 4 5 7 9 11 9 14 14 17 18 15 19 20 20 19 22 21 21 20
15 15 17 16 16 15 10 10 12 17 20 19 17 16 15 12 13 13 9 4 3 3 4 5 5 5 7 7 10 8 9 14 18 17 6 12 16 14 15 17 14 11 14

GFSMA_925_spd_099.txt.gz
Wind_Speed
32 30 30 31 29 28 28 25 21 18 15 14 12 13 11 10 11 12 14 17 17 16 15 14 14 14 13 12 12 12 12 11 11 11 11 11 12 9 10 9 9 9 9
31 31 29 31 30 28 28 25 22 18 16 15 14 12 11 11 11 12 14 17 17 16 15 14 13 12 12 12 12 11 11 10 10 11 11 12 10 11 8 7 7 7 8
33 32 30 29 29 28 26 25 20 18 18 15 13 13 11 11 11 12 13 13 15 16 16 15 14 13 12 12 12 11 12 11 10 12 12 12 11 10 7 6 7 6 7
31 31 27 26 26 28 25 23 22 21 18 16 15 13 11 11 11 12 12 14 14 14 15 17 17 16 16 15 14 15 15 15 15 14 13 12 12 10 8 7 7 6 5
34 33 25 24 23 21 23 22 22 20 18 16 15 13 12 11 12 12 12 13 15 15 15 18 19 20 19 18 17 17 17 17 17 18 16 14 13 11 10 9 8 7 5
39 30 23 19 24 23 22 21 20 18 18 16 14 13 11 11 10 12 14 15 15 16 15 20 22 23 23 20 19 18 18 18 18 19 18 16 15 14 13 12 11 9 8
42 32 33 26 23 23 22 22 20 19 16 15 13 12 10 9 11 14 14 16 17 18 20 20 21 21 23 25 23 22 21 20 21 21 20 20 19 18 16 14 14 13 12
44 37 27 27 25 22 21 20 19 18 15 13 13 11 5 9 16 17 16 18 20 20 21 23 22 23 23 24 28 28 25 24 24 25 24 24 23 21 19 17 17 16 16
43 33 26 27 26 22 22 22 20 18 14 13 12 7 4 5 10 18 23 21 21 23 23 24 25 26 26 24 27 31 31 31 29 28 28 28 27 26 25 24 22 21 20
37 35 28 26 22 18 22 22 20 18 15 13 13 16 11 2 3 2 18 23 23 24 25 24 25 29 29 29 28 31 32 35 36 34 33 32 31 31 30 28 25 24 24
33 32 27 23 21 26 20 20 19 19 17 15 17 10 15 14 13 7 6 9 22 26 27 27 28 27 31 34 33 37 32 35 36 40 39 36 35 34 33 32 30 29 28
33 35 28 27 26 23 21 23 20 20 19 18 17 16 16 13 15 15 10 14 9 18 28 29 31 32 34 34 41 39 39 42 39 40 41 42 40 34 32 31 31 32 32
26 32 35 31 27 21 18 16 18 23 20 20 20 21 22 22 20 18 13 11 10 20 21 32 37 38 36 35 39 42 45 45 45 45 44 43 44 45 43 40 35 35 34
27 30 36 32 28 26 25 21 24 27 25 23 23 22 21 20 21 23 24 19 7 17 22 24 32 40 44 39 39 45 47 48 50 46 45 44 46 45 44 42 38 36 34
25 26 35 34 33 33 31 34 28 28 28 26 24 25 26 24 25 25 26 28 23 11 14 27 25 29 36 38 42 41 44 48 49 48 46 45 44 42 40 39 37 35 35
26 26 27 30 28 28 29 29 28 26 26 26 27 26 27 26 27 27 29 29 30 30 16 28 28 34 38 40 43 43 50 50 51 48 48 46 43 40 39 37 34 34 33
25 25 28 26 27 27 26 26 27 25 27 29 28 29 30 30 30 27 28 31 36 35 23 35 31 29 39 43 42 40 45 41 42 47 45 46 41 40 39 37 35 35 35
25 24 24 24 25 26 27 30 31 30 30 30 32 32 32 30 30 31 34 34 34 34 32 30 31 29 33 39 42 35 36 39 39 36 41 42 40 39 37 37 36 36 35
26 27 27 27 27 29 29 31 31 32 32 32 31 31 30 30 34 34 33 31 30 33 33 31 32 26 28 31 34 33 31 30 26 20 18 30 34 33 33 31 32 32 34
26 27 28 27 28 28 28 28 30 30 29 28 27 32 36 33 27 25 29 30 32 29 27 25 25 21 20 19 19 15 13 16 20 17 16 17 15 16 20 26 30 34 39
25 24 23 24 23 24 24 26 26 27 27 28 28 19 15 17 21 20 20 21 20 23 22 21 13 8 8 7 11 11 13 12 16 21 18 15 14 20 23 24 32 37 41
21 20 20 20 20 15 22 25 23 22 20 10 6 5 7 11 12 13 12 11 12 10 9 5 3 3 3 2 6 7 9 6 3 9 12 14 12 16 24 23 28 31 27
18 10 7 6 4 4 6 7 6 1 2 7 7 8 10 12 11 10 12 14 17 15 11 7 8 8 6 5 3 2 1 2 3 6 11 15 19 23 25 27 29 31 31
12 13 13 13 14 15 12 11 8 12 15 16 16 17 16 18 17 14 14 14 14 13 12 10 7 4 2 3 4 6 8 12 16 18 17 16 19 24 26 28 29 31 34
24 24 23 22 22 21 16 16 15 19 22 22 20 18 16 16 14 13 13 12 11 10 11 11 9 8 8 9 10 10 10 11 13 13 14 21 20 23 26 28 28 29 30
32 30 33 32 30 28 23 23 22 21 22 18 16 16 18 16 15 15 12 12 11 9 10 11 10 9 10 8 10 8 11 13 14 11 6 9 9 10 7 14 26 26 23

GFSMA_925_spd_102.txt.gz
Wind_Speed
35 37 36 33 31 28 29 33 27 24 20 18 11 15 9 17 18 16 23 19 18 17 15 15 14 12 12 12 13 13 13 12 12 12 12 12 12 11 11 10 10 10 10
32 36 36 30 30 28 26 31 27 25 22 18 15 16 10 15 18 14 20 20 18 17 16 14 14 13 12 13 13 13 13 12 12 11 11 12 11 11 10 9 9 9 8
32 36 34 32 29 29 28 26 23 24 20 19 17 15 13 15 19 24 18 21 19 15 16 16 15 15 15 14 14 14 13 12 12 12 12 13 10 11 9 8 8 8 8
33 34 34 34 33 32 31 29 24 23 20 19 19 16 15 14 14 22 17 16 18 19 20 18 17 19 17 15 15 14 14 14 13 14 14 14 14 13 11 11 11 10 9
33 35 35 33 36 36 32 28 25 23 21 19 18 16 15 16 15 14 20 19 18 20 22 21 20 21 20 18 16 15 15 17 17 16 17 17 17 16 14 13 12 11 10
37 31 33 30 35 36 32 28 26 23 22 20 19 17 14 14 15 15 15 18 21 24 22 18 19 23 22 21 19 20 20 20 20 20 21 20 19 18 17 15 14 13 12
42 37 32 26 26 28 21 25 23 23 21 18 17 19 13 11 15 15 16 16 17 21 18 19 22 25 25 25 25 24 22 22 23 23 24 24 23 21 20 18 18 15 15
48 41 35 30 23 21 24 23 23 22 19 18 11 14 3 5 12 17 15 19 19 20 22 24 21 24 23 25 28 28 26 26 27 27 28 28 26 25 23 22 20 19 19
47 41 28 29 26 20 22 24 25 24 16 18 12 6 3 4 10 16 25 22 22 22 24 25 29 27 26 27 29 30 32 32 33 31 31 32 32 29 28 26 24 23 22
43 36 31 31 33 22 28 29 28 23 18 18 18 20 10 3 1 2 12 25 26 26 29 29 28 31 33 32 31 31 33 35 38 39 36 36 37 34 32 30 29 27 26
45 42 36 34 34 29 30 29 24 27 18 22 23 17 20 11 8 4 2 10 25 28 30 29 33 30 30 36 36 36 36 36 39 42 43 42 42 41 39 36 34 33 32
38 39 39 34 31 29 27 23 30 27 28 22 22 20 16 7 13 10 5 9 12 20 31 32 34 35 37 38 37 40 44 43 41 43 45 48 46 46 45 44 43 39 37
32 37 41 36 31 31 27 31 22 28 30 23 20 20 19 20 18 17 18 10 9 20 18 29 34 38 42 43 48 45 48 47 48 47 49 50 52 53 48 46 46 44 43
32 35 39 33 31 32 32 22 31 30 26 25 23 22 24 27 25 25 22 15 6 12 20 23 30 38 48 51 53 51 52 51 54 55 50 49 53 55 56 55 49 44 42
30 33 34 34 34 31 27 32 26 25 24 26 27 28 29 32 29 25 27 27 21 8 9 20 21 31 39 44 49 52 54 54 54 48 54 55 56 57 59 59 57 55 51
27 28 36 38 38 31 34 31 32 31 26 26 25 27 32 33 32 32 33 31 29 27 12 28 32 33 34 37 43 46 48 51 50 51 57 57 58 59 61 61 60 57 55
30 30 35 39 39 37 35 33 33 29 28 29 29 29 34 34 33 31 32 32 30 31 21 32 33 35 33 35 40 45 48 51 55 55 57 57 57 57 60 59 55 50 43
30 30 31 34 34 33 32 30 29 26 29 30 29 30 32 29 31 33 33 32 32 33 31 28 28 27 28 30 36 41 46 49 52 54 50 48 48 50 54 51 44 38 33
27 29 29 31 30 30 31 31 30 30 31 31 31 31 31 30 30 27 28 29 32 30 27 26 26 26 25 25 26 27 30 31 30 27 27 27 31 37 40 37 35 34 32
25 26 25 24 24 23 24 27 28 29 30 31 29 22 18 16 16 17 16 9 12 15 20 22 23 20 18 18 20 20 23 23 21 19 15 15 16 19 23 27 28 29 30
28 26 25 26 24 24 24 26 23 21 12 6 3 3 4 8 10 11 8 13 14 11 12 15 12 10 9 10 10 10 12 14 16 16 19 18 20 22 21 22 26 30 30
23 20 22 19 15 9 8 18 18 10 6 3 7 9 11 13 13 20 21 19 18 14 11 7 7 6 9 8 10 9 9 7 3 7 13 17 20 22 20 20 24 26 29
16 14 12 11 12 10 8 2 7 8 12 16 16 17 18 17 18 16 17 13 16 13 16 12 10 10 7 11 11 11 10 8 7 9 13 15 18 24 27 29 30 30 29
21 21 20 21 22 21 19 19 20 22 24 24 22 21 21 18 19 14 15 15 15 17 18 16 12 10 10 12 12 12 15 17 19 18 17 12 17 22 27 29 28 27 27
29 28 27 27 29 26 24 25 26 28 29 27 24 23 20 19 17 15 16 15 14 18 16 16 15 14 14 15 16 16 14 15 12 12 18 16 14 19 21 24 29 28 27
37 36 36 34 33 31 26 26 26 26 27 23 22 21 23 20 18 17 17 15 16 15 16 16 15 14 14 13 13 11 15 16 16 7 15 21 19 17 10 16 14 21 26

GFSMA_925_spd_105.txt.gz
Wind_Speed
38 36 39 40 38 37 37 36 32 33 29 21 21 18 19 23 22 22 24 22 20 19 18 17 16 15 14 14 13 14 13 11 10 9 10 10 11 11 11 9 9 9 9
40 38 40 40 39 39 37 36 31 30 24 19 18 16 15 25 21 23 26 24 20 19 18 16 15 14 13 13 13 12 12 11 10 10 9 11 10 10 9 8 7 7 7
40 37 35 37 38 38 38 34 30 24 21 17 19 16 24 24 21 22 24 24 22 20 19 18 16 15 13 13 13 12 11 11 12 11 11 12 10 11 9 8 8 8 8
40 38 36 35 37 37 38 33 29 29 25 22 21 16 21 23 22 21 21 24 25 22 21 19 18 16 15 14 13 13 13 13 13 14 14 15 14 14 12 10 10 10 9
46 42 36 36 37 38 36 34 28 32 28 24 22 18 16 18 22 23 21 22 22 23 22 21 19 17 18 17 17 16 15 16 16 16 18 18 18 17 15 13 13 13 13
42 43 37 40 39 40 37 35 29 31 28 26 24 20 17 16 19 22 22 22 23 22 20 20 20 21 22 22 20 19 17 18 20 21 20 22 21 21 20 18 17 17 17
43 41 41 42 42 39 40 37 35 32 29 25 24 19 14 15 19 18 18 26 24 24 22 20 20 21 24 23 23 22 21 21 24 24 25 25 25 24 23 22 22 22 21
46 43 43 43 42 39 39 38 35 32 29 26 18 14 2 4 13 20 19 18 22 27 24 24 25 24 25 26 26 25 26 26 26 27 28 30 30 31 28 27 26 26 25
49 44 43 39 43 40 35 35 35 30 27 24 28 10 3 4 4 15 20 21 22 22 26 25 24 25 25 27 27 26 28 31 32 32 34 36 36 38 35 31 30 30 29
48 44 38 38 34 41 36 32 31 29 26 22 28 13 7 7 3 1 11 25 24 25 25 28 30 31 31 31 32 33 32 33 35 39 40 41 42 42 42 40 35 34 32
44 46 37 38 36 39 40 36 32 27 21 22 21 19 16 8 6 3 2 6 21 30 31 32 33 33 33 35 38 40 40 41 41 42 45 46 46 45 45 44 42 38 36
41 42 37 34 30 30 32 29 25 20 20 21 29 24 19 8 13 5 2 5 12 20 30 31 32 34 35 38 40 42 43 47 47 48 47 49 51 49 47 47 47 45 41
34 37 37 36 31 24 23 19 24 26 23 23 27 26 25 24 18 14 15 8 10 20 16 27 34 36 39 40 42 43 46 49 50 50 50 52 56 55 51 48 49 49 48
33 36 35 31 29 26 26 26 25 26 25 33 32 24 25 27 26 22 20 14 3 9 13 20 25 32 40 43 45 46 47 47 51 54 53 53 56 58 54 54 53 52 53
32 40 39 38 36 29 31 27 28 30 28 29 29 31 32 30 28 26 26 25 20 9 9 22 24 32 35 37 37 38 43 46 48 52 52 53 55 58 58 57 59 55 55
29 40 41 38 36 30 32 31 30 32 35 34 34 34 33 33 33 33 32 34 33 27 13 26 29 31 29 27 34 37 39 42 45 46 47 48 50 55 58 60 58 61 61
28 31 33 33 31 32 34 33 33 36 31 34 32 30 32 32 34 36 35 35 32 29 22 31 32 36 34 33 32 35 34 39 44 44 46 45 49 51 53 55 57 61 59
31 34 35 35 34 33 35 35 38 35 35 33 32 31 34 33 36 38 36 34 32 32 30 29 32 30 21 23 25 29 34 33 38 39 41 43 45 46 47 48 49 50 51
33 32 34 36 35 36 37 38 38 35 36 35 30 31 30 28 25 24 19 14 11 13 11 13 8 14 11 16 16 17 19 22 24 26 27 29 32 34 36 37 38 37 36
30 32 31 30 31 35 38 38 35 35 32 27 22 17 16 15 14 12 8 6 7 11 7 12 12 9 8 14 16 16 20 21 24 23 21 19 19 20 22 23 23 24 27
29 30 30 29 29 26 28 28 28 25 22 16 9 7 7 9 10 8 6 9 9 9 11 12 12 9 13 12 15 17 15 21 21 13 18 18 19 20 21 22 21 20 21
27 28 26 23 19 15 14 21 21 15 13 13 14 12 12 14 18 19 18 19 19 17 18 12 12 9 14 13 16 17 15 15 6 11 25 23 26 24 24 23 23 23 24
22 21 19 17 14 11 11 12 14 16 18 18 18 18 19 19 16 16 17 19 23 23 21 18 15 12 9 14 17 16 17 15 13 23 21 17 20 23 24 23 24 25 26
24 24 22 22 23 21 21 23 24 25 28 26 24 22 21 19 16 17 16 17 20 20 20 19 17 14 15 16 16 15 13 16 15 15 20 7 17 19 26 24 21 19 18
30 29 28 27 29 28 26 28 30 32 31 29 25 22 22 21 17 15 15 16 19 20 18 17 15 14 14 13 18 20 22 18 12 14 17 20 17 28 24 22 21 25 27
38 36 37 35 32 30 27 28 30 32 31 29 27 25 23 22 20 20 21 21 23 21 19 18 18 17 17 18 21 22 22 17 17 9 19 21 20 21 11 13 26 28 33

GFSMA_925_spd_108.txt.gz
Wind_Speed
38 36 32 37 38 38 40 40 35 32 28 21 18 28 26 23 23 25 25 22 21 19 18 16 15 15 14 14 13 13 12 11 11 11 12 11 11 10 9 9 8 7 7
39 37 33 38 40 40 41 40 35 33 27 17 17 26 25 22 23 25 23 21 20 19 18 18 16 15 14 14 13 13 13 13 11 11 11 11 12 11 10 9 8 8 8
38 37 39 40 42 42 41 38 34 30 25 17 17 23 22 23 23 21 20 22 20 20 20 18 17 16 16 15 15 15 14 14 13 13 12 13 12 11 11 10 9 9 9
41 42 39 40 42 41 39 38 35 32 24 20 19 21 25 23 22 20 21 20 21 21 20 19 19 18 16 15 15 15 15 15 15 15 15 14 14 13 14 13 12 12 12
44 40 41 40 43 41 41 38 36 33 27 22 20 19 26 23 22 20 20 20 21 22 22 22 21 20 18 19 18 16 16 16 17 17 17 16 17 17 17 17 16 17 16
41 40 40 40 42 39 41 40 36 30 30 27 22 18 24 23 23 22 22 23 22 23 23 23 23 21 21 21 19 18 18 18 19 20 20 19 20 21 21 21 21 20 19
44 41 40 43 44 39 45 43 34 30 31 28 23 16 14 19 22 23 25 23 24 24 24 23 23 23 23 22 21 20 22 23 23 24 24 23 24 26 26 26 25 24 24
47 44 40 41 45 37 43 42 37 31 27 32 18 15 2 4 19 23 25 24 24 26 27 26 27 26 24 23 25 25 26 26 26 26 28 29 31 32 32 32 30 29 28
44 42 44 40 42 42 39 42 38 36 26 34 29 11 3 4 4 12 18 22 25 27 28 28 29 29 28 28 29 29 30 29 29 31 32 35 37 38 37 38 36 33 31
44 43 42 42 39 41 39 41 41 38 31 27 28 18 11 12 3 1 14 19 20 24 26 30 31 32 32 33 32 32 33 33 33 34 36 38 40 41 41 41 42 41 36
40 40 42 43 40 37 39 37 37 39 32 29 27 22 14 10 8 4 2 5 26 29 27 28 30 31 33 35 35 35 35 36 37 40 40 41 42 43 42 44 44 44 44
37 37 36 40 39 37 40 38 37 34 30 21 30 25 18 9 8 4 2 5 9 15 26 33 35 36 37 38 39 39 40 42 40 42 44 45 47 49 48 46 46 46 47
35 36 37 38 38 41 39 38 33 28 27 28 22 18 21 21 17 23 13 9 11 20 18 25 27 32 36 39 40 40 42 43 43 42 43 46 48 52 52 51 48 50 51
33 38 37 33 39 39 40 36 34 26 23 24 20 21 28 27 23 24 20 14 2 9 13 18 23 28 32 35 39 38 43 43 39 43 44 46 49 50 51 51 54 52 52
32 40 40 34 38 37 36 34 28 25 23 24 25 26 28 30 27 26 25 27 17 6 6 16 24 29 32 34 35 34 39 39 36 37 36 38 39 42 44 47 50 53 52
29 35 38 41 36 33 29 26 26 25 26 29 31 33 29 30 32 31 29 33 32 23 10 27 25 31 32 33 34 33 34 30 31 32 33 34 35 39 41 44 45 48 49
28 31 32 33 32 31 30 30 30 30 31 32 31 32 31 34 32 34 36 36 31 27 18 30 30 35 33 34 28 28 24 20 20 24 27 31 33 34 36 39 40 42 44
28 31 31 28 29 27 30 32 32 28 30 32 33 32 37 32 34 36 35 32 31 29 25 23 24 18 6 2 6 9 13 15 17 20 23 24 26 27 28 30 32 33 35
28 28 30 28 28 29 31 31 33 33 32 32 31 29 28 27 28 24 20 16 11 9 7 3 0 0 3 9 14 13 14 16 17 19 18 17 18 19 21 22 23 24 24
29 29 30 32 32 32 33 35 34 33 31 24 20 18 15 12 14 12 10 6 5 3 2 7 4 8 9 11 10 18 19 21 21 17 15 16 19 21 23 23 23 24 25
28 27 28 28 30 30 29 30 30 26 24 20 10 8 7 12 13 8 9 10 8 10 11 14 15 8 10 12 16 16 13 21 19 12 24 25 26 24 22 22 23 25 25
23 25 24 23 23 22 25 27 27 24 19 18 18 18 18 19 20 20 21 20 18 16 17 16 15 12 12 12 14 15 16 15 7 11 22 22 21 18 19 22 22 25 23
24 23 21 21 17 14 15 20 22 20 20 19 20 20 20 19 19 19 21 21 24 24 22 17 18 13 10 13 14 14 13 13 12 17 24 16 16 23 27 32 30 19 22
26 25 22 20 20 18 22 25 24 25 27 26 25 24 23 21 17 18 18 21 22 23 18 18 19 17 16 14 13 11 14 17 18 18 20 5 18 21 24 29 19 17 26
28 27 25 25 26 25 26 30 31 33 35 32 27 24 23 21 18 17 20 20 19 20 19 20 17 13 17 18 17 19 22 18 11 14 18 20 18 27 24 16 13 22 31
34 33 32 28 29 30 28 30 35 40 38 34 31 29 26 25 20 19 20 18 20 16 13 12 12 13 15 16 18 20 20 16 17 10 16 22 21 23 11 12 29 25 26

GFSMA_925_spd_111.txt.gz
Wind_Speed
38 38 31 36 36 35 39 38 34 29 29 30 27 25 23 21 21 22 22 21 19 18 16 15 15 15 14 14 13 12 11 11 12 11 10 10 10 9 8 8 7 7 6
40 40 33 36 38 36 40 40 35 31 27 25 25 25 24 21 19 22 23 22 20 18 17 15 14 14 14 12 12 13 12 11 10 10 10 10 11 10 9 8 8 8 7
45 39 37 36 40 38 41 40 35 30 26 22 23 26 23 21 21 23 23 22 19 18 17 16 15 14 13 12 12 11 12 12 11 10 11 11 11 12 10 10 10 9 8
52 38 38 38 40 40 41 40 37 31 26 23 27 27 23 22 22 21 21 21 20 19 17 16 14 13 13 13 12 12 12 12 12 12 12 13 13 14 14 13 13 12 12
44 38 38 38 41 40 39 42 37 36 27 24 28 24 24 23 21 22 21 22 20 17 16 16 15 14 13 13 13 13 14 15 14 15 16 16 17 17 16 16 16 16 14
39 39 38 38 39 41 41 40 37 35 28 26 25 23 23 23 22 22 22 22 17 15 16 16 17 17 16 16 16 17 17 17 17 18 18 19 19 19 21 21 20 19 18
40 40 39 40 39 41 43 43 38 37 27 26 24 18 18 19 22 21 22 20 17 15 16 17 18 20 20 20 21 20 19 19 19 20 21 23 24 24 26 27 24 23 22
39 36 36 37 40 37 42 40 34 32 28 31 16 15 3 4 15 21 22 21 17 18 20 22 21 22 22 24 25 24 23 22 23 24 26 27 29 30 29 31 30 26 26
39 37 38 39 40 38 41 43 38 32 24 34 26 9 3 4 6 14 23 22 21 24 24 25 25 25 26 28 28 29 28 27 28 27 29 31 32 34 35 34 34 34 33
36 38 40 40 43 40 38 37 38 37 31 27 24 18 11 11 3 2 10 23 25 26 25 26 27 30 30 32 32 33 33 32 33 33 33 33 34 35 36 37 40 40 40
38 39 36 36 36 38 36 41 34 34 34 30 27 23 16 11 9 4 2 6 19 20 24 26 28 30 32 33 34 36 36 36 36 36 36 37 37 39 41 40 40 42 43
35 39 40 40 39 35 35 37 38 37 36 34 30 29 24 9 7 5 2 3 7 16 26 30 32 33 33 33 35 35 36 37 38 38 38 39 40 41 43 44 43 43 44
31 44 41 38 38 39 39 38 38 37 37 34 29 27 21 15 7 8 3 1 3 12 12 19 24 27 30 32 35 36 38 40 41 41 41 41 40 40 39 39 40 41 43
25 38 43 41 37 37 42 38 35 36 32 31 30 21 18 13 12 13 12 8 4 6 5 21 24 25 28 29 31 33 36 37 37 40 41 37 34 33 33 33 35 36 36
32 33 43 40 39 39 39 36 31 34 29 27 31 26 22 20 17 19 24 17 13 4 7 19 24 25 24 26 30 30 31 32 35 35 31 30 28 28 29 29 30 30 31
28 34 35 38 39 37 39 39 34 33 28 27 25 25 26 26 25 24 26 27 25 20 8 23 25 25 27 27 26 26 27 28 25 21 21 22 21 23 27 29 29 30 31
29 28 34 33 37 39 39 35 33 34 31 25 21 24 29 29 29 30 29 25 26 26 15 29 25 25 18 14 14 12 9 7 7 10 13 18 19 20 22 23 23 23 24
26 32 28 30 33 36 39 37 33 26 26 25 24 28 30 26 28 29 28 28 24 21 19 20 18 5 4 4 3 5 10 13 13 16 14 15 16 17 18 19 19 20 21
23 25 29 26 27 27 29 31 30 29 28 27 24 24 23 21 22 20 19 18 17 15 13 5 2 2 4 10 12 14 14 14 16 14 15 18 20 20 20 20 19 19 20
22 24 27 28 30 28 29 29 27 26 21 18 17 16 15 15 15 15 12 10 8 5 1 6 6 8 12 14 14 17 20 23 21 11 18 23 25 22 20 20 22 25 26
22 24 24 25 23 24 25 26 25 22 20 16 12 9 5 4 6 6 4 5 7 9 11 14 13 9 10 12 14 15 13 22 12 14 26 28 27 23 24 25 25 27 24
18 19 19 20 20 21 22 22 24 21 20 19 19 20 21 23 24 23 21 18 15 16 17 18 14 14 14 14 13 16 16 14 8 15 27 30 23 24 28 30 32 28 20
21 20 19 20 18 17 19 21 22 21 23 23 26 25 25 24 23 24 25 25 25 23 21 16 22 15 17 15 14 17 18 13 10 20 24 15 15 24 30 38 30 19 20
22 21 19 18 19 18 18 20 22 25 26 26 26 26 27 24 22 22 23 28 28 24 19 21 20 19 17 14 15 15 15 18 20 15 20 6 19 20 28 28 13 16 25
22 21 20 21 22 22 24 28 29 32 33 31 29 27 27 25 21 19 21 24 25 22 20 20 20 17 16 18 18 19 23 20 10 13 14 21 18 28 22 13 11 20 26
26 25 23 21 23 26 26 29 33 39 39 35 31 28 24 25 21 19 22 21 23 18 12 11 13 14 17 16 19 20 19 16 15 8 14 21 22 24 12 12 22 26 36

GFSMA_925_spd_117.txt.gz
Wind_Speed
31 36 31 32 31 28 27 33 30 27 21 22 21 19 18 16 19 17 18 19 17 16 15 15 15 15 15 14 13 12 11 10 10 10 10 9 9 8 8 7 5 5 5
40 36 37 31 34 34 27 34 38 33 20 19 20 19 16 16 19 19 17 18 17 17 15 15 15 14 14 13 12 12 11 10 10 10 9 8 7 7 7 6 6 5 4
42 40 39 39 34 40 33 33 32 33 20 19 20 18 17 18 17 18 16 15 15 17 16 16 14 14 12 12 11 11 9 9 9 8 8 8 8 7 7 7 7 6 6
41 38 35 34 38 40 39 39 32 27 21 21 20 18 17 17 16 17 15 16 15 15 15 15 15 13 13 12 11 10 9 10 9 9 9 9 9 9 9 9 8 9 9
38 39 38 36 41 42 40 35 31 30 24 22 20 17 16 16 15 15 16 15 15 15 14 16 15 14 13 13 11 10 10 11 10 11 10 10 9 10 11 11 12 12 14
39 43 39 40 42 38 34 34 32 26 26 24 19 16 14 13 14 15 15 14 14 14 13 14 13 12 14 14 13 11 11 11 11 11 12 12 12 12 13 13 16 16 17
37 40 35 43 43 42 40 36 34 30 23 23 20 13 10 9 12 13 13 14 15 14 14 14 12 11 12 14 13 13 12 12 13 14 14 14 14 16 17 18 18 20 20
35 35 39 45 45 41 36 39 37 30 24 26 17 19 6 5 11 12 13 15 15 15 15 15 13 13 14 13 14 13 14 15 15 16 17 18 19 21 24 24 24 25 26
26 29 34 42 43 43 41 40 36 33 25 26 24 11 5 5 12 11 16 14 14 14 14 16 16 17 17 15 15 15 16 17 17 19 20 20 22 23 24 26 28 28 29
25 33 37 43 42 40 38 38 36 36 33 29 23 9 13 12 6 5 11 16 15 16 19 18 18 20 19 18 18 18 19 19 22 23 25 26 27 27 27 29 31 31 32
29 34 39 41 41 37 39 39 34 33 31 30 27 18 11 9 10 4 6 12 15 18 20 21 17 19 21 18 16 17 20 22 23 24 26 27 28 29 29 30 30 30 31
27 30 30 34 40 36 38 38 38 36 34 32 30 23 21 13 13 6 3 12 14 11 17 20 19 21 19 15 11 15 21 25 23 22 21 22 23 23 23 23 23 22 23
24 29 30 29 29 33 36 36 36 36 36 34 33 27 22 18 15 10 8 5 4 4 6 13 16 15 16 6 12 19 23 26 23 22 22 21 20 20 21 21 20 21 19
26 30 34 33 34 32 32 37 35 35 35 34 33 30 30 25 20 20 12 10 3 5 4 5 8 7 5 10 17 20 23 26 24 23 22 21 20 19 18 18 19 21 22
25 23 34 33 34 37 35 35 34 34 35 35 36 32 30 24 22 20 14 14 10 3 3 1 3 2 5 12 14 17 14 14 19 16 13 10 7 4 4 6 7 9 11
21 26 30 30 36 37 38 38 34 34 37 35 35 33 32 26 21 18 18 12 8 7 2 5 1 8 9 8 8 8 4 3 6 6 6 4 5 7 8 9 10 11 13
17 19 25 29 35 44 42 40 36 34 36 35 36 36 32 27 25 22 21 22 18 15 10 8 9 7 7 7 7 7 6 3 4 8 10 13 12 11 12 12 13 13 14
17 20 24 30 35 33 43 45 40 39 39 36 40 36 33 32 34 35 30 26 26 26 19 14 9 7 7 7 6 5 6 5 4 6 8 11 12 14 12 12 14 16 17
10 12 18 22 23 34 37 41 43 42 41 38 39 38 36 35 33 31 30 26 26 25 22 18 7 7 6 5 4 4 6 7 3 4 9 13 11 10 12 15 18 20 21
9 11 12 17 15 22 27 32 34 40 37 35 33 34 32 35 31 31 29 29 23 19 15 13 9 9 7 5 6 8 9 9 3 5 12 17 14 13 16 20 21 20 18
9 9 10 11 14 17 26 26 28 31 34 35 33 31 26 26 27 25 23 17 16 14 12 11 11 11 10 9 8 9 9 9 3 9 15 13 11 13 14 19 19 19 17
10 11 13 13 15 14 22 28 35 33 35 35 32 25 19 17 17 17 17 16 14 15 16 18 19 19 15 10 11 13 13 8 3 11 17 13 11 17 17 20 21 18 17
14 14 14 15 14 15 16 25 35 36 32 29 29 28 26 25 23 24 25 26 25 22 21 21 24 14 14 12 9 12 11 8 6 10 16 9 14 17 20 19 19 17 18
20 18 18 17 18 20 21 25 29 31 33 30 29 29 30 29 28 32 34 34 32 30 27 27 26 22 17 13 12 10 9 9 4 5 15 7 17 19 21 19 17 19 25
25 23 21 21 22 24 27 31 32 35 35 32 30 29 30 31 29 29 34 39 36 33 27 27 27 24 20 19 16 11 13 13 6 7 12 16 15 23 16 12 13 20 29
29 27 26 23 24 27 27 31 35 39 41 39 35 33 30 33 28 28 31 32 30 20 19 18 19 19 18 17 18 16 12 11 9 5 13 16 17 21 10 7 22 26 28

GFSMA_925_spd_120.txt.gz
Wind_Speed
27 28 29 28 29 29 24 24 21 25 23 21 20 17 15 12 14 14 16 17 17 17 16 17 16 15 14 13 12 12 13 12 12 11 9 9 8 8 6 5 4 4 3
28 31 30 27 30 26 26 27 24 25 25 22 20 17 15 13 15 15 15 16 16 15 16 16 15 14 13 13 13 12 12 11 11 11 10 9 8 8 7 6 5 4 3
29 33 32 29 34 30 26 25 25 25 25 22 21 18 15 15 16 15 14 15 16 16 16 15 15 13 13 13 13 12 12 12 11 10 9 8 8 7 7 6 6 5 6
36 35 32 33 32 35 33 30 28 27 26 23 22 20 16 16 15 16 14 15 16 16 15 14 13 14 13 13 11 11 10 11 11 10 8 8 8 8 8 9 9 8 8
34 34 33 33 35 34 38 37 30 30 27 25 23 21 18 17 16 16 15 15 15 15 14 15 14 14 14 13 11 11 10 11 10 9 9 9 8 9 11 12 11 11 11
36 36 32 34 37 37 36 36 34 30 30 27 25 21 18 17 16 15 15 15 15 14 14 14 16 14 16 15 13 12 12 12 10 10 11 10 10 13 13 12 13 13 13
32 36 34 35 41 40 38 41 37 33 30 28 25 20 17 15 15 14 15 16 16 16 15 15 15 13 13 17 15 13 14 13 12 12 12 12 13 13 16 16 17 18 19
31 34 34 34 42 39 40 39 38 32 31 32 30 24 8 10 14 15 15 15 16 16 16 16 15 14 13 13 13 14 15 15 15 15 16 16 17 18 20 21 22 23 23
26 28 33 30 41 43 40 40 40 36 31 31 31 27 11 7 20 19 18 17 17 16 16 16 16 16 14 11 11 13 15 17 18 17 17 17 20 21 22 23 25 26 27
24 27 33 35 38 42 41 45 40 38 35 32 29 29 23 19 13 8 19 20 19 18 18 17 18 16 16 13 13 14 14 15 17 19 20 22 23 24 25 26 26 27 27
22 21 27 32 42 43 44 43 40 37 35 33 30 27 21 18 23 14 11 19 20 21 19 18 15 14 16 12 12 12 13 8 9 13 17 20 22 23 24 24 24 24 24
17 21 27 33 39 36 41 41 40 38 33 32 30 29 26 22 19 16 9 18 20 21 19 16 16 14 13 11 10 8 12 10 12 14 14 16 18 20 21 21 20 19 18
21 25 29 33 33 36 39 38 38 37 34 32 32 30 26 24 20 20 14 16 15 11 12 15 14 13 11 8 7 11 12 13 15 17 17 17 18 17 17 16 16 15 15
21 27 29 31 33 35 41 36 36 36 34 33 33 30 28 25 21 20 16 16 8 10 8 7 8 9 10 9 13 10 11 16 20 20 20 18 14 10 10 10 10 9 7
23 22 28 27 31 36 37 35 31 32 32 32 31 31 29 26 21 20 17 23 18 5 5 6 4 6 11 8 6 4 4 8 13 11 7 6 2 1 2 3 6 8 10
18 27 30 30 30 31 38 37 29 30 31 31 30 32 30 23 22 20 20 18 15 9 4 11 7 12 9 7 4 4 4 2 5 5 4 5 6 7 7 9 10 11 11
17 19 26 30 31 33 34 34 36 32 33 32 32 33 31 27 29 27 24 19 13 13 7 5 13 12 9 8 7 6 3 2 3 7 10 7 7 8 10 11 12 14 16
13 16 18 21 26 36 38 36 35 33 36 34 34 32 31 30 33 31 27 21 20 20 19 15 13 10 8 8 8 7 7 4 2 5 8 9 10 9 10 11 14 16 17
11 14 18 19 21 24 27 40 42 39 38 36 35 36 35 36 32 27 28 26 26 27 23 17 7 10 9 10 8 8 9 4 3 5 7 9 8 8 10 13 14 16 15
10 12 13 13 13 17 24 39 42 40 39 40 39 37 33 38 34 32 26 25 24 24 25 19 12 14 14 10 9 7 6 4 2 4 8 10 10 14 15 16 13 15 14
8 9 8 7 8 10 16 31 32 34 31 28 30 32 33 31 32 29 28 27 29 27 19 18 16 15 12 9 7 6 5 3 4 7 9 4 6 8 9 12 13 15 14
10 10 8 8 6 7 13 20 27 27 29 33 35 31 28 31 29 31 30 24 21 23 23 17 12 17 14 14 10 9 7 3 2 6 8 2 6 10 11 13 16 16 18
15 14 14 14 15 16 16 24 27 31 36 33 34 34 31 28 27 26 24 23 21 17 15 21 27 19 15 10 10 9 7 5 5 5 9 4 11 12 15 16 16 17 18
21 20 18 19 21 23 21 31 36 35 35 33 31 32 35 30 28 30 33 36 34 31 28 28 27 24 19 13 10 8 6 5 5 5 12 4 11 14 17 14 14 17 22
25 22 21 24 26 27 30 33 38 39 37 33 31 31 34 34 32 35 37 43 39 36 31 31 29 26 21 17 13 10 11 8 4 4 9 10 10 16 12 11 14 20 25
29 27 25 24 28 32 33 38 39 43 40 38 35 34 32 34 32 32 38 40 36 27 25 24 24 22 19 19 17 14 11 9 6 1 7 10 10 14 7 10 20 19 22

GFSMA_925_spd_123.txt.gz
Wind_Speed
23 22 24 25 25 23 23 23 22 23 25 20 19 21 16 12 13 13 14 18 17 16 15 14 14 13 13 13 13 12 12 11 11 10 10 9 8 7 4 3 3 2 1
25 25 24 23 24 23 27 26 24 26 20 21 18 21 17 14 15 14 17 17 16 16 15 15 14 13 14 13 12 11 10 10 10 9 7 7 6 6 5 4 2 2 2
26 25 24 24 29 30 30 25 28 27 24 23 22 21 18 15 16 15 17 17 16 16 15 16 14 14 13 13 12 11 10 9 8 7 7 6 7 6 5 5 5 5 5
27 26 24 25 28 30 29 31 27 29 25 26 24 22 19 18 17 15 17 17 16 15 15 16 16 15 14 13 12 12 11 10 9 8 8 7 8 7 6 7 7 7 8
31 27 29 29 26 28 31 25 29 23 21 23 24 21 21 20 20 19 19 18 17 16 16 18 17 17 16 14 13 12 11 11 10 9 9 9 9 7 8 9 9 8 9
27 28 28 31 30 30 32 32 32 26 24 25 25 22 21 21 20 20 18 17 17 17 17 18 18 16 17 15 14 13 13 12 11 11 11 11 11 9 9 8 8 9 10
27 29 29 32 33 33 36 40 38 32 26 28 27 22 19 20 18 18 15 18 17 16 17 16 17 15 16 18 17 15 14 14 13 13 12 11 11 10 11 13 14 15 16
25 31 28 30 35 32 37 39 38 30 27 28 26 24 7 15 20 20 20 18 19 18 17 16 17 15 15 17 18 18 17 16 14 13 13 13 15 15 17 18 19 20 21
25 25 32 34 34 35 34 40 42 39 30 31 33 26 10 8 15 18 21 18 21 20 19 18 17 16 15 14 15 15 15 16 16 14 15 16 16 18 20 20 22 23 24
24 25 26 30 32 37 36 41 45 46 32 29 32 31 24 24 13 9 21 20 18 21 20 19 19 17 15 13 13 13 10 9 10 12 15 17 19 21 22 23 23 23 24
25 24 26 26 33 37 38 45 42 45 40 33 34 32 28 21 30 16 12 19 20 23 21 19 19 16 14 14 12 11 13 10 10 11 14 17 19 20 21 21 18 16 17
22 21 22 28 32 36 37 43 46 45 41 36 35 32 29 18 24 18 11 18 20 23 23 21 17 15 14 15 12 13 12 12 11 11 10 11 13 16 17 16 11 7 8
19 19 20 25 28 34 31 39 40 43 43 36 35 33 25 25 24 20 18 17 14 22 18 20 15 16 15 11 12 13 13 12 12 10 10 11 11 12 11 6 7 6 5
20 19 22 24 25 32 33 40 43 41 43 34 33 33 24 24 20 21 15 19 10 14 16 12 9 12 12 13 12 12 7 10 9 8 6 7 8 6 6 6 4 4 4
18 21 23 26 27 32 33 33 32 35 34 38 35 31 27 24 23 19 19 18 20 9 9 11 6 9 12 13 11 7 5 3 3 3 2 1 1 1 2 5 6 7 9
20 24 23 26 27 31 34 32 30 34 34 35 34 35 29 24 25 19 18 17 18 18 6 12 5 16 13 14 11 10 8 7 8 6 4 4 5 7 8 9 10 11 12
18 20 26 28 29 30 33 35 29 35 32 30 30 31 30 27 24 20 19 19 20 20 14 7 11 15 13 13 13 11 10 7 8 5 4 5 7 7 7 8 9 11 12
15 17 25 28 30 32 35 36 33 31 32 29 29 29 31 28 25 21 22 27 27 24 16 15 14 11 11 12 14 10 9 7 6 4 4 6 7 7 6 8 9 11 12
15 18 20 20 24 29 33 36 37 36 35 32 32 32 33 31 28 26 26 26 23 22 15 14 10 15 11 14 14 14 9 6 4 3 4 5 6 7 10 13 10 14 13
15 14 14 15 16 26 32 33 33 34 37 38 38 35 33 32 31 29 30 31 20 15 19 22 17 17 19 17 17 14 10 5 5 3 4 5 8 12 10 14 12 17 13
15 12 12 13 13 17 23 29 35 38 39 36 34 35 33 31 30 30 33 22 21 28 24 24 17 13 14 15 11 8 7 6 6 6 6 4 8 6 4 6 10 12 14
13 12 11 12 11 13 17 20 26 32 31 33 37 33 34 38 35 33 24 20 32 33 27 20 13 16 15 16 14 12 13 6 3 4 5 4 4 5 6 7 11 11 12
17 17 14 13 10 9 14 18 21 27 31 32 34 34 34 30 32 30 29 29 20 21 24 26 30 24 22 19 18 16 12 10 6 3 4 2 5 6 9 9 10 10 13
21 20 17 16 16 17 19 24 28 30 31 29 30 29 33 31 29 32 30 30 29 26 23 26 26 26 25 21 17 15 14 12 9 8 8 2 6 10 10 7 8 13 19
23 21 20 21 21 23 25 28 31 33 34 30 28 28 32 34 35 39 41 44 42 38 33 33 32 28 24 20 17 16 13 10 5 4 6 4 6 12 9 5 9 17 19
26 25 24 22 22 27 28 33 37 40 39 38 33 31 31 34 36 37 42 45 41 32 36 34 31 27 23 20 16 12 11 9 5 5 5 4 6 10 7 4 16 17 18

GFSMA_925_spd_126.txt.gz
Wind_Speed
24 24 24 26 26 24 27 25 24 25 25 26 23 20 17 14 20 21 23 19 19 16 16 16 16 17 17 14 13 14 13 13 13 12 11 11 9 8 7 7 8 6 4
26 25 24 28 26 27 30 27 27 25 25 24 28 23 21 12 23 20 21 19 19 18 17 16 16 16 15 14 12 13 13 13 12 11 10 9 7 5 4 4 5 4 2
27 27 26 23 27 27 30 30 21 18 24 22 26 26 23 17 19 21 20 22 19 18 19 17 16 15 14 14 13 13 14 13 12 11 10 8 7 5 3 2 1 1 1
28 26 25 24 27 28 31 30 27 21 23 23 21 28 22 20 18 22 21 25 22 20 19 17 17 16 15 14 14 14 13 13 12 11 9 7 6 4 4 3 4 3 3
32 27 25 23 24 29 30 31 27 24 28 24 24 28 20 23 22 24 28 23 21 22 21 19 18 17 15 15 14 14 13 12 11 10 8 6 5 5 5 5 4 4 4
26 28 27 23 25 29 31 33 31 29 30 27 26 28 21 25 25 21 27 26 25 24 22 21 19 18 17 17 16 15 13 12 10 9 8 6 5 5 3 3 4 6 8
37 31 27 30 27 29 35 35 29 34 30 28 26 25 18 28 28 23 27 28 28 26 25 20 23 20 20 20 18 16 14 12 12 10 9 6 3 4 6 7 9 11 13
29 34 30 30 31 29 34 35 35 27 28 28 19 21 4 13 23 23 22 23 29 26 26 24 19 20 20 22 21 18 16 15 13 11 8 8 8 9 11 12 14 15 17
31 31 31 30 32 34 33 37 40 34 29 29 26 20 5 4 11 17 23 20 27 25 24 24 18 22 23 15 16 17 17 18 16 12 11 10 10 12 13 14 16 17 18
21 27 29 31 32 32 34 36 40 39 35 27 30 30 20 19 9 5 22 25 22 28 23 23 21 20 18 17 15 10 14 14 13 13 12 13 15 16 18 18 18 17 17
29 24 27 30 32 33 34 37 37 38 39 34 29 32 28 26 25 13 10 15 18 28 25 24 22 21 16 15 10 16 11 12 12 13 14 14 16 16 17 14 9 7 7
26 28 28 29 32 34 35 40 42 44 42 38 28 33 29 22 24 20 9 17 14 24 23 22 22 22 19 17 12 15 16 14 13 11 11 10 10 9 4 5 5 3 1
24 26 29 29 32 35 36 37 37 36 43 42 37 35 33 25 33 29 26 19 13 18 22 26 21 19 17 18 18 20 17 16 14 12 11 9 8 8 7 5 3 4 4
23 24 25 22 28 30 34 36 36 34 39 48 34 35 33 34 36 32 29 27 11 14 22 21 15 20 20 20 20 18 17 16 14 12 8 7 6 6 5 4 4 4 4
24 23 24 25 25 27 29 28 32 33 36 42 37 38 38 37 29 33 31 33 28 8 7 9 7 14 20 20 16 13 11 10 9 7 6 4 4 5 5 2 3 4 6
22 23 22 23 23 25 25 29 30 31 36 38 34 37 39 24 33 24 23 35 31 26 6 10 7 19 18 17 15 14 13 12 9 9 7 7 6 5 5 5 6 7 8
25 24 22 24 26 27 26 30 28 28 31 38 35 39 36 34 22 21 21 26 30 30 15 9 18 19 17 17 16 16 13 10 10 10 8 7 5 6 7 7 6 7 7
22 24 25 25 26 27 27 30 28 30 28 32 34 29 31 31 28 25 24 22 29 30 27 20 21 17 19 16 16 14 13 10 8 7 7 7 5 6 7 6 7 11 8
20 20 26 28 28 27 29 31 31 32 33 35 35 40 38 36 33 31 26 25 27 26 28 25 18 19 20 19 18 14 12 10 8 7 7 6 6 8 11 9 10 12 8
22 21 23 27 30 30 30 32 32 31 32 32 34 35 38 38 35 33 30 31 28 28 27 31 22 20 19 21 19 19 15 10 7 6 6 7 6 6 9 6 7 10 8
20 18 17 20 25 32 32 32 33 32 32 31 35 40 34 39 39 37 37 37 36 33 30 25 17 11 15 22 22 18 15 12 9 7 6 7 6 4 4 1 7 9 8
20 17 15 16 17 17 28 32 33 34 34 36 33 33 35 34 34 35 36 37 33 28 18 14 11 12 16 21 21 22 22 11 4 6 8 8 2 3 2 2 6 8 9
20 18 18 19 17 16 19 20 24 27 28 29 35 41 34 33 38 38 38 36 31 25 23 25 29 23 24 25 26 23 18 15 9 8 11 8 1 1 4 4 5 8 11
25 21 17 15 13 11 14 17 22 19 18 21 29 34 43 38 38 40 36 29 23 16 16 20 24 21 22 26 23 24 23 20 16 10 5 3 3 5 5 5 3 8 11
24 22 19 17 17 17 17 18 22 24 24 22 21 25 33 32 29 36 39 39 36 34 27 28 30 32 30 27 26 24 20 17 9 4 7 4 4 7 3 3 4 8 11
27 25 21 18 20 22 22 24 28 32 33 31 27 26 27 32 33 33 35 43 41 34 41 39 35 33 29 25 20 17 14 11 9 5 4 3 4 7 3 1 8 11 16

GFSMA_925_spd_129.txt.gz
Wind_Speed
31 29 29 28 29 27 27 26 24 24 23 21 23 24 19 14 24 25 25 20 23 22 20 19 18 18 18 17 17 16 16 16 16 15 14 13 13 13 12 11 11 9 9
32 33 31 30 29 29 29 27 26 26 25 20 22 22 21 19 26 26 25 23 20 21 21 21 19 18 17 17 18 17 16 15 15 14 14 13 12 10 10 9 8 7 5
32 32 32 32 31 31 29 28 26 25 22 20 16 22 16 23 27 27 25 24 20 21 21 21 21 19 18 17 17 16 16 15 14 13 12 11 9 9 8 7 5 4 4
32 33 33 34 32 32 30 30 28 26 21 20 16 29 20 27 28 27 26 25 24 23 21 20 20 21 19 18 17 17 16 15 14 12 11 10 8 7 6 5 4 3 3
36 34 35 32 33 34 34 33 31 32 25 22 24 31 18 31 30 26 27 25 25 24 24 22 22 22 18 18 17 16 16 14 13 13 10 8 6 5 4 3 3 3 4
38 34 33 34 34 37 34 34 35 33 30 25 23 23 25 26 32 27 25 25 26 25 24 24 24 21 19 19 18 17 15 14 14 13 11 8 6 4 4 5 3 2 4
34 37 34 33 35 38 36 34 34 35 29 24 17 18 25 20 28 26 27 25 28 26 26 26 25 23 22 19 18 17 16 15 14 12 11 7 5 4 2 1 2 5 7
32 33 34 35 34 33 34 34 36 24 19 31 17 20 5 11 25 28 31 30 29 28 27 28 27 26 24 22 20 19 17 16 14 12 8 5 5 3 4 5 6 8 9
31 34 36 38 36 36 35 37 38 32 24 26 24 17 4 5 9 19 33 32 32 32 29 28 29 25 22 21 21 20 19 18 15 12 8 8 7 7 7 7 8 9 11
32 32 37 38 37 36 34 38 38 36 31 27 26 28 20 19 12 6 21 31 33 36 33 31 27 24 22 20 19 20 20 20 19 15 13 12 12 12 12 12 13 13 9
28 35 35 33 33 37 35 34 35 36 36 31 33 32 25 24 32 14 10 12 28 32 32 31 26 23 22 24 20 18 18 18 17 17 16 15 14 14 13 13 10 3 3
31 28 29 30 31 33 33 36 38 36 36 31 33 32 34 26 27 18 9 17 20 24 31 31 28 27 19 22 22 20 18 21 20 18 15 12 11 9 4 10 9 7 6
27 31 30 32 32 33 32 37 37 38 40 36 34 33 36 26 29 29 24 17 12 16 17 26 27 30 24 23 22 22 21 23 22 18 16 14 11 8 9 12 9 7 5
30 30 31 33 34 34 35 35 36 37 37 39 39 34 34 30 32 33 27 24 9 5 17 14 18 26 27 23 21 23 22 21 20 18 15 11 9 9 9 8 5 4 8
26 29 32 34 34 35 36 37 35 33 33 37 42 46 40 39 32 32 32 34 28 8 8 10 7 18 26 26 24 22 21 19 19 18 14 11 8 9 9 9 8 8 11
29 31 29 28 27 29 31 32 32 33 33 30 29 36 35 38 34 30 33 36 33 28 9 10 7 25 26 26 24 24 23 21 15 13 12 12 12 11 8 7 6 9 7
30 28 31 30 29 30 30 29 29 28 28 30 34 36 35 36 41 23 30 34 32 29 13 8 23 27 25 28 26 23 21 17 16 13 11 10 8 7 7 8 7 7 5
29 29 28 29 24 29 29 29 28 27 28 29 29 26 35 35 37 34 23 33 34 33 29 21 24 20 24 24 25 24 21 17 14 12 11 10 10 9 10 8 7 5 5
30 30 29 29 24 28 29 29 30 28 28 27 31 31 29 37 38 31 20 25 35 37 37 28 18 20 22 24 25 21 18 16 14 13 12 12 14 10 10 8 8 6 5
27 31 30 29 25 27 26 28 30 30 29 27 32 33 36 37 36 35 28 23 30 37 34 31 25 22 22 24 25 25 20 17 15 12 10 12 13 10 7 6 5 6 4
28 31 29 29 29 28 29 30 30 30 29 29 31 35 35 38 42 40 33 24 32 33 33 28 26 19 23 25 26 24 18 17 13 12 13 12 10 9 7 6 0 3 3
27 25 24 28 28 29 29 31 30 30 30 30 30 33 36 46 48 39 35 31 29 31 28 21 22 24 27 28 31 30 26 15 6 14 15 12 9 10 10 5 1 3 6
28 25 22 21 19 19 26 29 29 29 29 30 29 32 30 40 45 43 36 34 34 29 30 38 42 32 30 39 35 29 24 20 10 19 19 12 9 9 5 4 3 5 6
30 27 24 21 20 17 22 28 32 28 25 23 24 25 30 32 46 46 36 32 33 32 34 33 34 29 22 28 28 31 28 24 22 17 14 6 8 7 6 8 5 3 4
30 27 24 22 19 15 14 16 21 20 16 12 10 16 23 29 37 43 39 35 33 28 19 21 21 21 20 24 27 33 32 28 9 7 8 7 6 6 11 11 3 4 5
33 29 24 20 18 17 16 17 17 22 21 21 17 14 16 24 29 41 43 43 40 33 40 40 40 39 34 32 30 27 29 19 16 6 10 7 9 8 6 6 4 5 7